<?xml version="1.0" encoding="UTF-8" standalone="no" ?>
<gpx xmlns="http://www.topografix.com/GPX/1/1" xmlns:xsi="http://www.w3.org/2001/XMLSchema-instance" xsi:schemaLocation="http://www.topografix.com/GPX/1/1 http://www.topografix.com/GPX/1/1/gpx.xsd" version="1.1" creator="VisuGPX - https://www.visugpx.com">
  <metadata>
    <name>Tour de VTT 1er Juillet</name>
    <desc><![CDATA[Tour de VTT 1er Juillet 2012]]></desc>
  </metadata>
  <trk>
    <name><![CDATA[runtastic_20120701_0813_Mountain Biking]]></name>
    <trkseg>
      <trkpt lat="44.8621" lon="-0.3685">
        <ele>84</ele>
        <time>2012-07-01T08:13:21.000Z</time>
      </trkpt>
      <trkpt lat="44.86211" lon="-0.36849">
        <ele>85</ele>
        <time>2012-07-01T08:13:31.000Z</time>
      </trkpt>
      <trkpt lat="44.86211" lon="-0.36849">
        <ele>85</ele>
        <time>2012-07-01T08:13:52.000Z</time>
      </trkpt>
      <trkpt lat="44.86212" lon="-0.36849">
        <ele>85</ele>
        <time>2012-07-01T08:14:15.000Z</time>
      </trkpt>
      <trkpt lat="44.86214" lon="-0.3685">
        <ele>85</ele>
        <time>2012-07-01T08:14:18.000Z</time>
      </trkpt>
      <trkpt lat="44.86216" lon="-0.36851">
        <ele>85</ele>
        <time>2012-07-01T08:14:20.000Z</time>
      </trkpt>
      <trkpt lat="44.86218" lon="-0.3685">
        <ele>85</ele>
        <time>2012-07-01T08:14:22.000Z</time>
      </trkpt>
      <trkpt lat="44.86219" lon="-0.3685">
        <ele>85</ele>
        <time>2012-07-01T08:14:36.000Z</time>
      </trkpt>
      <trkpt lat="44.86221" lon="-0.3685">
        <ele>86</ele>
        <time>2012-07-01T08:14:38.000Z</time>
      </trkpt>
      <trkpt lat="44.86224" lon="-0.3685">
        <ele>86</ele>
        <time>2012-07-01T08:14:41.000Z</time>
      </trkpt>
      <trkpt lat="44.86228" lon="-0.3685">
        <ele>85</ele>
        <time>2012-07-01T08:14:51.000Z</time>
      </trkpt>
      <trkpt lat="44.86231" lon="-0.36853">
        <ele>84</ele>
        <time>2012-07-01T08:14:54.000Z</time>
      </trkpt>
      <trkpt lat="44.86232" lon="-0.36857">
        <ele>82</ele>
        <time>2012-07-01T08:14:56.000Z</time>
      </trkpt>
      <trkpt lat="44.86232" lon="-0.36864">
        <ele>81</ele>
        <time>2012-07-01T08:14:59.000Z</time>
      </trkpt>
      <trkpt lat="44.86231" lon="-0.36869">
        <ele>80</ele>
        <time>2012-07-01T08:15:01.000Z</time>
      </trkpt>
      <trkpt lat="44.86228" lon="-0.36893">
        <ele>81</ele>
        <time>2012-07-01T08:15:11.000Z</time>
      </trkpt>
      <trkpt lat="44.86228" lon="-0.36897">
        <ele>81</ele>
        <time>2012-07-01T08:15:13.000Z</time>
      </trkpt>
      <trkpt lat="44.86227" lon="-0.36906">
        <ele>81</ele>
        <time>2012-07-01T08:15:16.000Z</time>
      </trkpt>
      <trkpt lat="44.86226" lon="-0.36928">
        <ele>82</ele>
        <time>2012-07-01T08:15:22.000Z</time>
      </trkpt>
      <trkpt lat="44.86226" lon="-0.36943">
        <ele>82</ele>
        <time>2012-07-01T08:15:25.000Z</time>
      </trkpt>
      <trkpt lat="44.86226" lon="-0.36956">
        <ele>83</ele>
        <time>2012-07-01T08:15:28.000Z</time>
      </trkpt>
      <trkpt lat="44.86226" lon="-0.36965">
        <ele>83</ele>
        <time>2012-07-01T08:15:30.000Z</time>
      </trkpt>
      <trkpt lat="44.8623" lon="-0.37009">
        <ele>82</ele>
        <time>2012-07-01T08:15:39.000Z</time>
      </trkpt>
      <trkpt lat="44.86235" lon="-0.37047">
        <ele>81</ele>
        <time>2012-07-01T08:15:47.000Z</time>
      </trkpt>
      <trkpt lat="44.86237" lon="-0.3706">
        <ele>80</ele>
        <time>2012-07-01T08:15:50.000Z</time>
      </trkpt>
      <trkpt lat="44.86245" lon="-0.37124">
        <ele>80</ele>
        <time>2012-07-01T08:16:05.000Z</time>
      </trkpt>
      <trkpt lat="44.86254" lon="-0.37178">
        <ele>79</ele>
        <time>2012-07-01T08:16:17.000Z</time>
      </trkpt>
      <trkpt lat="44.86255" lon="-0.37188">
        <ele>78</ele>
        <time>2012-07-01T08:16:19.000Z</time>
      </trkpt>
      <trkpt lat="44.86261" lon="-0.3721">
        <ele>77</ele>
        <time>2012-07-01T08:16:24.000Z</time>
      </trkpt>
      <trkpt lat="44.86263" lon="-0.37218">
        <ele>76</ele>
        <time>2012-07-01T08:16:26.000Z</time>
      </trkpt>
      <trkpt lat="44.86279" lon="-0.37261">
        <ele>76</ele>
        <time>2012-07-01T08:16:35.000Z</time>
      </trkpt>
      <trkpt lat="44.86295" lon="-0.37298">
        <ele>75</ele>
        <time>2012-07-01T08:16:46.000Z</time>
      </trkpt>
      <trkpt lat="44.86304" lon="-0.37319">
        <ele>76</ele>
        <time>2012-07-01T08:16:50.000Z</time>
      </trkpt>
      <trkpt lat="44.86306" lon="-0.37327">
        <ele>76</ele>
        <time>2012-07-01T08:16:53.000Z</time>
      </trkpt>
      <trkpt lat="44.86309" lon="-0.37336">
        <ele>77</ele>
        <time>2012-07-01T08:16:55.000Z</time>
      </trkpt>
      <trkpt lat="44.86312" lon="-0.37348">
        <ele>78</ele>
        <time>2012-07-01T08:16:58.000Z</time>
      </trkpt>
      <trkpt lat="44.86316" lon="-0.37369">
        <ele>79</ele>
        <time>2012-07-01T08:17:03.000Z</time>
      </trkpt>
      <trkpt lat="44.86319" lon="-0.37399">
        <ele>80</ele>
        <time>2012-07-01T08:17:10.000Z</time>
      </trkpt>
      <trkpt lat="44.86325" lon="-0.37465">
        <ele>80</ele>
        <time>2012-07-01T08:17:25.000Z</time>
      </trkpt>
      <trkpt lat="44.86329" lon="-0.37524">
        <ele>81</ele>
        <time>2012-07-01T08:17:38.000Z</time>
      </trkpt>
      <trkpt lat="44.86329" lon="-0.37534">
        <ele>81</ele>
        <time>2012-07-01T08:17:40.000Z</time>
      </trkpt>
      <trkpt lat="44.86329" lon="-0.37543">
        <ele>81</ele>
        <time>2012-07-01T08:17:42.000Z</time>
      </trkpt>
      <trkpt lat="44.86326" lon="-0.37557">
        <ele>81</ele>
        <time>2012-07-01T08:17:45.000Z</time>
      </trkpt>
      <trkpt lat="44.86311" lon="-0.37625">
        <ele>81</ele>
        <time>2012-07-01T08:18:00.000Z</time>
      </trkpt>
      <trkpt lat="44.86304" lon="-0.37661">
        <ele>82</ele>
        <time>2012-07-01T08:18:07.000Z</time>
      </trkpt>
      <trkpt lat="44.86305" lon="-0.37677">
        <ele>82</ele>
        <time>2012-07-01T08:18:10.000Z</time>
      </trkpt>
      <trkpt lat="44.86309" lon="-0.37703">
        <ele>82</ele>
        <time>2012-07-01T08:18:15.000Z</time>
      </trkpt>
      <trkpt lat="44.86315" lon="-0.37729">
        <ele>81</ele>
        <time>2012-07-01T08:18:20.000Z</time>
      </trkpt>
      <trkpt lat="44.86329" lon="-0.37799">
        <ele>82</ele>
        <time>2012-07-01T08:18:33.000Z</time>
      </trkpt>
      <trkpt lat="44.86339" lon="-0.37849">
        <ele>81</ele>
        <time>2012-07-01T08:18:43.000Z</time>
      </trkpt>
      <trkpt lat="44.86348" lon="-0.37914">
        <ele>81</ele>
        <time>2012-07-01T08:18:56.000Z</time>
      </trkpt>
      <trkpt lat="44.86358" lon="-0.37991">
        <ele>81</ele>
        <time>2012-07-01T08:19:11.000Z</time>
      </trkpt>
      <trkpt lat="44.86358" lon="-0.38004">
        <ele>80</ele>
        <time>2012-07-01T08:19:14.000Z</time>
      </trkpt>
      <trkpt lat="44.86357" lon="-0.38013">
        <ele>80</ele>
        <time>2012-07-01T08:19:16.000Z</time>
      </trkpt>
      <trkpt lat="44.86356" lon="-0.38029">
        <ele>79</ele>
        <time>2012-07-01T08:19:19.000Z</time>
      </trkpt>
      <trkpt lat="44.86351" lon="-0.38056">
        <ele>78</ele>
        <time>2012-07-01T08:19:25.000Z</time>
      </trkpt>
      <trkpt lat="44.8635" lon="-0.38062">
        <ele>79</ele>
        <time>2012-07-01T08:19:27.000Z</time>
      </trkpt>
      <trkpt lat="44.86349" lon="-0.38069">
        <ele>79</ele>
        <time>2012-07-01T08:19:30.000Z</time>
      </trkpt>
      <trkpt lat="44.86349" lon="-0.38071">
        <ele>79</ele>
        <time>2012-07-01T08:19:32.000Z</time>
      </trkpt>
      <trkpt lat="44.86349" lon="-0.38071">
        <ele>79</ele>
        <time>2012-07-01T08:19:52.000Z</time>
      </trkpt>
      <trkpt lat="44.86351" lon="-0.38071">
        <ele>79</ele>
        <time>2012-07-01T08:20:20.000Z</time>
      </trkpt>
      <trkpt lat="44.86351" lon="-0.38071">
        <ele>79</ele>
        <time>2012-07-01T08:20:40.000Z</time>
      </trkpt>
      <trkpt lat="44.86352" lon="-0.38071">
        <ele>79</ele>
        <time>2012-07-01T08:20:53.000Z</time>
      </trkpt>
      <trkpt lat="44.86351" lon="-0.3807">
        <ele>79</ele>
        <time>2012-07-01T08:21:04.000Z</time>
      </trkpt>
      <trkpt lat="44.86354" lon="-0.38057">
        <ele>79</ele>
        <time>2012-07-01T08:21:07.000Z</time>
      </trkpt>
      <trkpt lat="44.86356" lon="-0.38006">
        <ele>78</ele>
        <time>2012-07-01T08:21:18.000Z</time>
      </trkpt>
      <trkpt lat="44.86355" lon="-0.38005">
        <ele>78</ele>
        <time>2012-07-01T08:21:40.000Z</time>
      </trkpt>
      <trkpt lat="44.86356" lon="-0.38007">
        <ele>78</ele>
        <time>2012-07-01T08:21:43.000Z</time>
      </trkpt>
      <trkpt lat="44.86354" lon="-0.38008">
        <ele>78</ele>
        <time>2012-07-01T08:21:48.000Z</time>
      </trkpt>
      <trkpt lat="44.86352" lon="-0.3801">
        <ele>78</ele>
        <time>2012-07-01T08:21:50.000Z</time>
      </trkpt>
      <trkpt lat="44.86346" lon="-0.38013">
        <ele>78</ele>
        <time>2012-07-01T08:21:53.000Z</time>
      </trkpt>
      <trkpt lat="44.86337" lon="-0.3802">
        <ele>78</ele>
        <time>2012-07-01T08:21:58.000Z</time>
      </trkpt>
      <trkpt lat="44.86332" lon="-0.38023">
        <ele>78</ele>
        <time>2012-07-01T08:22:00.000Z</time>
      </trkpt>
      <trkpt lat="44.86312" lon="-0.38035">
        <ele>79</ele>
        <time>2012-07-01T08:22:08.000Z</time>
      </trkpt>
      <trkpt lat="44.86284" lon="-0.38053">
        <ele>80</ele>
        <time>2012-07-01T08:22:20.000Z</time>
      </trkpt>
      <trkpt lat="44.86252" lon="-0.38073">
        <ele>81</ele>
        <time>2012-07-01T08:22:33.000Z</time>
      </trkpt>
      <trkpt lat="44.86237" lon="-0.38073">
        <ele>81</ele>
        <time>2012-07-01T08:22:41.000Z</time>
      </trkpt>
      <trkpt lat="44.86234" lon="-0.38067">
        <ele>81</ele>
        <time>2012-07-01T08:22:43.000Z</time>
      </trkpt>
      <trkpt lat="44.86202" lon="-0.38018">
        <ele>81</ele>
        <time>2012-07-01T08:23:02.000Z</time>
      </trkpt>
      <trkpt lat="44.86177" lon="-0.37989">
        <ele>81</ele>
        <time>2012-07-01T08:23:14.000Z</time>
      </trkpt>
      <trkpt lat="44.86169" lon="-0.37985">
        <ele>81</ele>
        <time>2012-07-01T08:23:17.000Z</time>
      </trkpt>
      <trkpt lat="44.86127" lon="-0.37966">
        <ele>80</ele>
        <time>2012-07-01T08:23:31.000Z</time>
      </trkpt>
      <trkpt lat="44.86111" lon="-0.37957">
        <ele>80</ele>
        <time>2012-07-01T08:23:37.000Z</time>
      </trkpt>
      <trkpt lat="44.86109" lon="-0.37949">
        <ele>80</ele>
        <time>2012-07-01T08:23:40.000Z</time>
      </trkpt>
      <trkpt lat="44.86108" lon="-0.37943">
        <ele>79</ele>
        <time>2012-07-01T08:23:42.000Z</time>
      </trkpt>
      <trkpt lat="44.8611" lon="-0.37937">
        <ele>79</ele>
        <time>2012-07-01T08:23:44.000Z</time>
      </trkpt>
      <trkpt lat="44.86131" lon="-0.37884">
        <ele>80</ele>
        <time>2012-07-01T08:24:02.000Z</time>
      </trkpt>
      <trkpt lat="44.86132" lon="-0.37865">
        <ele>80</ele>
        <time>2012-07-01T08:24:09.000Z</time>
      </trkpt>
      <trkpt lat="44.86128" lon="-0.37865">
        <ele>80</ele>
        <time>2012-07-01T08:24:11.000Z</time>
      </trkpt>
      <trkpt lat="44.86124" lon="-0.37866">
        <ele>80</ele>
        <time>2012-07-01T08:24:13.000Z</time>
      </trkpt>
      <trkpt lat="44.86108" lon="-0.37868">
        <ele>80</ele>
        <time>2012-07-01T08:24:19.000Z</time>
      </trkpt>
      <trkpt lat="44.86081" lon="-0.3787">
        <ele>79</ele>
        <time>2012-07-01T08:24:25.000Z</time>
      </trkpt>
      <trkpt lat="44.86047" lon="-0.37874">
        <ele>78</ele>
        <time>2012-07-01T08:24:30.000Z</time>
      </trkpt>
      <trkpt lat="44.86016" lon="-0.37875">
        <ele>77</ele>
        <time>2012-07-01T08:24:34.000Z</time>
      </trkpt>
      <trkpt lat="44.85963" lon="-0.37878">
        <ele>76</ele>
        <time>2012-07-01T08:24:40.000Z</time>
      </trkpt>
      <trkpt lat="44.85921" lon="-0.37883">
        <ele>75</ele>
        <time>2012-07-01T08:24:46.000Z</time>
      </trkpt>
      <trkpt lat="44.85911" lon="-0.37885">
        <ele>74</ele>
        <time>2012-07-01T08:24:48.000Z</time>
      </trkpt>
      <trkpt lat="44.85857" lon="-0.37899">
        <ele>74</ele>
        <time>2012-07-01T08:25:02.000Z</time>
      </trkpt>
      <trkpt lat="44.8585" lon="-0.37902">
        <ele>75</ele>
        <time>2012-07-01T08:25:04.000Z</time>
      </trkpt>
      <trkpt lat="44.85822" lon="-0.37914">
        <ele>76</ele>
        <time>2012-07-01T08:25:13.000Z</time>
      </trkpt>
      <trkpt lat="44.85787" lon="-0.37927">
        <ele>75</ele>
        <time>2012-07-01T08:25:23.000Z</time>
      </trkpt>
      <trkpt lat="44.8574" lon="-0.3794">
        <ele>74</ele>
        <time>2012-07-01T08:25:33.000Z</time>
      </trkpt>
      <trkpt lat="44.85728" lon="-0.37946">
        <ele>74</ele>
        <time>2012-07-01T08:25:36.000Z</time>
      </trkpt>
      <trkpt lat="44.85717" lon="-0.37961">
        <ele>74</ele>
        <time>2012-07-01T08:25:39.000Z</time>
      </trkpt>
      <trkpt lat="44.85709" lon="-0.37968">
        <ele>73</ele>
        <time>2012-07-01T08:25:41.000Z</time>
      </trkpt>
      <trkpt lat="44.85699" lon="-0.37972">
        <ele>73</ele>
        <time>2012-07-01T08:25:43.000Z</time>
      </trkpt>
      <trkpt lat="44.8569" lon="-0.37975">
        <ele>72</ele>
        <time>2012-07-01T08:25:46.000Z</time>
      </trkpt>
      <trkpt lat="44.85686" lon="-0.37974">
        <ele>72</ele>
        <time>2012-07-01T08:25:49.000Z</time>
      </trkpt>
      <trkpt lat="44.85683" lon="-0.37968">
        <ele>72</ele>
        <time>2012-07-01T08:25:51.000Z</time>
      </trkpt>
      <trkpt lat="44.85677" lon="-0.37953">
        <ele>72</ele>
        <time>2012-07-01T08:25:54.000Z</time>
      </trkpt>
      <trkpt lat="44.85673" lon="-0.37942">
        <ele>71</ele>
        <time>2012-07-01T08:25:56.000Z</time>
      </trkpt>
      <trkpt lat="44.85669" lon="-0.37931">
        <ele>72</ele>
        <time>2012-07-01T08:25:58.000Z</time>
      </trkpt>
      <trkpt lat="44.85652" lon="-0.37895">
        <ele>71</ele>
        <time>2012-07-01T08:26:06.000Z</time>
      </trkpt>
      <trkpt lat="44.85646" lon="-0.37886">
        <ele>71</ele>
        <time>2012-07-01T08:26:08.000Z</time>
      </trkpt>
      <trkpt lat="44.85637" lon="-0.37872">
        <ele>70</ele>
        <time>2012-07-01T08:26:12.000Z</time>
      </trkpt>
      <trkpt lat="44.85627" lon="-0.37871">
        <ele>70</ele>
        <time>2012-07-01T08:26:15.000Z</time>
      </trkpt>
      <trkpt lat="44.85617" lon="-0.37875">
        <ele>69</ele>
        <time>2012-07-01T08:26:17.000Z</time>
      </trkpt>
      <trkpt lat="44.85605" lon="-0.37882">
        <ele>68</ele>
        <time>2012-07-01T08:26:19.000Z</time>
      </trkpt>
      <trkpt lat="44.85583" lon="-0.37897">
        <ele>67</ele>
        <time>2012-07-01T08:26:22.000Z</time>
      </trkpt>
      <trkpt lat="44.8556" lon="-0.37914">
        <ele>66</ele>
        <time>2012-07-01T08:26:25.000Z</time>
      </trkpt>
      <trkpt lat="44.85536" lon="-0.37932">
        <ele>65</ele>
        <time>2012-07-01T08:26:28.000Z</time>
      </trkpt>
      <trkpt lat="44.85523" lon="-0.37942">
        <ele>64</ele>
        <time>2012-07-01T08:26:30.000Z</time>
      </trkpt>
      <trkpt lat="44.85508" lon="-0.37952">
        <ele>63</ele>
        <time>2012-07-01T08:26:32.000Z</time>
      </trkpt>
      <trkpt lat="44.85486" lon="-0.37967">
        <ele>62</ele>
        <time>2012-07-01T08:26:35.000Z</time>
      </trkpt>
      <trkpt lat="44.85451" lon="-0.37987">
        <ele>61</ele>
        <time>2012-07-01T08:26:40.000Z</time>
      </trkpt>
      <trkpt lat="44.85422" lon="-0.38003">
        <ele>60</ele>
        <time>2012-07-01T08:26:45.000Z</time>
      </trkpt>
      <trkpt lat="44.85405" lon="-0.38007">
        <ele>59</ele>
        <time>2012-07-01T08:26:48.000Z</time>
      </trkpt>
      <trkpt lat="44.85391" lon="-0.38012">
        <ele>57</ele>
        <time>2012-07-01T08:26:51.000Z</time>
      </trkpt>
      <trkpt lat="44.85383" lon="-0.38031">
        <ele>56</ele>
        <time>2012-07-01T08:26:54.000Z</time>
      </trkpt>
      <trkpt lat="44.85377" lon="-0.38045">
        <ele>54</ele>
        <time>2012-07-01T08:26:56.000Z</time>
      </trkpt>
      <trkpt lat="44.85371" lon="-0.38061">
        <ele>53</ele>
        <time>2012-07-01T08:26:58.000Z</time>
      </trkpt>
      <trkpt lat="44.85369" lon="-0.38089">
        <ele>51</ele>
        <time>2012-07-01T08:27:01.000Z</time>
      </trkpt>
      <trkpt lat="44.85369" lon="-0.38107">
        <ele>50</ele>
        <time>2012-07-01T08:27:03.000Z</time>
      </trkpt>
      <trkpt lat="44.85365" lon="-0.38146">
        <ele>49</ele>
        <time>2012-07-01T08:27:08.000Z</time>
      </trkpt>
      <trkpt lat="44.85361" lon="-0.38202">
        <ele>50</ele>
        <time>2012-07-01T08:27:15.000Z</time>
      </trkpt>
      <trkpt lat="44.85361" lon="-0.3821">
        <ele>50</ele>
        <time>2012-07-01T08:27:17.000Z</time>
      </trkpt>
      <trkpt lat="44.8536" lon="-0.38223">
        <ele>50</ele>
        <time>2012-07-01T08:27:20.000Z</time>
      </trkpt>
      <trkpt lat="44.85358" lon="-0.38237">
        <ele>51</ele>
        <time>2012-07-01T08:27:23.000Z</time>
      </trkpt>
      <trkpt lat="44.85358" lon="-0.38256">
        <ele>51</ele>
        <time>2012-07-01T08:27:26.000Z</time>
      </trkpt>
      <trkpt lat="44.85358" lon="-0.38265">
        <ele>52</ele>
        <time>2012-07-01T08:27:28.000Z</time>
      </trkpt>
      <trkpt lat="44.85358" lon="-0.38284">
        <ele>53</ele>
        <time>2012-07-01T08:27:33.000Z</time>
      </trkpt>
      <trkpt lat="44.85358" lon="-0.38292">
        <ele>53</ele>
        <time>2012-07-01T08:27:35.000Z</time>
      </trkpt>
      <trkpt lat="44.85358" lon="-0.383">
        <ele>53</ele>
        <time>2012-07-01T08:27:37.000Z</time>
      </trkpt>
      <trkpt lat="44.85358" lon="-0.38307">
        <ele>54</ele>
        <time>2012-07-01T08:27:39.000Z</time>
      </trkpt>
      <trkpt lat="44.85358" lon="-0.38326">
        <ele>54</ele>
        <time>2012-07-01T08:27:44.000Z</time>
      </trkpt>
      <trkpt lat="44.85357" lon="-0.38338">
        <ele>55</ele>
        <time>2012-07-01T08:27:47.000Z</time>
      </trkpt>
      <trkpt lat="44.85358" lon="-0.3839">
        <ele>56</ele>
        <time>2012-07-01T08:28:02.000Z</time>
      </trkpt>
      <trkpt lat="44.85361" lon="-0.38397">
        <ele>56</ele>
        <time>2012-07-01T08:28:04.000Z</time>
      </trkpt>
      <trkpt lat="44.85363" lon="-0.38408">
        <ele>56</ele>
        <time>2012-07-01T08:28:07.000Z</time>
      </trkpt>
      <trkpt lat="44.85368" lon="-0.38465">
        <ele>55</ele>
        <time>2012-07-01T08:28:22.000Z</time>
      </trkpt>
      <trkpt lat="44.85371" lon="-0.38505">
        <ele>54</ele>
        <time>2012-07-01T08:28:28.000Z</time>
      </trkpt>
      <trkpt lat="44.85375" lon="-0.38527">
        <ele>53</ele>
        <time>2012-07-01T08:28:31.000Z</time>
      </trkpt>
      <trkpt lat="44.85385" lon="-0.38536">
        <ele>52</ele>
        <time>2012-07-01T08:28:33.000Z</time>
      </trkpt>
      <trkpt lat="44.85404" lon="-0.38548">
        <ele>51</ele>
        <time>2012-07-01T08:28:36.000Z</time>
      </trkpt>
      <trkpt lat="44.85413" lon="-0.38562">
        <ele>50</ele>
        <time>2012-07-01T08:28:38.000Z</time>
      </trkpt>
      <trkpt lat="44.85419" lon="-0.38578">
        <ele>49</ele>
        <time>2012-07-01T08:28:40.000Z</time>
      </trkpt>
      <trkpt lat="44.85429" lon="-0.3862">
        <ele>48</ele>
        <time>2012-07-01T08:28:46.000Z</time>
      </trkpt>
      <trkpt lat="44.85434" lon="-0.38649">
        <ele>47</ele>
        <time>2012-07-01T08:28:50.000Z</time>
      </trkpt>
      <trkpt lat="44.85441" lon="-0.38662">
        <ele>47</ele>
        <time>2012-07-01T08:28:53.000Z</time>
      </trkpt>
      <trkpt lat="44.85446" lon="-0.38667">
        <ele>48</ele>
        <time>2012-07-01T08:28:55.000Z</time>
      </trkpt>
      <trkpt lat="44.85452" lon="-0.38669">
        <ele>48</ele>
        <time>2012-07-01T08:28:57.000Z</time>
      </trkpt>
      <trkpt lat="44.85463" lon="-0.38669">
        <ele>48</ele>
        <time>2012-07-01T08:29:00.000Z</time>
      </trkpt>
      <trkpt lat="44.85469" lon="-0.38668">
        <ele>49</ele>
        <time>2012-07-01T08:29:02.000Z</time>
      </trkpt>
      <trkpt lat="44.85481" lon="-0.38669">
        <ele>50</ele>
        <time>2012-07-01T08:29:07.000Z</time>
      </trkpt>
      <trkpt lat="44.85487" lon="-0.38676">
        <ele>50</ele>
        <time>2012-07-01T08:29:10.000Z</time>
      </trkpt>
      <trkpt lat="44.8549" lon="-0.38687">
        <ele>51</ele>
        <time>2012-07-01T08:29:13.000Z</time>
      </trkpt>
      <trkpt lat="44.85493" lon="-0.38704">
        <ele>52</ele>
        <time>2012-07-01T08:29:17.000Z</time>
      </trkpt>
      <trkpt lat="44.85497" lon="-0.38724">
        <ele>53</ele>
        <time>2012-07-01T08:29:22.000Z</time>
      </trkpt>
      <trkpt lat="44.85501" lon="-0.38761">
        <ele>54</ele>
        <time>2012-07-01T08:29:30.000Z</time>
      </trkpt>
      <trkpt lat="44.85505" lon="-0.38777">
        <ele>54</ele>
        <time>2012-07-01T08:29:33.000Z</time>
      </trkpt>
      <trkpt lat="44.85514" lon="-0.38778">
        <ele>55</ele>
        <time>2012-07-01T08:29:36.000Z</time>
      </trkpt>
      <trkpt lat="44.85529" lon="-0.38787">
        <ele>56</ele>
        <time>2012-07-01T08:29:41.000Z</time>
      </trkpt>
      <trkpt lat="44.85532" lon="-0.38794">
        <ele>57</ele>
        <time>2012-07-01T08:29:43.000Z</time>
      </trkpt>
      <trkpt lat="44.85535" lon="-0.38807">
        <ele>57</ele>
        <time>2012-07-01T08:29:46.000Z</time>
      </trkpt>
      <trkpt lat="44.85537" lon="-0.3883">
        <ele>58</ele>
        <time>2012-07-01T08:29:51.000Z</time>
      </trkpt>
      <trkpt lat="44.85537" lon="-0.38851">
        <ele>59</ele>
        <time>2012-07-01T08:29:57.000Z</time>
      </trkpt>
      <trkpt lat="44.85533" lon="-0.38854">
        <ele>59</ele>
        <time>2012-07-01T08:29:59.000Z</time>
      </trkpt>
      <trkpt lat="44.85528" lon="-0.38855">
        <ele>60</ele>
        <time>2012-07-01T08:30:01.000Z</time>
      </trkpt>
      <trkpt lat="44.85519" lon="-0.38853">
        <ele>60</ele>
        <time>2012-07-01T08:30:04.000Z</time>
      </trkpt>
      <trkpt lat="44.85486" lon="-0.38847">
        <ele>59</ele>
        <time>2012-07-01T08:30:12.000Z</time>
      </trkpt>
      <trkpt lat="44.85464" lon="-0.38838">
        <ele>59</ele>
        <time>2012-07-01T08:30:17.000Z</time>
      </trkpt>
      <trkpt lat="44.85455" lon="-0.3883">
        <ele>58</ele>
        <time>2012-07-01T08:30:19.000Z</time>
      </trkpt>
      <trkpt lat="44.85442" lon="-0.38816">
        <ele>58</ele>
        <time>2012-07-01T08:30:22.000Z</time>
      </trkpt>
      <trkpt lat="44.85433" lon="-0.38806">
        <ele>57</ele>
        <time>2012-07-01T08:30:24.000Z</time>
      </trkpt>
      <trkpt lat="44.85425" lon="-0.38797">
        <ele>56</ele>
        <time>2012-07-01T08:30:26.000Z</time>
      </trkpt>
      <trkpt lat="44.85416" lon="-0.38783">
        <ele>55</ele>
        <time>2012-07-01T08:30:29.000Z</time>
      </trkpt>
      <trkpt lat="44.85408" lon="-0.38773">
        <ele>54</ele>
        <time>2012-07-01T08:30:31.000Z</time>
      </trkpt>
      <trkpt lat="44.85401" lon="-0.38766">
        <ele>53</ele>
        <time>2012-07-01T08:30:33.000Z</time>
      </trkpt>
      <trkpt lat="44.85386" lon="-0.38756">
        <ele>52</ele>
        <time>2012-07-01T08:30:36.000Z</time>
      </trkpt>
      <trkpt lat="44.85374" lon="-0.38753">
        <ele>52</ele>
        <time>2012-07-01T08:30:38.000Z</time>
      </trkpt>
      <trkpt lat="44.85358" lon="-0.38753">
        <ele>51</ele>
        <time>2012-07-01T08:30:41.000Z</time>
      </trkpt>
      <trkpt lat="44.85348" lon="-0.38755">
        <ele>51</ele>
        <time>2012-07-01T08:30:43.000Z</time>
      </trkpt>
      <trkpt lat="44.85335" lon="-0.3876">
        <ele>51</ele>
        <time>2012-07-01T08:30:46.000Z</time>
      </trkpt>
      <trkpt lat="44.85312" lon="-0.38773">
        <ele>51</ele>
        <time>2012-07-01T08:30:51.000Z</time>
      </trkpt>
      <trkpt lat="44.85286" lon="-0.38791">
        <ele>51</ele>
        <time>2012-07-01T08:30:57.000Z</time>
      </trkpt>
      <trkpt lat="44.85245" lon="-0.3882">
        <ele>51</ele>
        <time>2012-07-01T08:31:06.000Z</time>
      </trkpt>
      <trkpt lat="44.85234" lon="-0.38827">
        <ele>50</ele>
        <time>2012-07-01T08:31:08.000Z</time>
      </trkpt>
      <trkpt lat="44.85223" lon="-0.38847">
        <ele>50</ele>
        <time>2012-07-01T08:31:11.000Z</time>
      </trkpt>
      <trkpt lat="44.8522" lon="-0.38872">
        <ele>49</ele>
        <time>2012-07-01T08:31:14.000Z</time>
      </trkpt>
      <trkpt lat="44.85218" lon="-0.38901">
        <ele>48</ele>
        <time>2012-07-01T08:31:17.000Z</time>
      </trkpt>
      <trkpt lat="44.85217" lon="-0.38984">
        <ele>47</ele>
        <time>2012-07-01T08:31:27.000Z</time>
      </trkpt>
      <trkpt lat="44.85213" lon="-0.39008">
        <ele>47</ele>
        <time>2012-07-01T08:31:33.000Z</time>
      </trkpt>
      <trkpt lat="44.85211" lon="-0.3901">
        <ele>46</ele>
        <time>2012-07-01T08:31:35.000Z</time>
      </trkpt>
      <trkpt lat="44.85202" lon="-0.39003">
        <ele>46</ele>
        <time>2012-07-01T08:31:38.000Z</time>
      </trkpt>
      <trkpt lat="44.85196" lon="-0.38991">
        <ele>45</ele>
        <time>2012-07-01T08:31:41.000Z</time>
      </trkpt>
      <trkpt lat="44.85194" lon="-0.38987">
        <ele>44</ele>
        <time>2012-07-01T08:31:43.000Z</time>
      </trkpt>
      <trkpt lat="44.85186" lon="-0.38977">
        <ele>43</ele>
        <time>2012-07-01T08:31:48.000Z</time>
      </trkpt>
      <trkpt lat="44.85176" lon="-0.38981">
        <ele>42</ele>
        <time>2012-07-01T08:31:50.000Z</time>
      </trkpt>
      <trkpt lat="44.85159" lon="-0.38982">
        <ele>41</ele>
        <time>2012-07-01T08:31:53.000Z</time>
      </trkpt>
      <trkpt lat="44.8515" lon="-0.38983">
        <ele>40</ele>
        <time>2012-07-01T08:31:55.000Z</time>
      </trkpt>
      <trkpt lat="44.85138" lon="-0.38986">
        <ele>38</ele>
        <time>2012-07-01T08:31:58.000Z</time>
      </trkpt>
      <trkpt lat="44.85131" lon="-0.38987">
        <ele>37</ele>
        <time>2012-07-01T08:32:00.000Z</time>
      </trkpt>
      <trkpt lat="44.85121" lon="-0.3899">
        <ele>36</ele>
        <time>2012-07-01T08:32:03.000Z</time>
      </trkpt>
      <trkpt lat="44.85114" lon="-0.38992">
        <ele>35</ele>
        <time>2012-07-01T08:32:06.000Z</time>
      </trkpt>
      <trkpt lat="44.85108" lon="-0.38994">
        <ele>34</ele>
        <time>2012-07-01T08:32:08.000Z</time>
      </trkpt>
      <trkpt lat="44.85098" lon="-0.38997">
        <ele>34</ele>
        <time>2012-07-01T08:32:11.000Z</time>
      </trkpt>
      <trkpt lat="44.85091" lon="-0.38997">
        <ele>33</ele>
        <time>2012-07-01T08:32:14.000Z</time>
      </trkpt>
      <trkpt lat="44.85088" lon="-0.38995">
        <ele>32</ele>
        <time>2012-07-01T08:32:17.000Z</time>
      </trkpt>
      <trkpt lat="44.85087" lon="-0.38994">
        <ele>32</ele>
        <time>2012-07-01T08:32:19.000Z</time>
      </trkpt>
      <trkpt lat="44.85085" lon="-0.38994">
        <ele>32</ele>
        <time>2012-07-01T08:32:22.000Z</time>
      </trkpt>
      <trkpt lat="44.85085" lon="-0.38994">
        <ele>32</ele>
        <time>2012-07-01T08:32:42.000Z</time>
      </trkpt>
      <trkpt lat="44.8508" lon="-0.38996">
        <ele>31</ele>
        <time>2012-07-01T08:32:45.000Z</time>
      </trkpt>
      <trkpt lat="44.85079" lon="-0.38996">
        <ele>31</ele>
        <time>2012-07-01T08:32:48.000Z</time>
      </trkpt>
      <trkpt lat="44.85075" lon="-0.38992">
        <ele>31</ele>
        <time>2012-07-01T08:33:01.000Z</time>
      </trkpt>
      <trkpt lat="44.85074" lon="-0.38989">
        <ele>31</ele>
        <time>2012-07-01T08:33:04.000Z</time>
      </trkpt>
      <trkpt lat="44.85072" lon="-0.38984">
        <ele>31</ele>
        <time>2012-07-01T08:33:07.000Z</time>
      </trkpt>
      <trkpt lat="44.85069" lon="-0.38964">
        <ele>31</ele>
        <time>2012-07-01T08:33:12.000Z</time>
      </trkpt>
      <trkpt lat="44.85069" lon="-0.38941">
        <ele>31</ele>
        <time>2012-07-01T08:33:18.000Z</time>
      </trkpt>
      <trkpt lat="44.8506" lon="-0.38898">
        <ele>31</ele>
        <time>2012-07-01T08:33:31.000Z</time>
      </trkpt>
      <trkpt lat="44.85054" lon="-0.38897">
        <ele>32</ele>
        <time>2012-07-01T08:33:33.000Z</time>
      </trkpt>
      <trkpt lat="44.85045" lon="-0.38897">
        <ele>32</ele>
        <time>2012-07-01T08:33:36.000Z</time>
      </trkpt>
      <trkpt lat="44.85007" lon="-0.38899">
        <ele>33</ele>
        <time>2012-07-01T08:33:50.000Z</time>
      </trkpt>
      <trkpt lat="44.84983" lon="-0.389">
        <ele>34</ele>
        <time>2012-07-01T08:34:00.000Z</time>
      </trkpt>
      <trkpt lat="44.84963" lon="-0.389">
        <ele>35</ele>
        <time>2012-07-01T08:34:08.000Z</time>
      </trkpt>
      <trkpt lat="44.84948" lon="-0.389">
        <ele>36</ele>
        <time>2012-07-01T08:34:14.000Z</time>
      </trkpt>
      <trkpt lat="44.84943" lon="-0.38901">
        <ele>37</ele>
        <time>2012-07-01T08:34:16.000Z</time>
      </trkpt>
      <trkpt lat="44.84929" lon="-0.38901">
        <ele>38</ele>
        <time>2012-07-01T08:34:21.000Z</time>
      </trkpt>
      <trkpt lat="44.84918" lon="-0.38901">
        <ele>39</ele>
        <time>2012-07-01T08:34:25.000Z</time>
      </trkpt>
      <trkpt lat="44.849" lon="-0.38901">
        <ele>40</ele>
        <time>2012-07-01T08:34:32.000Z</time>
      </trkpt>
      <trkpt lat="44.84857" lon="-0.38902">
        <ele>41</ele>
        <time>2012-07-01T08:34:46.000Z</time>
      </trkpt>
      <trkpt lat="44.84845" lon="-0.38906">
        <ele>41</ele>
        <time>2012-07-01T08:34:51.000Z</time>
      </trkpt>
      <trkpt lat="44.84844" lon="-0.38916">
        <ele>41</ele>
        <time>2012-07-01T08:34:54.000Z</time>
      </trkpt>
      <trkpt lat="44.84844" lon="-0.38928">
        <ele>41</ele>
        <time>2012-07-01T08:34:57.000Z</time>
      </trkpt>
      <trkpt lat="44.84844" lon="-0.38937">
        <ele>42</ele>
        <time>2012-07-01T08:35:00.000Z</time>
      </trkpt>
      <trkpt lat="44.84845" lon="-0.38956">
        <ele>43</ele>
        <time>2012-07-01T08:35:06.000Z</time>
      </trkpt>
      <trkpt lat="44.84846" lon="-0.38963">
        <ele>44</ele>
        <time>2012-07-01T08:35:08.000Z</time>
      </trkpt>
      <trkpt lat="44.84846" lon="-0.38983">
        <ele>45</ele>
        <time>2012-07-01T08:35:14.000Z</time>
      </trkpt>
      <trkpt lat="44.84848" lon="-0.39004">
        <ele>46</ele>
        <time>2012-07-01T08:35:20.000Z</time>
      </trkpt>
      <trkpt lat="44.84848" lon="-0.3902">
        <ele>47</ele>
        <time>2012-07-01T08:35:24.000Z</time>
      </trkpt>
      <trkpt lat="44.84848" lon="-0.3905">
        <ele>47</ele>
        <time>2012-07-01T08:35:32.000Z</time>
      </trkpt>
      <trkpt lat="44.84842" lon="-0.39058">
        <ele>48</ele>
        <time>2012-07-01T08:35:35.000Z</time>
      </trkpt>
      <trkpt lat="44.84834" lon="-0.3906">
        <ele>48</ele>
        <time>2012-07-01T08:35:38.000Z</time>
      </trkpt>
      <trkpt lat="44.84829" lon="-0.3906">
        <ele>49</ele>
        <time>2012-07-01T08:35:40.000Z</time>
      </trkpt>
      <trkpt lat="44.84814" lon="-0.39063">
        <ele>50</ele>
        <time>2012-07-01T08:35:45.000Z</time>
      </trkpt>
      <trkpt lat="44.84797" lon="-0.39067">
        <ele>51</ele>
        <time>2012-07-01T08:35:51.000Z</time>
      </trkpt>
      <trkpt lat="44.84782" lon="-0.39072">
        <ele>52</ele>
        <time>2012-07-01T08:35:56.000Z</time>
      </trkpt>
      <trkpt lat="44.84766" lon="-0.39079">
        <ele>53</ele>
        <time>2012-07-01T08:36:01.000Z</time>
      </trkpt>
      <trkpt lat="44.84751" lon="-0.39083">
        <ele>54</ele>
        <time>2012-07-01T08:36:06.000Z</time>
      </trkpt>
      <trkpt lat="44.84737" lon="-0.39091">
        <ele>55</ele>
        <time>2012-07-01T08:36:11.000Z</time>
      </trkpt>
      <trkpt lat="44.84725" lon="-0.39098">
        <ele>56</ele>
        <time>2012-07-01T08:36:17.000Z</time>
      </trkpt>
      <trkpt lat="44.84719" lon="-0.391">
        <ele>57</ele>
        <time>2012-07-01T08:36:20.000Z</time>
      </trkpt>
      <trkpt lat="44.84715" lon="-0.39105">
        <ele>57</ele>
        <time>2012-07-01T08:36:23.000Z</time>
      </trkpt>
      <trkpt lat="44.84713" lon="-0.3911">
        <ele>57</ele>
        <time>2012-07-01T08:36:25.000Z</time>
      </trkpt>
      <trkpt lat="44.8471" lon="-0.39113">
        <ele>58</ele>
        <time>2012-07-01T08:36:27.000Z</time>
      </trkpt>
      <trkpt lat="44.84708" lon="-0.3912">
        <ele>58</ele>
        <time>2012-07-01T08:36:30.000Z</time>
      </trkpt>
      <trkpt lat="44.84708" lon="-0.39127">
        <ele>58</ele>
        <time>2012-07-01T08:36:32.000Z</time>
      </trkpt>
      <trkpt lat="44.84708" lon="-0.39145">
        <ele>59</ele>
        <time>2012-07-01T08:36:37.000Z</time>
      </trkpt>
      <trkpt lat="44.84711" lon="-0.39214">
        <ele>59</ele>
        <time>2012-07-01T08:36:52.000Z</time>
      </trkpt>
      <trkpt lat="44.84711" lon="-0.39292">
        <ele>59</ele>
        <time>2012-07-01T08:37:07.000Z</time>
      </trkpt>
      <trkpt lat="44.84711" lon="-0.39307">
        <ele>59</ele>
        <time>2012-07-01T08:37:10.000Z</time>
      </trkpt>
      <trkpt lat="44.84711" lon="-0.39317">
        <ele>59</ele>
        <time>2012-07-01T08:37:12.000Z</time>
      </trkpt>
      <trkpt lat="44.84713" lon="-0.39363">
        <ele>60</ele>
        <time>2012-07-01T08:37:21.000Z</time>
      </trkpt>
      <trkpt lat="44.84713" lon="-0.39375">
        <ele>60</ele>
        <time>2012-07-01T08:37:24.000Z</time>
      </trkpt>
      <trkpt lat="44.84713" lon="-0.39381">
        <ele>60</ele>
        <time>2012-07-01T08:37:26.000Z</time>
      </trkpt>
      <trkpt lat="44.84713" lon="-0.39391">
        <ele>61</ele>
        <time>2012-07-01T08:37:29.000Z</time>
      </trkpt>
      <trkpt lat="44.84716" lon="-0.39408">
        <ele>62</ele>
        <time>2012-07-01T08:37:34.000Z</time>
      </trkpt>
      <trkpt lat="44.84716" lon="-0.39422">
        <ele>62</ele>
        <time>2012-07-01T08:37:38.000Z</time>
      </trkpt>
      <trkpt lat="44.84715" lon="-0.39432">
        <ele>63</ele>
        <time>2012-07-01T08:37:41.000Z</time>
      </trkpt>
      <trkpt lat="44.8471" lon="-0.39437">
        <ele>63</ele>
        <time>2012-07-01T08:37:44.000Z</time>
      </trkpt>
      <trkpt lat="44.84704" lon="-0.39437">
        <ele>63</ele>
        <time>2012-07-01T08:37:47.000Z</time>
      </trkpt>
      <trkpt lat="44.84697" lon="-0.39436">
        <ele>63</ele>
        <time>2012-07-01T08:37:50.000Z</time>
      </trkpt>
      <trkpt lat="44.84661" lon="-0.39431">
        <ele>64</ele>
        <time>2012-07-01T08:38:04.000Z</time>
      </trkpt>
      <trkpt lat="44.84641" lon="-0.3943">
        <ele>65</ele>
        <time>2012-07-01T08:38:12.000Z</time>
      </trkpt>
      <trkpt lat="44.84622" lon="-0.39427">
        <ele>66</ele>
        <time>2012-07-01T08:38:18.000Z</time>
      </trkpt>
      <trkpt lat="44.84608" lon="-0.39426">
        <ele>67</ele>
        <time>2012-07-01T08:38:23.000Z</time>
      </trkpt>
      <trkpt lat="44.84594" lon="-0.39424">
        <ele>68</ele>
        <time>2012-07-01T08:38:28.000Z</time>
      </trkpt>
      <trkpt lat="44.84583" lon="-0.39423">
        <ele>69</ele>
        <time>2012-07-01T08:38:32.000Z</time>
      </trkpt>
      <trkpt lat="44.84568" lon="-0.39422">
        <ele>70</ele>
        <time>2012-07-01T08:38:37.000Z</time>
      </trkpt>
      <trkpt lat="44.8456" lon="-0.39422">
        <ele>70</ele>
        <time>2012-07-01T08:38:40.000Z</time>
      </trkpt>
      <trkpt lat="44.84554" lon="-0.39423">
        <ele>71</ele>
        <time>2012-07-01T08:38:42.000Z</time>
      </trkpt>
      <trkpt lat="44.84538" lon="-0.3942">
        <ele>71</ele>
        <time>2012-07-01T08:38:47.000Z</time>
      </trkpt>
      <trkpt lat="44.8453" lon="-0.39416">
        <ele>72</ele>
        <time>2012-07-01T08:38:50.000Z</time>
      </trkpt>
      <trkpt lat="44.84526" lon="-0.39411">
        <ele>72</ele>
        <time>2012-07-01T08:38:52.000Z</time>
      </trkpt>
      <trkpt lat="44.84522" lon="-0.39404">
        <ele>72</ele>
        <time>2012-07-01T08:38:54.000Z</time>
      </trkpt>
      <trkpt lat="44.84519" lon="-0.39397">
        <ele>73</ele>
        <time>2012-07-01T08:38:56.000Z</time>
      </trkpt>
      <trkpt lat="44.84504" lon="-0.39372">
        <ele>73</ele>
        <time>2012-07-01T08:39:02.000Z</time>
      </trkpt>
      <trkpt lat="44.84494" lon="-0.39368">
        <ele>73</ele>
        <time>2012-07-01T08:39:05.000Z</time>
      </trkpt>
      <trkpt lat="44.84483" lon="-0.39367">
        <ele>73</ele>
        <time>2012-07-01T08:39:08.000Z</time>
      </trkpt>
      <trkpt lat="44.84465" lon="-0.39366">
        <ele>74</ele>
        <time>2012-07-01T08:39:13.000Z</time>
      </trkpt>
      <trkpt lat="44.84419" lon="-0.3936">
        <ele>74</ele>
        <time>2012-07-01T08:39:25.000Z</time>
      </trkpt>
      <trkpt lat="44.84405" lon="-0.39361">
        <ele>74</ele>
        <time>2012-07-01T08:39:28.000Z</time>
      </trkpt>
      <trkpt lat="44.84384" lon="-0.39362">
        <ele>73</ele>
        <time>2012-07-01T08:39:32.000Z</time>
      </trkpt>
      <trkpt lat="44.84335" lon="-0.39364">
        <ele>72</ele>
        <time>2012-07-01T08:39:40.000Z</time>
      </trkpt>
      <trkpt lat="44.84303" lon="-0.39362">
        <ele>71</ele>
        <time>2012-07-01T08:39:45.000Z</time>
      </trkpt>
      <trkpt lat="44.8429" lon="-0.39367">
        <ele>70</ele>
        <time>2012-07-01T08:39:49.000Z</time>
      </trkpt>
      <trkpt lat="44.84287" lon="-0.39381">
        <ele>70</ele>
        <time>2012-07-01T08:39:52.000Z</time>
      </trkpt>
      <trkpt lat="44.84276" lon="-0.39387">
        <ele>70</ele>
        <time>2012-07-01T08:39:55.000Z</time>
      </trkpt>
      <trkpt lat="44.84262" lon="-0.39382">
        <ele>69</ele>
        <time>2012-07-01T08:39:58.000Z</time>
      </trkpt>
      <trkpt lat="44.84241" lon="-0.39379">
        <ele>69</ele>
        <time>2012-07-01T08:40:03.000Z</time>
      </trkpt>
      <trkpt lat="44.84238" lon="-0.39374">
        <ele>69</ele>
        <time>2012-07-01T08:40:05.000Z</time>
      </trkpt>
      <trkpt lat="44.84244" lon="-0.39371">
        <ele>69</ele>
        <time>2012-07-01T08:40:07.000Z</time>
      </trkpt>
      <trkpt lat="44.84256" lon="-0.39371">
        <ele>69</ele>
        <time>2012-07-01T08:40:10.000Z</time>
      </trkpt>
      <trkpt lat="44.8426" lon="-0.39377">
        <ele>69</ele>
        <time>2012-07-01T08:40:13.000Z</time>
      </trkpt>
      <trkpt lat="44.84254" lon="-0.39377">
        <ele>69</ele>
        <time>2012-07-01T08:40:15.000Z</time>
      </trkpt>
      <trkpt lat="44.84243" lon="-0.39375">
        <ele>69</ele>
        <time>2012-07-01T08:40:18.000Z</time>
      </trkpt>
      <trkpt lat="44.84238" lon="-0.39371">
        <ele>69</ele>
        <time>2012-07-01T08:40:21.000Z</time>
      </trkpt>
      <trkpt lat="44.84248" lon="-0.3937">
        <ele>69</ele>
        <time>2012-07-01T08:40:24.000Z</time>
      </trkpt>
      <trkpt lat="44.84259" lon="-0.39371">
        <ele>69</ele>
        <time>2012-07-01T08:40:27.000Z</time>
      </trkpt>
      <trkpt lat="44.8426" lon="-0.39377">
        <ele>69</ele>
        <time>2012-07-01T08:40:30.000Z</time>
      </trkpt>
      <trkpt lat="44.84249" lon="-0.3938">
        <ele>69</ele>
        <time>2012-07-01T08:40:33.000Z</time>
      </trkpt>
      <trkpt lat="44.84239" lon="-0.39375">
        <ele>69</ele>
        <time>2012-07-01T08:40:36.000Z</time>
      </trkpt>
      <trkpt lat="44.84245" lon="-0.39368">
        <ele>69</ele>
        <time>2012-07-01T08:40:39.000Z</time>
      </trkpt>
      <trkpt lat="44.84255" lon="-0.39369">
        <ele>69</ele>
        <time>2012-07-01T08:40:42.000Z</time>
      </trkpt>
      <trkpt lat="44.84262" lon="-0.39376">
        <ele>69</ele>
        <time>2012-07-01T08:40:45.000Z</time>
      </trkpt>
      <trkpt lat="44.84262" lon="-0.39383">
        <ele>69</ele>
        <time>2012-07-01T08:40:47.000Z</time>
      </trkpt>
      <trkpt lat="44.84267" lon="-0.39389">
        <ele>69</ele>
        <time>2012-07-01T08:40:50.000Z</time>
      </trkpt>
      <trkpt lat="44.84274" lon="-0.3939">
        <ele>69</ele>
        <time>2012-07-01T08:40:53.000Z</time>
      </trkpt>
      <trkpt lat="44.8428" lon="-0.39395">
        <ele>69</ele>
        <time>2012-07-01T08:40:56.000Z</time>
      </trkpt>
      <trkpt lat="44.84282" lon="-0.39404">
        <ele>69</ele>
        <time>2012-07-01T08:40:59.000Z</time>
      </trkpt>
      <trkpt lat="44.84285" lon="-0.39428">
        <ele>69</ele>
        <time>2012-07-01T08:41:04.000Z</time>
      </trkpt>
      <trkpt lat="44.84286" lon="-0.3945">
        <ele>68</ele>
        <time>2012-07-01T08:41:07.000Z</time>
      </trkpt>
      <trkpt lat="44.84288" lon="-0.39469">
        <ele>67</ele>
        <time>2012-07-01T08:41:09.000Z</time>
      </trkpt>
      <trkpt lat="44.84296" lon="-0.39521">
        <ele>66</ele>
        <time>2012-07-01T08:41:15.000Z</time>
      </trkpt>
      <trkpt lat="44.84298" lon="-0.39544">
        <ele>64</ele>
        <time>2012-07-01T08:41:18.000Z</time>
      </trkpt>
      <trkpt lat="44.843" lon="-0.39573">
        <ele>63</ele>
        <time>2012-07-01T08:41:21.000Z</time>
      </trkpt>
      <trkpt lat="44.84302" lon="-0.39606">
        <ele>62</ele>
        <time>2012-07-01T08:41:24.000Z</time>
      </trkpt>
      <trkpt lat="44.84304" lon="-0.39633">
        <ele>61</ele>
        <time>2012-07-01T08:41:27.000Z</time>
      </trkpt>
      <trkpt lat="44.84305" lon="-0.39648">
        <ele>60</ele>
        <time>2012-07-01T08:41:29.000Z</time>
      </trkpt>
      <trkpt lat="44.84306" lon="-0.39663">
        <ele>59</ele>
        <time>2012-07-01T08:41:32.000Z</time>
      </trkpt>
      <trkpt lat="44.84306" lon="-0.39666">
        <ele>58</ele>
        <time>2012-07-01T08:41:35.000Z</time>
      </trkpt>
      <trkpt lat="44.84306" lon="-0.39666">
        <ele>58</ele>
        <time>2012-07-01T08:41:56.000Z</time>
      </trkpt>
      <trkpt lat="44.84307" lon="-0.39672">
        <ele>58</ele>
        <time>2012-07-01T08:42:46.000Z</time>
      </trkpt>
      <trkpt lat="44.84307" lon="-0.39672">
        <ele>58</ele>
        <time>2012-07-01T08:43:06.000Z</time>
      </trkpt>
      <trkpt lat="44.84307" lon="-0.39676">
        <ele>57</ele>
        <time>2012-07-01T08:43:33.000Z</time>
      </trkpt>
      <trkpt lat="44.84301" lon="-0.39683">
        <ele>57</ele>
        <time>2012-07-01T08:43:36.000Z</time>
      </trkpt>
      <trkpt lat="44.84299" lon="-0.39685">
        <ele>57</ele>
        <time>2012-07-01T08:43:38.000Z</time>
      </trkpt>
      <trkpt lat="44.84294" lon="-0.39688">
        <ele>57</ele>
        <time>2012-07-01T08:43:41.000Z</time>
      </trkpt>
      <trkpt lat="44.84294" lon="-0.39694">
        <ele>57</ele>
        <time>2012-07-01T08:43:44.000Z</time>
      </trkpt>
      <trkpt lat="44.84296" lon="-0.39698">
        <ele>57</ele>
        <time>2012-07-01T08:43:47.000Z</time>
      </trkpt>
      <trkpt lat="44.84297" lon="-0.39702">
        <ele>58</ele>
        <time>2012-07-01T08:43:49.000Z</time>
      </trkpt>
      <trkpt lat="44.843" lon="-0.39706">
        <ele>58</ele>
        <time>2012-07-01T08:43:51.000Z</time>
      </trkpt>
      <trkpt lat="44.84305" lon="-0.39708">
        <ele>58</ele>
        <time>2012-07-01T08:43:54.000Z</time>
      </trkpt>
      <trkpt lat="44.84308" lon="-0.39711">
        <ele>57</ele>
        <time>2012-07-01T08:43:56.000Z</time>
      </trkpt>
      <trkpt lat="44.84311" lon="-0.39718">
        <ele>57</ele>
        <time>2012-07-01T08:43:59.000Z</time>
      </trkpt>
      <trkpt lat="44.84313" lon="-0.39728">
        <ele>57</ele>
        <time>2012-07-01T08:44:02.000Z</time>
      </trkpt>
      <trkpt lat="44.84313" lon="-0.39738">
        <ele>57</ele>
        <time>2012-07-01T08:44:05.000Z</time>
      </trkpt>
      <trkpt lat="44.84316" lon="-0.39757">
        <ele>57</ele>
        <time>2012-07-01T08:44:12.000Z</time>
      </trkpt>
      <trkpt lat="44.84321" lon="-0.39756">
        <ele>58</ele>
        <time>2012-07-01T08:44:15.000Z</time>
      </trkpt>
      <trkpt lat="44.84328" lon="-0.39761">
        <ele>58</ele>
        <time>2012-07-01T08:44:18.000Z</time>
      </trkpt>
      <trkpt lat="44.84336" lon="-0.39771">
        <ele>58</ele>
        <time>2012-07-01T08:44:21.000Z</time>
      </trkpt>
      <trkpt lat="44.8434" lon="-0.39789">
        <ele>58</ele>
        <time>2012-07-01T08:44:27.000Z</time>
      </trkpt>
      <trkpt lat="44.84337" lon="-0.39798">
        <ele>58</ele>
        <time>2012-07-01T08:44:30.000Z</time>
      </trkpt>
      <trkpt lat="44.84336" lon="-0.3981">
        <ele>59</ele>
        <time>2012-07-01T08:44:33.000Z</time>
      </trkpt>
      <trkpt lat="44.84336" lon="-0.39823">
        <ele>59</ele>
        <time>2012-07-01T08:44:36.000Z</time>
      </trkpt>
      <trkpt lat="44.84336" lon="-0.39831">
        <ele>60</ele>
        <time>2012-07-01T08:44:38.000Z</time>
      </trkpt>
      <trkpt lat="44.84336" lon="-0.39858">
        <ele>61</ele>
        <time>2012-07-01T08:44:44.000Z</time>
      </trkpt>
      <trkpt lat="44.84336" lon="-0.39884">
        <ele>62</ele>
        <time>2012-07-01T08:44:50.000Z</time>
      </trkpt>
      <trkpt lat="44.84336" lon="-0.39891">
        <ele>62</ele>
        <time>2012-07-01T08:44:52.000Z</time>
      </trkpt>
      <trkpt lat="44.84335" lon="-0.39901">
        <ele>62</ele>
        <time>2012-07-01T08:44:54.000Z</time>
      </trkpt>
      <trkpt lat="44.84335" lon="-0.39913">
        <ele>62</ele>
        <time>2012-07-01T08:44:58.000Z</time>
      </trkpt>
      <trkpt lat="44.84335" lon="-0.39921">
        <ele>63</ele>
        <time>2012-07-01T08:44:59.000Z</time>
      </trkpt>
      <trkpt lat="44.84334" lon="-0.39958">
        <ele>64</ele>
        <time>2012-07-01T08:45:08.000Z</time>
      </trkpt>
      <trkpt lat="44.84333" lon="-0.39969">
        <ele>65</ele>
        <time>2012-07-01T08:45:11.000Z</time>
      </trkpt>
      <trkpt lat="44.84331" lon="-0.39976">
        <ele>65</ele>
        <time>2012-07-01T08:45:14.000Z</time>
      </trkpt>
      <trkpt lat="44.84325" lon="-0.39982">
        <ele>66</ele>
        <time>2012-07-01T08:45:17.000Z</time>
      </trkpt>
      <trkpt lat="44.8432" lon="-0.39989">
        <ele>67</ele>
        <time>2012-07-01T08:45:20.000Z</time>
      </trkpt>
      <trkpt lat="44.84319" lon="-0.40001">
        <ele>67</ele>
        <time>2012-07-01T08:45:23.000Z</time>
      </trkpt>
      <trkpt lat="44.84319" lon="-0.40014">
        <ele>68</ele>
        <time>2012-07-01T08:45:26.000Z</time>
      </trkpt>
      <trkpt lat="44.84322" lon="-0.40024">
        <ele>68</ele>
        <time>2012-07-01T08:45:29.000Z</time>
      </trkpt>
      <trkpt lat="44.84326" lon="-0.4003">
        <ele>69</ele>
        <time>2012-07-01T08:45:31.000Z</time>
      </trkpt>
      <trkpt lat="44.84333" lon="-0.40043">
        <ele>69</ele>
        <time>2012-07-01T08:46:33.000Z</time>
      </trkpt>
      <trkpt lat="44.84333" lon="-0.40043">
        <ele>69</ele>
        <time>2012-07-01T08:46:54.000Z</time>
      </trkpt>
      <trkpt lat="44.84332" lon="-0.40041">
        <ele>69</ele>
        <time>2012-07-01T08:47:11.000Z</time>
      </trkpt>
      <trkpt lat="44.84332" lon="-0.40041">
        <ele>69</ele>
        <time>2012-07-01T08:47:31.000Z</time>
      </trkpt>
      <trkpt lat="44.84332" lon="-0.40043">
        <ele>70</ele>
        <time>2012-07-01T08:48:20.000Z</time>
      </trkpt>
      <trkpt lat="44.84332" lon="-0.40043">
        <ele>70</ele>
        <time>2012-07-01T08:48:41.000Z</time>
      </trkpt>
      <trkpt lat="44.84332" lon="-0.40045">
        <ele>70</ele>
        <time>2012-07-01T08:49:08.000Z</time>
      </trkpt>
      <trkpt lat="44.84333" lon="-0.4005">
        <ele>70</ele>
        <time>2012-07-01T08:49:13.000Z</time>
      </trkpt>
      <trkpt lat="44.8435" lon="-0.40086">
        <ele>70</ele>
        <time>2012-07-01T08:49:36.000Z</time>
      </trkpt>
      <trkpt lat="44.84356" lon="-0.40086">
        <ele>70</ele>
        <time>2012-07-01T08:49:44.000Z</time>
      </trkpt>
      <trkpt lat="44.84407" lon="-0.40087">
        <ele>69</ele>
        <time>2012-07-01T08:50:13.000Z</time>
      </trkpt>
      <trkpt lat="44.84456" lon="-0.40087">
        <ele>68</ele>
        <time>2012-07-01T08:50:25.000Z</time>
      </trkpt>
      <trkpt lat="44.8447" lon="-0.40085">
        <ele>68</ele>
        <time>2012-07-01T08:50:30.000Z</time>
      </trkpt>
      <trkpt lat="44.84478" lon="-0.40085">
        <ele>69</ele>
        <time>2012-07-01T08:50:37.000Z</time>
      </trkpt>
      <trkpt lat="44.84491" lon="-0.40088">
        <ele>69</ele>
        <time>2012-07-01T08:50:41.000Z</time>
      </trkpt>
      <trkpt lat="44.84501" lon="-0.40086">
        <ele>69</ele>
        <time>2012-07-01T08:50:44.000Z</time>
      </trkpt>
      <trkpt lat="44.84516" lon="-0.40082">
        <ele>69</ele>
        <time>2012-07-01T08:50:47.000Z</time>
      </trkpt>
      <trkpt lat="44.8454" lon="-0.40075">
        <ele>68</ele>
        <time>2012-07-01T08:50:51.000Z</time>
      </trkpt>
      <trkpt lat="44.84573" lon="-0.40065">
        <ele>67</ele>
        <time>2012-07-01T08:50:58.000Z</time>
      </trkpt>
      <trkpt lat="44.84583" lon="-0.40061">
        <ele>67</ele>
        <time>2012-07-01T08:51:02.000Z</time>
      </trkpt>
      <trkpt lat="44.84589" lon="-0.40065">
        <ele>67</ele>
        <time>2012-07-01T08:51:08.000Z</time>
      </trkpt>
      <trkpt lat="44.84594" lon="-0.40078">
        <ele>66</ele>
        <time>2012-07-01T08:51:15.000Z</time>
      </trkpt>
      <trkpt lat="44.84608" lon="-0.40132">
        <ele>65</ele>
        <time>2012-07-01T08:51:28.000Z</time>
      </trkpt>
      <trkpt lat="44.8462" lon="-0.40161">
        <ele>65</ele>
        <time>2012-07-01T08:51:35.000Z</time>
      </trkpt>
      <trkpt lat="44.84624" lon="-0.40174">
        <ele>64</ele>
        <time>2012-07-01T08:51:40.000Z</time>
      </trkpt>
      <trkpt lat="44.84627" lon="-0.40193">
        <ele>64</ele>
        <time>2012-07-01T08:51:47.000Z</time>
      </trkpt>
      <trkpt lat="44.84631" lon="-0.40236">
        <ele>63</ele>
        <time>2012-07-01T08:51:54.000Z</time>
      </trkpt>
      <trkpt lat="44.8463" lon="-0.40275">
        <ele>63</ele>
        <time>2012-07-01T08:52:01.000Z</time>
      </trkpt>
      <trkpt lat="44.84625" lon="-0.40299">
        <ele>63</ele>
        <time>2012-07-01T08:52:05.000Z</time>
      </trkpt>
      <trkpt lat="44.8461" lon="-0.40366">
        <ele>63</ele>
        <time>2012-07-01T08:52:21.000Z</time>
      </trkpt>
      <trkpt lat="44.8461" lon="-0.40382">
        <ele>64</ele>
        <time>2012-07-01T08:52:25.000Z</time>
      </trkpt>
      <trkpt lat="44.84601" lon="-0.40465">
        <ele>64</ele>
        <time>2012-07-01T08:52:27.000Z</time>
      </trkpt>
      <trkpt lat="44.84596" lon="-0.40487">
        <ele>64</ele>
        <time>2012-07-01T08:52:28.000Z</time>
      </trkpt>
      <trkpt lat="44.84586" lon="-0.40497">
        <ele>63</ele>
        <time>2012-07-01T08:52:28.000Z</time>
      </trkpt>
      <trkpt lat="44.84575" lon="-0.40498">
        <ele>63</ele>
        <time>2012-07-01T08:52:28.000Z</time>
      </trkpt>
      <trkpt lat="44.84559" lon="-0.40498">
        <ele>63</ele>
        <time>2012-07-01T08:52:28.000Z</time>
      </trkpt>
      <trkpt lat="44.8455" lon="-0.40496">
        <ele>63</ele>
        <time>2012-07-01T08:52:29.000Z</time>
      </trkpt>
      <trkpt lat="44.84541" lon="-0.40496">
        <ele>63</ele>
        <time>2012-07-01T08:52:29.000Z</time>
      </trkpt>
      <trkpt lat="44.84533" lon="-0.40509">
        <ele>62</ele>
        <time>2012-07-01T08:52:29.000Z</time>
      </trkpt>
      <trkpt lat="44.84528" lon="-0.40534">
        <ele>62</ele>
        <time>2012-07-01T08:52:30.000Z</time>
      </trkpt>
      <trkpt lat="44.84519" lon="-0.40559">
        <ele>62</ele>
        <time>2012-07-01T08:52:30.000Z</time>
      </trkpt>
      <trkpt lat="44.84509" lon="-0.40577">
        <ele>62</ele>
        <time>2012-07-01T08:52:31.000Z</time>
      </trkpt>
      <trkpt lat="44.84499" lon="-0.40598">
        <ele>63</ele>
        <time>2012-07-01T08:52:32.000Z</time>
      </trkpt>
      <trkpt lat="44.84486" lon="-0.4064">
        <ele>63</ele>
        <time>2012-07-01T08:52:33.000Z</time>
      </trkpt>
      <trkpt lat="44.84486" lon="-0.40649">
        <ele>64</ele>
        <time>2012-07-01T08:52:34.000Z</time>
      </trkpt>
      <trkpt lat="44.84489" lon="-0.40711">
        <ele>65</ele>
        <time>2012-07-01T08:52:35.000Z</time>
      </trkpt>
      <trkpt lat="44.84492" lon="-0.40734">
        <ele>66</ele>
        <time>2012-07-01T08:52:36.000Z</time>
      </trkpt>
      <trkpt lat="44.84494" lon="-0.4076">
        <ele>67</ele>
        <time>2012-07-01T08:52:37.000Z</time>
      </trkpt>
      <trkpt lat="44.84493" lon="-0.40781">
        <ele>67</ele>
        <time>2012-07-01T08:52:37.000Z</time>
      </trkpt>
      <trkpt lat="44.84493" lon="-0.40789">
        <ele>68</ele>
        <time>2012-07-01T08:52:37.000Z</time>
      </trkpt>
      <trkpt lat="44.84499" lon="-0.40798">
        <ele>68</ele>
        <time>2012-07-01T08:52:38.000Z</time>
      </trkpt>
      <trkpt lat="44.84515" lon="-0.408">
        <ele>68</ele>
        <time>2012-07-01T08:52:38.000Z</time>
      </trkpt>
      <trkpt lat="44.8453" lon="-0.40799">
        <ele>68</ele>
        <time>2012-07-01T08:52:39.000Z</time>
      </trkpt>
      <trkpt lat="44.84548" lon="-0.40795">
        <ele>68</ele>
        <time>2012-07-01T08:52:39.000Z</time>
      </trkpt>
      <trkpt lat="44.84587" lon="-0.40789">
        <ele>67</ele>
        <time>2012-07-01T08:52:42.000Z</time>
      </trkpt>
      <trkpt lat="44.84623" lon="-0.40784">
        <ele>66</ele>
        <time>2012-07-01T08:52:47.000Z</time>
      </trkpt>
      <trkpt lat="44.8466" lon="-0.40778">
        <ele>65</ele>
        <time>2012-07-01T08:52:52.000Z</time>
      </trkpt>
      <trkpt lat="44.84674" lon="-0.40764">
        <ele>64</ele>
        <time>2012-07-01T08:52:55.000Z</time>
      </trkpt>
      <trkpt lat="44.84699" lon="-0.4074">
        <ele>63</ele>
        <time>2012-07-01T08:53:00.000Z</time>
      </trkpt>
      <trkpt lat="44.84721" lon="-0.40731">
        <ele>63</ele>
        <time>2012-07-01T08:53:06.000Z</time>
      </trkpt>
      <trkpt lat="44.84724" lon="-0.4074">
        <ele>63</ele>
        <time>2012-07-01T08:53:08.000Z</time>
      </trkpt>
      <trkpt lat="44.84729" lon="-0.40754">
        <ele>64</ele>
        <time>2012-07-01T08:53:11.000Z</time>
      </trkpt>
      <trkpt lat="44.84741" lon="-0.40784">
        <ele>65</ele>
        <time>2012-07-01T08:53:18.000Z</time>
      </trkpt>
      <trkpt lat="44.84748" lon="-0.40804">
        <ele>66</ele>
        <time>2012-07-01T08:53:23.000Z</time>
      </trkpt>
      <trkpt lat="44.84762" lon="-0.40838">
        <ele>67</ele>
        <time>2012-07-01T08:53:31.000Z</time>
      </trkpt>
      <trkpt lat="44.84772" lon="-0.40868">
        <ele>68</ele>
        <time>2012-07-01T08:53:38.000Z</time>
      </trkpt>
      <trkpt lat="44.84796" lon="-0.40936">
        <ele>69</ele>
        <time>2012-07-01T08:53:56.000Z</time>
      </trkpt>
      <trkpt lat="44.84808" lon="-0.40967">
        <ele>70</ele>
        <time>2012-07-01T08:54:05.000Z</time>
      </trkpt>
      <trkpt lat="44.84818" lon="-0.40993">
        <ele>71</ele>
        <time>2012-07-01T08:54:12.000Z</time>
      </trkpt>
      <trkpt lat="44.84833" lon="-0.41023">
        <ele>71</ele>
        <time>2012-07-01T08:54:20.000Z</time>
      </trkpt>
      <trkpt lat="44.84841" lon="-0.41019">
        <ele>71</ele>
        <time>2012-07-01T08:54:22.000Z</time>
      </trkpt>
      <trkpt lat="44.84853" lon="-0.41011">
        <ele>71</ele>
        <time>2012-07-01T08:54:25.000Z</time>
      </trkpt>
      <trkpt lat="44.84876" lon="-0.40994">
        <ele>70</ele>
        <time>2012-07-01T08:54:29.000Z</time>
      </trkpt>
      <trkpt lat="44.84896" lon="-0.40983">
        <ele>70</ele>
        <time>2012-07-01T08:54:32.000Z</time>
      </trkpt>
      <trkpt lat="44.84911" lon="-0.40977">
        <ele>69</ele>
        <time>2012-07-01T08:54:34.000Z</time>
      </trkpt>
      <trkpt lat="44.84925" lon="-0.4097">
        <ele>68</ele>
        <time>2012-07-01T08:54:36.000Z</time>
      </trkpt>
      <trkpt lat="44.84938" lon="-0.40964">
        <ele>67</ele>
        <time>2012-07-01T08:54:38.000Z</time>
      </trkpt>
      <trkpt lat="44.84955" lon="-0.40957">
        <ele>66</ele>
        <time>2012-07-01T08:54:40.000Z</time>
      </trkpt>
      <trkpt lat="44.8499" lon="-0.40939">
        <ele>65</ele>
        <time>2012-07-01T08:54:45.000Z</time>
      </trkpt>
      <trkpt lat="44.85003" lon="-0.40933">
        <ele>64</ele>
        <time>2012-07-01T08:54:47.000Z</time>
      </trkpt>
      <trkpt lat="44.85024" lon="-0.40922">
        <ele>63</ele>
        <time>2012-07-01T08:54:50.000Z</time>
      </trkpt>
      <trkpt lat="44.85064" lon="-0.40902">
        <ele>62</ele>
        <time>2012-07-01T08:54:56.000Z</time>
      </trkpt>
      <trkpt lat="44.85098" lon="-0.40884">
        <ele>61</ele>
        <time>2012-07-01T08:55:01.000Z</time>
      </trkpt>
      <trkpt lat="44.8514" lon="-0.40862">
        <ele>61</ele>
        <time>2012-07-01T08:55:08.000Z</time>
      </trkpt>
      <trkpt lat="44.85175" lon="-0.40843">
        <ele>60</ele>
        <time>2012-07-01T08:55:14.000Z</time>
      </trkpt>
      <trkpt lat="44.85196" lon="-0.40846">
        <ele>60</ele>
        <time>2012-07-01T08:55:20.000Z</time>
      </trkpt>
      <trkpt lat="44.85198" lon="-0.40859">
        <ele>60</ele>
        <time>2012-07-01T08:55:23.000Z</time>
      </trkpt>
      <trkpt lat="44.85199" lon="-0.40871">
        <ele>61</ele>
        <time>2012-07-01T08:55:26.000Z</time>
      </trkpt>
      <trkpt lat="44.85198" lon="-0.40884">
        <ele>61</ele>
        <time>2012-07-01T08:55:29.000Z</time>
      </trkpt>
      <trkpt lat="44.85197" lon="-0.40896">
        <ele>62</ele>
        <time>2012-07-01T08:55:32.000Z</time>
      </trkpt>
      <trkpt lat="44.85192" lon="-0.40918">
        <ele>63</ele>
        <time>2012-07-01T08:55:37.000Z</time>
      </trkpt>
      <trkpt lat="44.85186" lon="-0.40944">
        <ele>64</ele>
        <time>2012-07-01T08:55:42.000Z</time>
      </trkpt>
      <trkpt lat="44.8518" lon="-0.40968">
        <ele>65</ele>
        <time>2012-07-01T08:55:47.000Z</time>
      </trkpt>
      <trkpt lat="44.85176" lon="-0.40994">
        <ele>66</ele>
        <time>2012-07-01T08:55:52.000Z</time>
      </trkpt>
      <trkpt lat="44.8517" lon="-0.41022">
        <ele>67</ele>
        <time>2012-07-01T08:55:57.000Z</time>
      </trkpt>
      <trkpt lat="44.85163" lon="-0.41049">
        <ele>68</ele>
        <time>2012-07-01T08:56:02.000Z</time>
      </trkpt>
      <trkpt lat="44.85152" lon="-0.41102">
        <ele>69</ele>
        <time>2012-07-01T08:56:12.000Z</time>
      </trkpt>
      <trkpt lat="44.85152" lon="-0.41114">
        <ele>69</ele>
        <time>2012-07-01T08:56:15.000Z</time>
      </trkpt>
      <trkpt lat="44.85151" lon="-0.41117">
        <ele>69</ele>
        <time>2012-07-01T08:56:18.000Z</time>
      </trkpt>
      <trkpt lat="44.85152" lon="-0.41112">
        <ele>69</ele>
        <time>2012-07-01T08:56:21.000Z</time>
      </trkpt>
      <trkpt lat="44.85154" lon="-0.41106">
        <ele>69</ele>
        <time>2012-07-01T08:56:23.000Z</time>
      </trkpt>
      <trkpt lat="44.85156" lon="-0.41078">
        <ele>69</ele>
        <time>2012-07-01T08:56:29.000Z</time>
      </trkpt>
      <trkpt lat="44.8515" lon="-0.41072">
        <ele>69</ele>
        <time>2012-07-01T08:56:32.000Z</time>
      </trkpt>
      <trkpt lat="44.85142" lon="-0.41071">
        <ele>69</ele>
        <time>2012-07-01T08:56:35.000Z</time>
      </trkpt>
      <trkpt lat="44.85139" lon="-0.41072">
        <ele>69</ele>
        <time>2012-07-01T08:56:38.000Z</time>
      </trkpt>
      <trkpt lat="44.85133" lon="-0.41072">
        <ele>69</ele>
        <time>2012-07-01T08:56:49.000Z</time>
      </trkpt>
      <trkpt lat="44.85127" lon="-0.4107">
        <ele>69</ele>
        <time>2012-07-01T08:56:53.000Z</time>
      </trkpt>
      <trkpt lat="44.85128" lon="-0.41073">
        <ele>69</ele>
        <time>2012-07-01T08:57:08.000Z</time>
      </trkpt>
      <trkpt lat="44.85131" lon="-0.41075">
        <ele>69</ele>
        <time>2012-07-01T08:57:12.000Z</time>
      </trkpt>
      <trkpt lat="44.85133" lon="-0.41076">
        <ele>69</ele>
        <time>2012-07-01T08:57:14.000Z</time>
      </trkpt>
      <trkpt lat="44.85136" lon="-0.41075">
        <ele>69</ele>
        <time>2012-07-01T08:57:24.000Z</time>
      </trkpt>
      <trkpt lat="44.85138" lon="-0.41075">
        <ele>69</ele>
        <time>2012-07-01T08:57:27.000Z</time>
      </trkpt>
      <trkpt lat="44.85154" lon="-0.41084">
        <ele>69</ele>
        <time>2012-07-01T08:57:40.000Z</time>
      </trkpt>
      <trkpt lat="44.85153" lon="-0.4109">
        <ele>69</ele>
        <time>2012-07-01T08:57:42.000Z</time>
      </trkpt>
      <trkpt lat="44.85153" lon="-0.41096">
        <ele>69</ele>
        <time>2012-07-01T08:57:44.000Z</time>
      </trkpt>
      <trkpt lat="44.85153" lon="-0.41108">
        <ele>69</ele>
        <time>2012-07-01T08:57:47.000Z</time>
      </trkpt>
      <trkpt lat="44.85153" lon="-0.41115">
        <ele>69</ele>
        <time>2012-07-01T08:57:49.000Z</time>
      </trkpt>
      <trkpt lat="44.85152" lon="-0.41127">
        <ele>69</ele>
        <time>2012-07-01T08:57:52.000Z</time>
      </trkpt>
      <trkpt lat="44.85152" lon="-0.41135">
        <ele>69</ele>
        <time>2012-07-01T08:57:54.000Z</time>
      </trkpt>
      <trkpt lat="44.85156" lon="-0.41212">
        <ele>68</ele>
        <time>2012-07-01T08:58:10.000Z</time>
      </trkpt>
      <trkpt lat="44.85159" lon="-0.41249">
        <ele>67</ele>
        <time>2012-07-01T08:58:17.000Z</time>
      </trkpt>
      <trkpt lat="44.85162" lon="-0.41321">
        <ele>67</ele>
        <time>2012-07-01T08:58:30.000Z</time>
      </trkpt>
      <trkpt lat="44.85159" lon="-0.41341">
        <ele>67</ele>
        <time>2012-07-01T08:58:33.000Z</time>
      </trkpt>
      <trkpt lat="44.85156" lon="-0.41352">
        <ele>68</ele>
        <time>2012-07-01T08:58:36.000Z</time>
      </trkpt>
      <trkpt lat="44.85151" lon="-0.41411">
        <ele>67</ele>
        <time>2012-07-01T08:58:47.000Z</time>
      </trkpt>
      <trkpt lat="44.85151" lon="-0.41427">
        <ele>67</ele>
        <time>2012-07-01T08:58:50.000Z</time>
      </trkpt>
      <trkpt lat="44.85156" lon="-0.41486">
        <ele>68</ele>
        <time>2012-07-01T08:59:01.000Z</time>
      </trkpt>
      <trkpt lat="44.8516" lon="-0.41507">
        <ele>69</ele>
        <time>2012-07-01T08:59:05.000Z</time>
      </trkpt>
      <trkpt lat="44.85176" lon="-0.41583">
        <ele>69</ele>
        <time>2012-07-01T08:59:20.000Z</time>
      </trkpt>
      <trkpt lat="44.85185" lon="-0.41646">
        <ele>69</ele>
        <time>2012-07-01T08:59:30.000Z</time>
      </trkpt>
      <trkpt lat="44.85195" lon="-0.41724">
        <ele>68</ele>
        <time>2012-07-01T08:59:40.000Z</time>
      </trkpt>
      <trkpt lat="44.85195" lon="-0.41744">
        <ele>68</ele>
        <time>2012-07-01T08:59:43.000Z</time>
      </trkpt>
      <trkpt lat="44.85195" lon="-0.41759">
        <ele>67</ele>
        <time>2012-07-01T08:59:45.000Z</time>
      </trkpt>
      <trkpt lat="44.85198" lon="-0.41781">
        <ele>67</ele>
        <time>2012-07-01T08:59:48.000Z</time>
      </trkpt>
      <trkpt lat="44.85201" lon="-0.41799">
        <ele>66</ele>
        <time>2012-07-01T08:59:50.000Z</time>
      </trkpt>
      <trkpt lat="44.85203" lon="-0.41815">
        <ele>65</ele>
        <time>2012-07-01T08:59:52.000Z</time>
      </trkpt>
      <trkpt lat="44.8521" lon="-0.41855">
        <ele>64</ele>
        <time>2012-07-01T08:59:58.000Z</time>
      </trkpt>
      <trkpt lat="44.85224" lon="-0.41931">
        <ele>64</ele>
        <time>2012-07-01T09:00:10.000Z</time>
      </trkpt>
      <trkpt lat="44.85231" lon="-0.41979">
        <ele>65</ele>
        <time>2012-07-01T09:00:18.000Z</time>
      </trkpt>
      <trkpt lat="44.85239" lon="-0.42048">
        <ele>65</ele>
        <time>2012-07-01T09:00:30.000Z</time>
      </trkpt>
      <trkpt lat="44.8524" lon="-0.42052">
        <ele>65</ele>
        <time>2012-07-01T09:00:32.000Z</time>
      </trkpt>
      <trkpt lat="44.85238" lon="-0.42061">
        <ele>65</ele>
        <time>2012-07-01T09:00:35.000Z</time>
      </trkpt>
      <trkpt lat="44.85234" lon="-0.42062">
        <ele>65</ele>
        <time>2012-07-01T09:00:37.000Z</time>
      </trkpt>
      <trkpt lat="44.85227" lon="-0.42068">
        <ele>65</ele>
        <time>2012-07-01T09:00:40.000Z</time>
      </trkpt>
      <trkpt lat="44.85223" lon="-0.42076">
        <ele>65</ele>
        <time>2012-07-01T09:00:43.000Z</time>
      </trkpt>
      <trkpt lat="44.85222" lon="-0.42086">
        <ele>65</ele>
        <time>2012-07-01T09:00:46.000Z</time>
      </trkpt>
      <trkpt lat="44.85221" lon="-0.42108">
        <ele>64</ele>
        <time>2012-07-01T09:00:50.000Z</time>
      </trkpt>
      <trkpt lat="44.85221" lon="-0.42121">
        <ele>64</ele>
        <time>2012-07-01T09:00:52.000Z</time>
      </trkpt>
      <trkpt lat="44.85224" lon="-0.42136">
        <ele>64</ele>
        <time>2012-07-01T09:00:54.000Z</time>
      </trkpt>
      <trkpt lat="44.85224" lon="-0.42183">
        <ele>64</ele>
        <time>2012-07-01T09:01:05.000Z</time>
      </trkpt>
      <trkpt lat="44.85222" lon="-0.42192">
        <ele>64</ele>
        <time>2012-07-01T09:01:08.000Z</time>
      </trkpt>
      <trkpt lat="44.85221" lon="-0.42198">
        <ele>64</ele>
        <time>2012-07-01T09:01:11.000Z</time>
      </trkpt>
      <trkpt lat="44.85221" lon="-0.42199">
        <ele>64</ele>
        <time>2012-07-01T09:01:14.000Z</time>
      </trkpt>
      <trkpt lat="44.85219" lon="-0.42203">
        <ele>64</ele>
        <time>2012-07-01T09:01:17.000Z</time>
      </trkpt>
      <trkpt lat="44.85213" lon="-0.42213">
        <ele>63</ele>
        <time>2012-07-01T09:01:20.000Z</time>
      </trkpt>
      <trkpt lat="44.8521" lon="-0.4222">
        <ele>63</ele>
        <time>2012-07-01T09:01:23.000Z</time>
      </trkpt>
      <trkpt lat="44.8521" lon="-0.42224">
        <ele>63</ele>
        <time>2012-07-01T09:01:25.000Z</time>
      </trkpt>
      <trkpt lat="44.85207" lon="-0.42259">
        <ele>63</ele>
        <time>2012-07-01T09:01:48.000Z</time>
      </trkpt>
      <trkpt lat="44.85206" lon="-0.42261">
        <ele>62</ele>
        <time>2012-07-01T09:01:50.000Z</time>
      </trkpt>
      <trkpt lat="44.85199" lon="-0.42267">
        <ele>62</ele>
        <time>2012-07-01T09:01:55.000Z</time>
      </trkpt>
      <trkpt lat="44.85197" lon="-0.42271">
        <ele>62</ele>
        <time>2012-07-01T09:01:58.000Z</time>
      </trkpt>
      <trkpt lat="44.85196" lon="-0.42281">
        <ele>62</ele>
        <time>2012-07-01T09:02:01.000Z</time>
      </trkpt>
      <trkpt lat="44.85191" lon="-0.4229">
        <ele>61</ele>
        <time>2012-07-01T09:02:04.000Z</time>
      </trkpt>
      <trkpt lat="44.8518" lon="-0.42309">
        <ele>60</ele>
        <time>2012-07-01T09:02:12.000Z</time>
      </trkpt>
      <trkpt lat="44.85171" lon="-0.42319">
        <ele>60</ele>
        <time>2012-07-01T09:02:15.000Z</time>
      </trkpt>
      <trkpt lat="44.85172" lon="-0.42325">
        <ele>59</ele>
        <time>2012-07-01T09:02:17.000Z</time>
      </trkpt>
      <trkpt lat="44.85176" lon="-0.42337">
        <ele>59</ele>
        <time>2012-07-01T09:02:20.000Z</time>
      </trkpt>
      <trkpt lat="44.85178" lon="-0.42347">
        <ele>59</ele>
        <time>2012-07-01T09:02:23.000Z</time>
      </trkpt>
      <trkpt lat="44.85173" lon="-0.42353">
        <ele>58</ele>
        <time>2012-07-01T09:02:26.000Z</time>
      </trkpt>
      <trkpt lat="44.85172" lon="-0.42358">
        <ele>58</ele>
        <time>2012-07-01T09:02:28.000Z</time>
      </trkpt>
      <trkpt lat="44.85167" lon="-0.42365">
        <ele>57</ele>
        <time>2012-07-01T09:02:30.000Z</time>
      </trkpt>
      <trkpt lat="44.85163" lon="-0.42369">
        <ele>56</ele>
        <time>2012-07-01T09:02:32.000Z</time>
      </trkpt>
      <trkpt lat="44.85159" lon="-0.42367">
        <ele>56</ele>
        <time>2012-07-01T09:02:34.000Z</time>
      </trkpt>
      <trkpt lat="44.85155" lon="-0.42369">
        <ele>55</ele>
        <time>2012-07-01T09:02:37.000Z</time>
      </trkpt>
      <trkpt lat="44.8515" lon="-0.4238">
        <ele>55</ele>
        <time>2012-07-01T09:02:40.000Z</time>
      </trkpt>
      <trkpt lat="44.85145" lon="-0.42382">
        <ele>54</ele>
        <time>2012-07-01T09:02:42.000Z</time>
      </trkpt>
      <trkpt lat="44.85141" lon="-0.42385">
        <ele>54</ele>
        <time>2012-07-01T09:02:45.000Z</time>
      </trkpt>
      <trkpt lat="44.85144" lon="-0.42391">
        <ele>53</ele>
        <time>2012-07-01T09:02:47.000Z</time>
      </trkpt>
      <trkpt lat="44.85154" lon="-0.42411">
        <ele>53</ele>
        <time>2012-07-01T09:02:50.000Z</time>
      </trkpt>
      <trkpt lat="44.85159" lon="-0.4242">
        <ele>52</ele>
        <time>2012-07-01T09:02:52.000Z</time>
      </trkpt>
      <trkpt lat="44.8517" lon="-0.42423">
        <ele>52</ele>
        <time>2012-07-01T09:02:55.000Z</time>
      </trkpt>
      <trkpt lat="44.85174" lon="-0.42423">
        <ele>52</ele>
        <time>2012-07-01T09:02:57.000Z</time>
      </trkpt>
      <trkpt lat="44.85176" lon="-0.42422">
        <ele>52</ele>
        <time>2012-07-01T09:03:00.000Z</time>
      </trkpt>
      <trkpt lat="44.85186" lon="-0.42417">
        <ele>53</ele>
        <time>2012-07-01T09:03:25.000Z</time>
      </trkpt>
      <trkpt lat="44.85187" lon="-0.42416">
        <ele>53</ele>
        <time>2012-07-01T09:03:31.000Z</time>
      </trkpt>
      <trkpt lat="44.8519" lon="-0.42416">
        <ele>53</ele>
        <time>2012-07-01T09:03:34.000Z</time>
      </trkpt>
      <trkpt lat="44.85192" lon="-0.42416">
        <ele>53</ele>
        <time>2012-07-01T09:03:37.000Z</time>
      </trkpt>
      <trkpt lat="44.85191" lon="-0.42415">
        <ele>53</ele>
        <time>2012-07-01T09:03:44.000Z</time>
      </trkpt>
      <trkpt lat="44.85188" lon="-0.4238">
        <ele>54</ele>
        <time>2012-07-01T09:07:18.000Z</time>
      </trkpt>
      <trkpt lat="44.85195" lon="-0.42402">
        <ele>54</ele>
        <time>2012-07-01T09:07:22.000Z</time>
      </trkpt>
      <trkpt lat="44.85193" lon="-0.42416">
        <ele>54</ele>
        <time>2012-07-01T09:07:26.000Z</time>
      </trkpt>
      <trkpt lat="44.85191" lon="-0.42415">
        <ele>54</ele>
        <time>2012-07-01T09:07:46.000Z</time>
      </trkpt>
      <trkpt lat="44.85192" lon="-0.42416">
        <ele>54</ele>
        <time>2012-07-01T09:07:49.000Z</time>
      </trkpt>
      <trkpt lat="44.85195" lon="-0.42416">
        <ele>54</ele>
        <time>2012-07-01T09:07:52.000Z</time>
      </trkpt>
      <trkpt lat="44.85201" lon="-0.42415">
        <ele>53</ele>
        <time>2012-07-01T09:07:55.000Z</time>
      </trkpt>
      <trkpt lat="44.85206" lon="-0.42416">
        <ele>54</ele>
        <time>2012-07-01T09:07:57.000Z</time>
      </trkpt>
      <trkpt lat="44.85212" lon="-0.42417">
        <ele>54</ele>
        <time>2012-07-01T09:08:00.000Z</time>
      </trkpt>
      <trkpt lat="44.85236" lon="-0.42419">
        <ele>55</ele>
        <time>2012-07-01T09:08:07.000Z</time>
      </trkpt>
      <trkpt lat="44.85246" lon="-0.42424">
        <ele>55</ele>
        <time>2012-07-01T09:08:10.000Z</time>
      </trkpt>
      <trkpt lat="44.85247" lon="-0.42433">
        <ele>55</ele>
        <time>2012-07-01T09:08:12.000Z</time>
      </trkpt>
      <trkpt lat="44.85246" lon="-0.42438">
        <ele>55</ele>
        <time>2012-07-01T09:08:15.000Z</time>
      </trkpt>
      <trkpt lat="44.85246" lon="-0.42438">
        <ele>55</ele>
        <time>2012-07-01T09:08:35.000Z</time>
      </trkpt>
      <trkpt lat="44.85248" lon="-0.42437">
        <ele>55</ele>
        <time>2012-07-01T09:08:50.000Z</time>
      </trkpt>
      <trkpt lat="44.85239" lon="-0.42437">
        <ele>55</ele>
        <time>2012-07-01T09:08:53.000Z</time>
      </trkpt>
      <trkpt lat="44.85238" lon="-0.42439">
        <ele>55</ele>
        <time>2012-07-01T09:08:59.000Z</time>
      </trkpt>
      <trkpt lat="44.85239" lon="-0.42441">
        <ele>55</ele>
        <time>2012-07-01T09:09:02.000Z</time>
      </trkpt>
      <trkpt lat="44.85239" lon="-0.42441">
        <ele>55</ele>
        <time>2012-07-01T09:09:22.000Z</time>
      </trkpt>
      <trkpt lat="44.8524" lon="-0.4244">
        <ele>55</ele>
        <time>2012-07-01T09:09:23.000Z</time>
      </trkpt>
      <trkpt lat="44.8524" lon="-0.4244">
        <ele>55</ele>
        <time>2012-07-01T09:09:43.000Z</time>
      </trkpt>
      <trkpt lat="44.85241" lon="-0.42441">
        <ele>55</ele>
        <time>2012-07-01T09:09:44.000Z</time>
      </trkpt>
      <trkpt lat="44.85242" lon="-0.42439">
        <ele>55</ele>
        <time>2012-07-01T09:09:47.000Z</time>
      </trkpt>
      <trkpt lat="44.85238" lon="-0.42438">
        <ele>55</ele>
        <time>2012-07-01T09:09:50.000Z</time>
      </trkpt>
      <trkpt lat="44.85232" lon="-0.42443">
        <ele>55</ele>
        <time>2012-07-01T09:09:52.000Z</time>
      </trkpt>
      <trkpt lat="44.85223" lon="-0.42446">
        <ele>54</ele>
        <time>2012-07-01T09:09:54.000Z</time>
      </trkpt>
      <trkpt lat="44.85217" lon="-0.42451">
        <ele>54</ele>
        <time>2012-07-01T09:09:57.000Z</time>
      </trkpt>
      <trkpt lat="44.85209" lon="-0.42461">
        <ele>54</ele>
        <time>2012-07-01T09:10:00.000Z</time>
      </trkpt>
      <trkpt lat="44.85198" lon="-0.42471">
        <ele>53</ele>
        <time>2012-07-01T09:10:03.000Z</time>
      </trkpt>
      <trkpt lat="44.85184" lon="-0.4248">
        <ele>52</ele>
        <time>2012-07-01T09:10:06.000Z</time>
      </trkpt>
      <trkpt lat="44.85175" lon="-0.42485">
        <ele>52</ele>
        <time>2012-07-01T09:10:08.000Z</time>
      </trkpt>
      <trkpt lat="44.85164" lon="-0.4249">
        <ele>51</ele>
        <time>2012-07-01T09:10:11.000Z</time>
      </trkpt>
      <trkpt lat="44.85162" lon="-0.42488">
        <ele>50</ele>
        <time>2012-07-01T09:10:13.000Z</time>
      </trkpt>
      <trkpt lat="44.85162" lon="-0.42475">
        <ele>50</ele>
        <time>2012-07-01T09:10:16.000Z</time>
      </trkpt>
      <trkpt lat="44.8516" lon="-0.42461">
        <ele>50</ele>
        <time>2012-07-01T09:10:18.000Z</time>
      </trkpt>
      <trkpt lat="44.85151" lon="-0.42444">
        <ele>50</ele>
        <time>2012-07-01T09:10:23.000Z</time>
      </trkpt>
      <trkpt lat="44.85144" lon="-0.42441">
        <ele>50</ele>
        <time>2012-07-01T09:10:25.000Z</time>
      </trkpt>
      <trkpt lat="44.85134" lon="-0.42442">
        <ele>50</ele>
        <time>2012-07-01T09:10:28.000Z</time>
      </trkpt>
      <trkpt lat="44.85128" lon="-0.42448">
        <ele>50</ele>
        <time>2012-07-01T09:10:30.000Z</time>
      </trkpt>
      <trkpt lat="44.85117" lon="-0.4245">
        <ele>50</ele>
        <time>2012-07-01T09:10:33.000Z</time>
      </trkpt>
      <trkpt lat="44.85106" lon="-0.4245">
        <ele>49</ele>
        <time>2012-07-01T09:10:35.000Z</time>
      </trkpt>
      <trkpt lat="44.85089" lon="-0.42444">
        <ele>48</ele>
        <time>2012-07-01T09:10:41.000Z</time>
      </trkpt>
      <trkpt lat="44.85088" lon="-0.42434">
        <ele>48</ele>
        <time>2012-07-01T09:10:44.000Z</time>
      </trkpt>
      <trkpt lat="44.85088" lon="-0.42424">
        <ele>48</ele>
        <time>2012-07-01T09:10:46.000Z</time>
      </trkpt>
      <trkpt lat="44.85093" lon="-0.42378">
        <ele>49</ele>
        <time>2012-07-01T09:10:55.000Z</time>
      </trkpt>
      <trkpt lat="44.85096" lon="-0.42372">
        <ele>49</ele>
        <time>2012-07-01T09:10:57.000Z</time>
      </trkpt>
      <trkpt lat="44.85103" lon="-0.42366">
        <ele>50</ele>
        <time>2012-07-01T09:11:00.000Z</time>
      </trkpt>
      <trkpt lat="44.85108" lon="-0.42364">
        <ele>50</ele>
        <time>2012-07-01T09:11:02.000Z</time>
      </trkpt>
      <trkpt lat="44.85113" lon="-0.42363">
        <ele>51</ele>
        <time>2012-07-01T09:11:04.000Z</time>
      </trkpt>
      <trkpt lat="44.8512" lon="-0.42363">
        <ele>51</ele>
        <time>2012-07-01T09:11:07.000Z</time>
      </trkpt>
      <trkpt lat="44.85125" lon="-0.42362">
        <ele>52</ele>
        <time>2012-07-01T09:11:09.000Z</time>
      </trkpt>
      <trkpt lat="44.85133" lon="-0.42359">
        <ele>52</ele>
        <time>2012-07-01T09:11:12.000Z</time>
      </trkpt>
      <trkpt lat="44.85136" lon="-0.42356">
        <ele>53</ele>
        <time>2012-07-01T09:11:14.000Z</time>
      </trkpt>
      <trkpt lat="44.85147" lon="-0.42349">
        <ele>54</ele>
        <time>2012-07-01T09:11:19.000Z</time>
      </trkpt>
      <trkpt lat="44.85152" lon="-0.42342">
        <ele>55</ele>
        <time>2012-07-01T09:11:22.000Z</time>
      </trkpt>
      <trkpt lat="44.85155" lon="-0.42333">
        <ele>55</ele>
        <time>2012-07-01T09:11:25.000Z</time>
      </trkpt>
      <trkpt lat="44.85157" lon="-0.42327">
        <ele>56</ele>
        <time>2012-07-01T09:11:27.000Z</time>
      </trkpt>
      <trkpt lat="44.85159" lon="-0.42318">
        <ele>57</ele>
        <time>2012-07-01T09:11:30.000Z</time>
      </trkpt>
      <trkpt lat="44.8516" lon="-0.42295">
        <ele>58</ele>
        <time>2012-07-01T09:11:36.000Z</time>
      </trkpt>
      <trkpt lat="44.85158" lon="-0.42287">
        <ele>58</ele>
        <time>2012-07-01T09:11:39.000Z</time>
      </trkpt>
      <trkpt lat="44.85158" lon="-0.42284">
        <ele>59</ele>
        <time>2012-07-01T09:11:51.000Z</time>
      </trkpt>
      <trkpt lat="44.85155" lon="-0.42247">
        <ele>60</ele>
        <time>2012-07-01T09:12:00.000Z</time>
      </trkpt>
      <trkpt lat="44.85157" lon="-0.42212">
        <ele>60</ele>
        <time>2012-07-01T09:12:09.000Z</time>
      </trkpt>
      <trkpt lat="44.85165" lon="-0.42205">
        <ele>61</ele>
        <time>2012-07-01T09:12:12.000Z</time>
      </trkpt>
      <trkpt lat="44.8517" lon="-0.42203">
        <ele>61</ele>
        <time>2012-07-01T09:12:14.000Z</time>
      </trkpt>
      <trkpt lat="44.85179" lon="-0.42204">
        <ele>61</ele>
        <time>2012-07-01T09:12:17.000Z</time>
      </trkpt>
      <trkpt lat="44.85185" lon="-0.42205">
        <ele>62</ele>
        <time>2012-07-01T09:12:19.000Z</time>
      </trkpt>
      <trkpt lat="44.85193" lon="-0.42207">
        <ele>62</ele>
        <time>2012-07-01T09:12:22.000Z</time>
      </trkpt>
      <trkpt lat="44.85201" lon="-0.42204">
        <ele>62</ele>
        <time>2012-07-01T09:12:25.000Z</time>
      </trkpt>
      <trkpt lat="44.85205" lon="-0.422">
        <ele>62</ele>
        <time>2012-07-01T09:12:27.000Z</time>
      </trkpt>
      <trkpt lat="44.8521" lon="-0.42194">
        <ele>63</ele>
        <time>2012-07-01T09:12:30.000Z</time>
      </trkpt>
      <trkpt lat="44.85213" lon="-0.42187">
        <ele>63</ele>
        <time>2012-07-01T09:12:32.000Z</time>
      </trkpt>
      <trkpt lat="44.85222" lon="-0.4217">
        <ele>64</ele>
        <time>2012-07-01T09:12:40.000Z</time>
      </trkpt>
      <trkpt lat="44.85223" lon="-0.42165">
        <ele>64</ele>
        <time>2012-07-01T09:12:42.000Z</time>
      </trkpt>
      <trkpt lat="44.85223" lon="-0.42158">
        <ele>64</ele>
        <time>2012-07-01T09:12:45.000Z</time>
      </trkpt>
      <trkpt lat="44.85223" lon="-0.42155">
        <ele>64</ele>
        <time>2012-07-01T09:12:48.000Z</time>
      </trkpt>
      <trkpt lat="44.85223" lon="-0.42153">
        <ele>64</ele>
        <time>2012-07-01T09:12:50.000Z</time>
      </trkpt>
      <trkpt lat="44.85223" lon="-0.42156">
        <ele>64</ele>
        <time>2012-07-01T09:12:53.000Z</time>
      </trkpt>
      <trkpt lat="44.85217" lon="-0.42176">
        <ele>64</ele>
        <time>2012-07-01T09:12:59.000Z</time>
      </trkpt>
      <trkpt lat="44.85212" lon="-0.42186">
        <ele>64</ele>
        <time>2012-07-01T09:13:02.000Z</time>
      </trkpt>
      <trkpt lat="44.85202" lon="-0.42199">
        <ele>63</ele>
        <time>2012-07-01T09:13:06.000Z</time>
      </trkpt>
      <trkpt lat="44.85194" lon="-0.42203">
        <ele>63</ele>
        <time>2012-07-01T09:13:08.000Z</time>
      </trkpt>
      <trkpt lat="44.85184" lon="-0.42202">
        <ele>63</ele>
        <time>2012-07-01T09:13:10.000Z</time>
      </trkpt>
      <trkpt lat="44.85177" lon="-0.42198">
        <ele>63</ele>
        <time>2012-07-01T09:13:12.000Z</time>
      </trkpt>
      <trkpt lat="44.8517" lon="-0.42193">
        <ele>62</ele>
        <time>2012-07-01T09:13:14.000Z</time>
      </trkpt>
      <trkpt lat="44.85152" lon="-0.42184">
        <ele>62</ele>
        <time>2012-07-01T09:13:19.000Z</time>
      </trkpt>
      <trkpt lat="44.8514" lon="-0.42184">
        <ele>61</ele>
        <time>2012-07-01T09:13:22.000Z</time>
      </trkpt>
      <trkpt lat="44.8513" lon="-0.42187">
        <ele>60</ele>
        <time>2012-07-01T09:13:25.000Z</time>
      </trkpt>
      <trkpt lat="44.85115" lon="-0.42189">
        <ele>59</ele>
        <time>2012-07-01T09:13:30.000Z</time>
      </trkpt>
      <trkpt lat="44.85109" lon="-0.42185">
        <ele>58</ele>
        <time>2012-07-01T09:13:33.000Z</time>
      </trkpt>
      <trkpt lat="44.8511" lon="-0.42182">
        <ele>58</ele>
        <time>2012-07-01T09:13:35.000Z</time>
      </trkpt>
      <trkpt lat="44.85112" lon="-0.42184">
        <ele>57</ele>
        <time>2012-07-01T09:13:37.000Z</time>
      </trkpt>
      <trkpt lat="44.85117" lon="-0.42195">
        <ele>57</ele>
        <time>2012-07-01T09:13:40.000Z</time>
      </trkpt>
      <trkpt lat="44.85115" lon="-0.42205">
        <ele>57</ele>
        <time>2012-07-01T09:13:43.000Z</time>
      </trkpt>
      <trkpt lat="44.85107" lon="-0.42204">
        <ele>57</ele>
        <time>2012-07-01T09:13:45.000Z</time>
      </trkpt>
      <trkpt lat="44.85097" lon="-0.42201">
        <ele>57</ele>
        <time>2012-07-01T09:13:47.000Z</time>
      </trkpt>
      <trkpt lat="44.8508" lon="-0.42189">
        <ele>56</ele>
        <time>2012-07-01T09:13:50.000Z</time>
      </trkpt>
      <trkpt lat="44.85058" lon="-0.42173">
        <ele>55</ele>
        <time>2012-07-01T09:13:55.000Z</time>
      </trkpt>
      <trkpt lat="44.85047" lon="-0.42166">
        <ele>54</ele>
        <time>2012-07-01T09:13:58.000Z</time>
      </trkpt>
      <trkpt lat="44.85015" lon="-0.42159">
        <ele>53</ele>
        <time>2012-07-01T09:14:03.000Z</time>
      </trkpt>
      <trkpt lat="44.85003" lon="-0.42165">
        <ele>53</ele>
        <time>2012-07-01T09:14:05.000Z</time>
      </trkpt>
      <trkpt lat="44.84993" lon="-0.42174">
        <ele>52</ele>
        <time>2012-07-01T09:14:07.000Z</time>
      </trkpt>
      <trkpt lat="44.84988" lon="-0.42178">
        <ele>52</ele>
        <time>2012-07-01T09:14:10.000Z</time>
      </trkpt>
      <trkpt lat="44.84985" lon="-0.42178">
        <ele>52</ele>
        <time>2012-07-01T09:14:13.000Z</time>
      </trkpt>
      <trkpt lat="44.84974" lon="-0.42182">
        <ele>52</ele>
        <time>2012-07-01T09:14:19.000Z</time>
      </trkpt>
      <trkpt lat="44.84972" lon="-0.42184">
        <ele>52</ele>
        <time>2012-07-01T09:14:22.000Z</time>
      </trkpt>
      <trkpt lat="44.84965" lon="-0.42192">
        <ele>53</ele>
        <time>2012-07-01T09:14:25.000Z</time>
      </trkpt>
      <trkpt lat="44.84964" lon="-0.42208">
        <ele>53</ele>
        <time>2012-07-01T09:14:28.000Z</time>
      </trkpt>
      <trkpt lat="44.84964" lon="-0.42238">
        <ele>54</ele>
        <time>2012-07-01T09:14:35.000Z</time>
      </trkpt>
      <trkpt lat="44.84964" lon="-0.42251">
        <ele>54</ele>
        <time>2012-07-01T09:14:38.000Z</time>
      </trkpt>
      <trkpt lat="44.84962" lon="-0.4226">
        <ele>54</ele>
        <time>2012-07-01T09:14:40.000Z</time>
      </trkpt>
      <trkpt lat="44.84949" lon="-0.42322">
        <ele>55</ele>
        <time>2012-07-01T09:14:52.000Z</time>
      </trkpt>
      <trkpt lat="44.84946" lon="-0.42353">
        <ele>55</ele>
        <time>2012-07-01T09:14:57.000Z</time>
      </trkpt>
      <trkpt lat="44.84946" lon="-0.42368">
        <ele>55</ele>
        <time>2012-07-01T09:15:00.000Z</time>
      </trkpt>
      <trkpt lat="44.84948" lon="-0.42385">
        <ele>55</ele>
        <time>2012-07-01T09:15:03.000Z</time>
      </trkpt>
      <trkpt lat="44.84954" lon="-0.42413">
        <ele>54</ele>
        <time>2012-07-01T09:15:08.000Z</time>
      </trkpt>
      <trkpt lat="44.8496" lon="-0.42429">
        <ele>53</ele>
        <time>2012-07-01T09:15:11.000Z</time>
      </trkpt>
      <trkpt lat="44.84967" lon="-0.4245">
        <ele>52</ele>
        <time>2012-07-01T09:15:15.000Z</time>
      </trkpt>
      <trkpt lat="44.84976" lon="-0.42478">
        <ele>51</ele>
        <time>2012-07-01T09:15:20.000Z</time>
      </trkpt>
      <trkpt lat="44.84986" lon="-0.42514">
        <ele>50</ele>
        <time>2012-07-01T09:15:26.000Z</time>
      </trkpt>
      <trkpt lat="44.84993" lon="-0.42566">
        <ele>50</ele>
        <time>2012-07-01T09:15:35.000Z</time>
      </trkpt>
      <trkpt lat="44.84993" lon="-0.42583">
        <ele>50</ele>
        <time>2012-07-01T09:15:38.000Z</time>
      </trkpt>
      <trkpt lat="44.84991" lon="-0.42598">
        <ele>51</ele>
        <time>2012-07-01T09:15:41.000Z</time>
      </trkpt>
      <trkpt lat="44.84983" lon="-0.42627">
        <ele>51</ele>
        <time>2012-07-01T09:15:48.000Z</time>
      </trkpt>
      <trkpt lat="44.84982" lon="-0.42631">
        <ele>51</ele>
        <time>2012-07-01T09:15:50.000Z</time>
      </trkpt>
      <trkpt lat="44.84958" lon="-0.42693">
        <ele>50</ele>
        <time>2012-07-01T09:16:05.000Z</time>
      </trkpt>
      <trkpt lat="44.84951" lon="-0.42713">
        <ele>49</ele>
        <time>2012-07-01T09:16:08.000Z</time>
      </trkpt>
      <trkpt lat="44.84948" lon="-0.42738">
        <ele>49</ele>
        <time>2012-07-01T09:16:11.000Z</time>
      </trkpt>
      <trkpt lat="44.84947" lon="-0.42766">
        <ele>47</ele>
        <time>2012-07-01T09:16:14.000Z</time>
      </trkpt>
      <trkpt lat="44.84949" lon="-0.42786">
        <ele>46</ele>
        <time>2012-07-01T09:16:16.000Z</time>
      </trkpt>
      <trkpt lat="44.84949" lon="-0.42807">
        <ele>45</ele>
        <time>2012-07-01T09:16:18.000Z</time>
      </trkpt>
      <trkpt lat="44.8495" lon="-0.4284">
        <ele>43</ele>
        <time>2012-07-01T09:16:21.000Z</time>
      </trkpt>
      <trkpt lat="44.84949" lon="-0.4286">
        <ele>42</ele>
        <time>2012-07-01T09:16:23.000Z</time>
      </trkpt>
      <trkpt lat="44.84943" lon="-0.42878">
        <ele>41</ele>
        <time>2012-07-01T09:16:25.000Z</time>
      </trkpt>
      <trkpt lat="44.84939" lon="-0.42895">
        <ele>40</ele>
        <time>2012-07-01T09:16:28.000Z</time>
      </trkpt>
      <trkpt lat="44.84939" lon="-0.429">
        <ele>39</ele>
        <time>2012-07-01T09:16:31.000Z</time>
      </trkpt>
      <trkpt lat="44.84937" lon="-0.42905">
        <ele>39</ele>
        <time>2012-07-01T09:16:34.000Z</time>
      </trkpt>
      <trkpt lat="44.84938" lon="-0.4291">
        <ele>38</ele>
        <time>2012-07-01T09:16:37.000Z</time>
      </trkpt>
      <trkpt lat="44.8494" lon="-0.42922">
        <ele>38</ele>
        <time>2012-07-01T09:16:40.000Z</time>
      </trkpt>
      <trkpt lat="44.84956" lon="-0.42988">
        <ele>38</ele>
        <time>2012-07-01T09:16:55.000Z</time>
      </trkpt>
      <trkpt lat="44.84961" lon="-0.43001">
        <ele>39</ele>
        <time>2012-07-01T09:16:57.000Z</time>
      </trkpt>
      <trkpt lat="44.84972" lon="-0.43033">
        <ele>40</ele>
        <time>2012-07-01T09:17:02.000Z</time>
      </trkpt>
      <trkpt lat="44.8498" lon="-0.43049">
        <ele>41</ele>
        <time>2012-07-01T09:17:05.000Z</time>
      </trkpt>
      <trkpt lat="44.84985" lon="-0.4306">
        <ele>42</ele>
        <time>2012-07-01T09:17:08.000Z</time>
      </trkpt>
      <trkpt lat="44.84982" lon="-0.43069">
        <ele>43</ele>
        <time>2012-07-01T09:17:11.000Z</time>
      </trkpt>
      <trkpt lat="44.8497" lon="-0.43075">
        <ele>44</ele>
        <time>2012-07-01T09:17:14.000Z</time>
      </trkpt>
      <trkpt lat="44.84915" lon="-0.43102">
        <ele>43</ele>
        <time>2012-07-01T09:17:27.000Z</time>
      </trkpt>
      <trkpt lat="44.84894" lon="-0.43111">
        <ele>44</ele>
        <time>2012-07-01T09:17:32.000Z</time>
      </trkpt>
      <trkpt lat="44.84868" lon="-0.43122">
        <ele>45</ele>
        <time>2012-07-01T09:17:37.000Z</time>
      </trkpt>
      <trkpt lat="44.84843" lon="-0.43132">
        <ele>46</ele>
        <time>2012-07-01T09:17:43.000Z</time>
      </trkpt>
      <trkpt lat="44.84819" lon="-0.43143">
        <ele>47</ele>
        <time>2012-07-01T09:17:48.000Z</time>
      </trkpt>
      <trkpt lat="44.84788" lon="-0.43158">
        <ele>48</ele>
        <time>2012-07-01T09:17:56.000Z</time>
      </trkpt>
      <trkpt lat="44.84764" lon="-0.43166">
        <ele>48</ele>
        <time>2012-07-01T09:18:01.000Z</time>
      </trkpt>
      <trkpt lat="44.84757" lon="-0.43167">
        <ele>48</ele>
        <time>2012-07-01T09:18:03.000Z</time>
      </trkpt>
      <trkpt lat="44.84721" lon="-0.43166">
        <ele>47</ele>
        <time>2012-07-01T09:18:09.000Z</time>
      </trkpt>
      <trkpt lat="44.847" lon="-0.43173">
        <ele>46</ele>
        <time>2012-07-01T09:18:12.000Z</time>
      </trkpt>
      <trkpt lat="44.84686" lon="-0.43187">
        <ele>46</ele>
        <time>2012-07-01T09:18:15.000Z</time>
      </trkpt>
      <trkpt lat="44.84679" lon="-0.43197">
        <ele>45</ele>
        <time>2012-07-01T09:18:17.000Z</time>
      </trkpt>
      <trkpt lat="44.8467" lon="-0.4321">
        <ele>44</ele>
        <time>2012-07-01T09:18:20.000Z</time>
      </trkpt>
      <trkpt lat="44.84656" lon="-0.43233">
        <ele>43</ele>
        <time>2012-07-01T09:18:25.000Z</time>
      </trkpt>
      <trkpt lat="44.84647" lon="-0.43245">
        <ele>43</ele>
        <time>2012-07-01T09:18:30.000Z</time>
      </trkpt>
      <trkpt lat="44.84643" lon="-0.43253">
        <ele>43</ele>
        <time>2012-07-01T09:18:38.000Z</time>
      </trkpt>
      <trkpt lat="44.84646" lon="-0.43259">
        <ele>43</ele>
        <time>2012-07-01T09:18:40.000Z</time>
      </trkpt>
      <trkpt lat="44.84644" lon="-0.43268">
        <ele>43</ele>
        <time>2012-07-01T09:18:43.000Z</time>
      </trkpt>
      <trkpt lat="44.84623" lon="-0.43326">
        <ele>43</ele>
        <time>2012-07-01T09:18:56.000Z</time>
      </trkpt>
      <trkpt lat="44.84619" lon="-0.43336">
        <ele>44</ele>
        <time>2012-07-01T09:18:58.000Z</time>
      </trkpt>
      <trkpt lat="44.84615" lon="-0.4335">
        <ele>44</ele>
        <time>2012-07-01T09:19:01.000Z</time>
      </trkpt>
      <trkpt lat="44.84604" lon="-0.43394">
        <ele>45</ele>
        <time>2012-07-01T09:19:12.000Z</time>
      </trkpt>
      <trkpt lat="44.84604" lon="-0.43404">
        <ele>45</ele>
        <time>2012-07-01T09:19:15.000Z</time>
      </trkpt>
      <trkpt lat="44.84607" lon="-0.4341">
        <ele>45</ele>
        <time>2012-07-01T09:19:17.000Z</time>
      </trkpt>
      <trkpt lat="44.84611" lon="-0.43414">
        <ele>45</ele>
        <time>2012-07-01T09:19:20.000Z</time>
      </trkpt>
      <trkpt lat="44.84618" lon="-0.43421">
        <ele>46</ele>
        <time>2012-07-01T09:19:25.000Z</time>
      </trkpt>
      <trkpt lat="44.84623" lon="-0.43431">
        <ele>46</ele>
        <time>2012-07-01T09:19:30.000Z</time>
      </trkpt>
      <trkpt lat="44.84623" lon="-0.43436">
        <ele>46</ele>
        <time>2012-07-01T09:19:32.000Z</time>
      </trkpt>
      <trkpt lat="44.84624" lon="-0.4344">
        <ele>46</ele>
        <time>2012-07-01T09:19:34.000Z</time>
      </trkpt>
      <trkpt lat="44.84627" lon="-0.43448">
        <ele>47</ele>
        <time>2012-07-01T09:19:37.000Z</time>
      </trkpt>
      <trkpt lat="44.84636" lon="-0.43468">
        <ele>48</ele>
        <time>2012-07-01T09:19:44.000Z</time>
      </trkpt>
      <trkpt lat="44.84647" lon="-0.4349">
        <ele>49</ele>
        <time>2012-07-01T09:19:52.000Z</time>
      </trkpt>
      <trkpt lat="44.84647" lon="-0.43495">
        <ele>49</ele>
        <time>2012-07-01T09:20:02.000Z</time>
      </trkpt>
      <trkpt lat="44.84647" lon="-0.435">
        <ele>50</ele>
        <time>2012-07-01T09:20:04.000Z</time>
      </trkpt>
      <trkpt lat="44.84649" lon="-0.43506">
        <ele>50</ele>
        <time>2012-07-01T09:20:06.000Z</time>
      </trkpt>
      <trkpt lat="44.84654" lon="-0.43531">
        <ele>51</ele>
        <time>2012-07-01T09:20:13.000Z</time>
      </trkpt>
      <trkpt lat="44.84657" lon="-0.43549">
        <ele>52</ele>
        <time>2012-07-01T09:20:18.000Z</time>
      </trkpt>
      <trkpt lat="44.84658" lon="-0.43567">
        <ele>53</ele>
        <time>2012-07-01T09:20:23.000Z</time>
      </trkpt>
      <trkpt lat="44.84657" lon="-0.43573">
        <ele>53</ele>
        <time>2012-07-01T09:20:25.000Z</time>
      </trkpt>
      <trkpt lat="44.84656" lon="-0.4358">
        <ele>54</ele>
        <time>2012-07-01T09:20:27.000Z</time>
      </trkpt>
      <trkpt lat="44.84657" lon="-0.4362">
        <ele>54</ele>
        <time>2012-07-01T09:20:37.000Z</time>
      </trkpt>
      <trkpt lat="44.84658" lon="-0.43627">
        <ele>55</ele>
        <time>2012-07-01T09:20:39.000Z</time>
      </trkpt>
      <trkpt lat="44.84671" lon="-0.4367">
        <ele>56</ele>
        <time>2012-07-01T09:20:49.000Z</time>
      </trkpt>
      <trkpt lat="44.84684" lon="-0.43703">
        <ele>57</ele>
        <time>2012-07-01T09:20:57.000Z</time>
      </trkpt>
      <trkpt lat="44.84694" lon="-0.43725">
        <ele>58</ele>
        <time>2012-07-01T09:21:02.000Z</time>
      </trkpt>
      <trkpt lat="44.847" lon="-0.43747">
        <ele>59</ele>
        <time>2012-07-01T09:21:07.000Z</time>
      </trkpt>
      <trkpt lat="44.84709" lon="-0.43773">
        <ele>60</ele>
        <time>2012-07-01T09:21:13.000Z</time>
      </trkpt>
      <trkpt lat="44.84713" lon="-0.43794">
        <ele>60</ele>
        <time>2012-07-01T09:21:17.000Z</time>
      </trkpt>
      <trkpt lat="44.84715" lon="-0.4381">
        <ele>61</ele>
        <time>2012-07-01T09:21:20.000Z</time>
      </trkpt>
      <trkpt lat="44.84724" lon="-0.43847">
        <ele>62</ele>
        <time>2012-07-01T09:21:28.000Z</time>
      </trkpt>
      <trkpt lat="44.84732" lon="-0.43859">
        <ele>62</ele>
        <time>2012-07-01T09:21:31.000Z</time>
      </trkpt>
      <trkpt lat="44.8474" lon="-0.43866">
        <ele>63</ele>
        <time>2012-07-01T09:21:34.000Z</time>
      </trkpt>
      <trkpt lat="44.84758" lon="-0.43879">
        <ele>64</ele>
        <time>2012-07-01T09:21:40.000Z</time>
      </trkpt>
      <trkpt lat="44.84763" lon="-0.43885">
        <ele>64</ele>
        <time>2012-07-01T09:21:42.000Z</time>
      </trkpt>
      <trkpt lat="44.84769" lon="-0.43894">
        <ele>65</ele>
        <time>2012-07-01T09:21:45.000Z</time>
      </trkpt>
      <trkpt lat="44.84786" lon="-0.43916">
        <ele>66</ele>
        <time>2012-07-01T09:21:52.000Z</time>
      </trkpt>
      <trkpt lat="44.84808" lon="-0.43939">
        <ele>67</ele>
        <time>2012-07-01T09:22:00.000Z</time>
      </trkpt>
      <trkpt lat="44.84819" lon="-0.43956">
        <ele>68</ele>
        <time>2012-07-01T09:22:05.000Z</time>
      </trkpt>
      <trkpt lat="44.84825" lon="-0.43967">
        <ele>68</ele>
        <time>2012-07-01T09:22:08.000Z</time>
      </trkpt>
      <trkpt lat="44.84828" lon="-0.43975">
        <ele>69</ele>
        <time>2012-07-01T09:22:10.000Z</time>
      </trkpt>
      <trkpt lat="44.84838" lon="-0.44">
        <ele>70</ele>
        <time>2012-07-01T09:22:16.000Z</time>
      </trkpt>
      <trkpt lat="44.84845" lon="-0.44017">
        <ele>71</ele>
        <time>2012-07-01T09:22:20.000Z</time>
      </trkpt>
      <trkpt lat="44.84861" lon="-0.44076">
        <ele>71</ele>
        <time>2012-07-01T09:22:33.000Z</time>
      </trkpt>
      <trkpt lat="44.84884" lon="-0.44129">
        <ele>71</ele>
        <time>2012-07-01T09:22:43.000Z</time>
      </trkpt>
      <trkpt lat="44.84898" lon="-0.44142">
        <ele>71</ele>
        <time>2012-07-01T09:22:46.000Z</time>
      </trkpt>
      <trkpt lat="44.84902" lon="-0.4415">
        <ele>72</ele>
        <time>2012-07-01T09:22:48.000Z</time>
      </trkpt>
      <trkpt lat="44.84923" lon="-0.44176">
        <ele>73</ele>
        <time>2012-07-01T09:22:55.000Z</time>
      </trkpt>
      <trkpt lat="44.84958" lon="-0.44221">
        <ele>74</ele>
        <time>2012-07-01T09:23:08.000Z</time>
      </trkpt>
      <trkpt lat="44.84966" lon="-0.44237">
        <ele>74</ele>
        <time>2012-07-01T09:23:12.000Z</time>
      </trkpt>
      <trkpt lat="44.8497" lon="-0.4425">
        <ele>74</ele>
        <time>2012-07-01T09:23:15.000Z</time>
      </trkpt>
      <trkpt lat="44.84974" lon="-0.44263">
        <ele>75</ele>
        <time>2012-07-01T09:23:18.000Z</time>
      </trkpt>
      <trkpt lat="44.84975" lon="-0.44277">
        <ele>75</ele>
        <time>2012-07-01T09:23:21.000Z</time>
      </trkpt>
      <trkpt lat="44.84977" lon="-0.44287">
        <ele>76</ele>
        <time>2012-07-01T09:23:23.000Z</time>
      </trkpt>
      <trkpt lat="44.8499" lon="-0.44327">
        <ele>77</ele>
        <time>2012-07-01T09:23:32.000Z</time>
      </trkpt>
      <trkpt lat="44.84996" lon="-0.44339">
        <ele>77</ele>
        <time>2012-07-01T09:23:35.000Z</time>
      </trkpt>
      <trkpt lat="44.84998" lon="-0.44348">
        <ele>77</ele>
        <time>2012-07-01T09:23:37.000Z</time>
      </trkpt>
      <trkpt lat="44.85" lon="-0.44364">
        <ele>78</ele>
        <time>2012-07-01T09:23:40.000Z</time>
      </trkpt>
      <trkpt lat="44.85004" lon="-0.44406">
        <ele>79</ele>
        <time>2012-07-01T09:23:48.000Z</time>
      </trkpt>
      <trkpt lat="44.85007" lon="-0.44474">
        <ele>79</ele>
        <time>2012-07-01T09:24:03.000Z</time>
      </trkpt>
      <trkpt lat="44.85007" lon="-0.44503">
        <ele>79</ele>
        <time>2012-07-01T09:24:09.000Z</time>
      </trkpt>
      <trkpt lat="44.85005" lon="-0.44518">
        <ele>79</ele>
        <time>2012-07-01T09:24:12.000Z</time>
      </trkpt>
      <trkpt lat="44.85002" lon="-0.44531">
        <ele>79</ele>
        <time>2012-07-01T09:24:15.000Z</time>
      </trkpt>
      <trkpt lat="44.84986" lon="-0.4458">
        <ele>78</ele>
        <time>2012-07-01T09:24:26.000Z</time>
      </trkpt>
      <trkpt lat="44.8497" lon="-0.4463">
        <ele>79</ele>
        <time>2012-07-01T09:24:37.000Z</time>
      </trkpt>
      <trkpt lat="44.84962" lon="-0.44656">
        <ele>80</ele>
        <time>2012-07-01T09:24:43.000Z</time>
      </trkpt>
      <trkpt lat="44.84953" lon="-0.44683">
        <ele>81</ele>
        <time>2012-07-01T09:24:49.000Z</time>
      </trkpt>
      <trkpt lat="44.84948" lon="-0.44706">
        <ele>82</ele>
        <time>2012-07-01T09:24:54.000Z</time>
      </trkpt>
      <trkpt lat="44.84941" lon="-0.44733">
        <ele>83</ele>
        <time>2012-07-01T09:25:00.000Z</time>
      </trkpt>
      <trkpt lat="44.84937" lon="-0.44746">
        <ele>84</ele>
        <time>2012-07-01T09:25:03.000Z</time>
      </trkpt>
      <trkpt lat="44.8493" lon="-0.44774">
        <ele>85</ele>
        <time>2012-07-01T09:25:09.000Z</time>
      </trkpt>
      <trkpt lat="44.84929" lon="-0.44798">
        <ele>86</ele>
        <time>2012-07-01T09:25:15.000Z</time>
      </trkpt>
      <trkpt lat="44.84936" lon="-0.44804">
        <ele>86</ele>
        <time>2012-07-01T09:25:18.000Z</time>
      </trkpt>
      <trkpt lat="44.84944" lon="-0.44807">
        <ele>86</ele>
        <time>2012-07-01T09:25:21.000Z</time>
      </trkpt>
      <trkpt lat="44.8498" lon="-0.44826">
        <ele>85</ele>
        <time>2012-07-01T09:25:32.000Z</time>
      </trkpt>
      <trkpt lat="44.85023" lon="-0.44847">
        <ele>84</ele>
        <time>2012-07-01T09:25:41.000Z</time>
      </trkpt>
      <trkpt lat="44.85049" lon="-0.44857">
        <ele>83</ele>
        <time>2012-07-01T09:25:46.000Z</time>
      </trkpt>
      <trkpt lat="44.85056" lon="-0.44849">
        <ele>82</ele>
        <time>2012-07-01T09:25:48.000Z</time>
      </trkpt>
      <trkpt lat="44.85059" lon="-0.44829">
        <ele>82</ele>
        <time>2012-07-01T09:25:51.000Z</time>
      </trkpt>
      <trkpt lat="44.85061" lon="-0.44808">
        <ele>82</ele>
        <time>2012-07-01T09:25:54.000Z</time>
      </trkpt>
      <trkpt lat="44.85062" lon="-0.44793">
        <ele>81</ele>
        <time>2012-07-01T09:25:56.000Z</time>
      </trkpt>
      <trkpt lat="44.85071" lon="-0.44758">
        <ele>80</ele>
        <time>2012-07-01T09:26:01.000Z</time>
      </trkpt>
      <trkpt lat="44.85085" lon="-0.44749">
        <ele>80</ele>
        <time>2012-07-01T09:26:06.000Z</time>
      </trkpt>
      <trkpt lat="44.85096" lon="-0.4475">
        <ele>80</ele>
        <time>2012-07-01T09:26:08.000Z</time>
      </trkpt>
      <trkpt lat="44.85106" lon="-0.44753">
        <ele>79</ele>
        <time>2012-07-01T09:26:08.000Z</time>
      </trkpt>
      <trkpt lat="44.85159" lon="-0.44768">
        <ele>78</ele>
        <time>2012-07-01T09:26:20.000Z</time>
      </trkpt>
      <trkpt lat="44.85209" lon="-0.44784">
        <ele>78</ele>
        <time>2012-07-01T09:26:34.000Z</time>
      </trkpt>
      <trkpt lat="44.85217" lon="-0.44784">
        <ele>79</ele>
        <time>2012-07-01T09:26:36.000Z</time>
      </trkpt>
      <trkpt lat="44.85226" lon="-0.44776">
        <ele>79</ele>
        <time>2012-07-01T09:26:39.000Z</time>
      </trkpt>
      <trkpt lat="44.85231" lon="-0.44764">
        <ele>79</ele>
        <time>2012-07-01T09:26:41.000Z</time>
      </trkpt>
      <trkpt lat="44.85237" lon="-0.44737">
        <ele>79</ele>
        <time>2012-07-01T09:26:46.000Z</time>
      </trkpt>
      <trkpt lat="44.85253" lon="-0.44678">
        <ele>78</ele>
        <time>2012-07-01T09:26:56.000Z</time>
      </trkpt>
      <trkpt lat="44.85272" lon="-0.44652">
        <ele>78</ele>
        <time>2012-07-01T09:27:02.000Z</time>
      </trkpt>
      <trkpt lat="44.85285" lon="-0.44649">
        <ele>78</ele>
        <time>2012-07-01T09:27:05.000Z</time>
      </trkpt>
      <trkpt lat="44.85299" lon="-0.44647">
        <ele>77</ele>
        <time>2012-07-01T09:27:08.000Z</time>
      </trkpt>
      <trkpt lat="44.85308" lon="-0.44646">
        <ele>77</ele>
        <time>2012-07-01T09:27:10.000Z</time>
      </trkpt>
      <trkpt lat="44.85321" lon="-0.44643">
        <ele>77</ele>
        <time>2012-07-01T09:27:13.000Z</time>
      </trkpt>
      <trkpt lat="44.85334" lon="-0.44639">
        <ele>76</ele>
        <time>2012-07-01T09:27:16.000Z</time>
      </trkpt>
      <trkpt lat="44.85355" lon="-0.44624">
        <ele>76</ele>
        <time>2012-07-01T09:27:21.000Z</time>
      </trkpt>
      <trkpt lat="44.85361" lon="-0.44608">
        <ele>76</ele>
        <time>2012-07-01T09:27:23.000Z</time>
      </trkpt>
      <trkpt lat="44.85395" lon="-0.44554">
        <ele>76</ele>
        <time>2012-07-01T09:27:31.000Z</time>
      </trkpt>
      <trkpt lat="44.85403" lon="-0.44547">
        <ele>76</ele>
        <time>2012-07-01T09:27:33.000Z</time>
      </trkpt>
      <trkpt lat="44.85422" lon="-0.44531">
        <ele>77</ele>
        <time>2012-07-01T09:27:39.000Z</time>
      </trkpt>
      <trkpt lat="44.85438" lon="-0.44511">
        <ele>78</ele>
        <time>2012-07-01T09:27:46.000Z</time>
      </trkpt>
      <trkpt lat="44.85485" lon="-0.44456">
        <ele>78</ele>
        <time>2012-07-01T09:27:59.000Z</time>
      </trkpt>
      <trkpt lat="44.85493" lon="-0.44443">
        <ele>78</ele>
        <time>2012-07-01T09:28:01.000Z</time>
      </trkpt>
      <trkpt lat="44.855" lon="-0.44427">
        <ele>78</ele>
        <time>2012-07-01T09:28:04.000Z</time>
      </trkpt>
      <trkpt lat="44.85503" lon="-0.44405">
        <ele>78</ele>
        <time>2012-07-01T09:28:07.000Z</time>
      </trkpt>
      <trkpt lat="44.85506" lon="-0.44377">
        <ele>77</ele>
        <time>2012-07-01T09:28:09.000Z</time>
      </trkpt>
      <trkpt lat="44.85503" lon="-0.44348">
        <ele>76</ele>
        <time>2012-07-01T09:28:14.000Z</time>
      </trkpt>
      <trkpt lat="44.85497" lon="-0.44331">
        <ele>76</ele>
        <time>2012-07-01T09:28:16.000Z</time>
      </trkpt>
      <trkpt lat="44.85493" lon="-0.44319">
        <ele>75</ele>
        <time>2012-07-01T09:28:18.000Z</time>
      </trkpt>
      <trkpt lat="44.85486" lon="-0.44311">
        <ele>75</ele>
        <time>2012-07-01T09:28:22.000Z</time>
      </trkpt>
      <trkpt lat="44.85475" lon="-0.4431">
        <ele>74</ele>
        <time>2012-07-01T09:28:27.000Z</time>
      </trkpt>
      <trkpt lat="44.85464" lon="-0.44311">
        <ele>74</ele>
        <time>2012-07-01T09:28:31.000Z</time>
      </trkpt>
      <trkpt lat="44.85455" lon="-0.44313">
        <ele>74</ele>
        <time>2012-07-01T09:28:35.000Z</time>
      </trkpt>
      <trkpt lat="44.85423" lon="-0.44309">
        <ele>74</ele>
        <time>2012-07-01T09:28:48.000Z</time>
      </trkpt>
      <trkpt lat="44.85413" lon="-0.44303">
        <ele>75</ele>
        <time>2012-07-01T09:28:51.000Z</time>
      </trkpt>
      <trkpt lat="44.854" lon="-0.44303">
        <ele>74</ele>
        <time>2012-07-01T09:28:55.000Z</time>
      </trkpt>
      <trkpt lat="44.85391" lon="-0.44309">
        <ele>74</ele>
        <time>2012-07-01T09:28:57.000Z</time>
      </trkpt>
      <trkpt lat="44.85377" lon="-0.44315">
        <ele>73</ele>
        <time>2012-07-01T09:29:02.000Z</time>
      </trkpt>
      <trkpt lat="44.85368" lon="-0.44315">
        <ele>73</ele>
        <time>2012-07-01T09:29:04.000Z</time>
      </trkpt>
      <trkpt lat="44.85366" lon="-0.44315">
        <ele>72</ele>
        <time>2012-07-01T09:29:07.000Z</time>
      </trkpt>
      <trkpt lat="44.85363" lon="-0.44311">
        <ele>72</ele>
        <time>2012-07-01T09:29:19.000Z</time>
      </trkpt>
      <trkpt lat="44.85363" lon="-0.44307">
        <ele>71</ele>
        <time>2012-07-01T09:29:22.000Z</time>
      </trkpt>
      <trkpt lat="44.85361" lon="-0.44303">
        <ele>71</ele>
        <time>2012-07-01T09:29:26.000Z</time>
      </trkpt>
      <trkpt lat="44.85358" lon="-0.44296">
        <ele>70</ele>
        <time>2012-07-01T09:29:28.000Z</time>
      </trkpt>
      <trkpt lat="44.85355" lon="-0.44291">
        <ele>70</ele>
        <time>2012-07-01T09:29:31.000Z</time>
      </trkpt>
      <trkpt lat="44.85354" lon="-0.44283">
        <ele>69</ele>
        <time>2012-07-01T09:29:35.000Z</time>
      </trkpt>
      <trkpt lat="44.85353" lon="-0.44278">
        <ele>68</ele>
        <time>2012-07-01T09:29:39.000Z</time>
      </trkpt>
      <trkpt lat="44.85357" lon="-0.44274">
        <ele>68</ele>
        <time>2012-07-01T09:29:51.000Z</time>
      </trkpt>
      <trkpt lat="44.8536" lon="-0.44263">
        <ele>67</ele>
        <time>2012-07-01T09:29:53.000Z</time>
      </trkpt>
      <trkpt lat="44.85365" lon="-0.44244">
        <ele>66</ele>
        <time>2012-07-01T09:29:59.000Z</time>
      </trkpt>
      <trkpt lat="44.85374" lon="-0.44217">
        <ele>65</ele>
        <time>2012-07-01T09:30:05.000Z</time>
      </trkpt>
      <trkpt lat="44.8538" lon="-0.44208">
        <ele>64</ele>
        <time>2012-07-01T09:30:08.000Z</time>
      </trkpt>
      <trkpt lat="44.85397" lon="-0.44182">
        <ele>63</ele>
        <time>2012-07-01T09:30:13.000Z</time>
      </trkpt>
      <trkpt lat="44.85396" lon="-0.44167">
        <ele>62</ele>
        <time>2012-07-01T09:30:17.000Z</time>
      </trkpt>
      <trkpt lat="44.85393" lon="-0.44158">
        <ele>61</ele>
        <time>2012-07-01T09:30:19.000Z</time>
      </trkpt>
      <trkpt lat="44.85389" lon="-0.44127">
        <ele>60</ele>
        <time>2012-07-01T09:30:26.000Z</time>
      </trkpt>
      <trkpt lat="44.85397" lon="-0.4411">
        <ele>60</ele>
        <time>2012-07-01T09:30:29.000Z</time>
      </trkpt>
      <trkpt lat="44.85428" lon="-0.44045">
        <ele>61</ele>
        <time>2012-07-01T09:30:37.000Z</time>
      </trkpt>
      <trkpt lat="44.85432" lon="-0.44031">
        <ele>61</ele>
        <time>2012-07-01T09:30:39.000Z</time>
      </trkpt>
      <trkpt lat="44.85448" lon="-0.43976">
        <ele>60</ele>
        <time>2012-07-01T09:30:47.000Z</time>
      </trkpt>
      <trkpt lat="44.85453" lon="-0.43949">
        <ele>59</ele>
        <time>2012-07-01T09:30:52.000Z</time>
      </trkpt>
      <trkpt lat="44.85453" lon="-0.4394">
        <ele>59</ele>
        <time>2012-07-01T09:30:55.000Z</time>
      </trkpt>
      <trkpt lat="44.85453" lon="-0.43922">
        <ele>58</ele>
        <time>2012-07-01T09:30:58.000Z</time>
      </trkpt>
      <trkpt lat="44.85449" lon="-0.43905">
        <ele>58</ele>
        <time>2012-07-01T09:31:02.000Z</time>
      </trkpt>
      <trkpt lat="44.85448" lon="-0.43887">
        <ele>57</ele>
        <time>2012-07-01T09:31:05.000Z</time>
      </trkpt>
      <trkpt lat="44.8544" lon="-0.43811">
        <ele>56</ele>
        <time>2012-07-01T09:31:16.000Z</time>
      </trkpt>
      <trkpt lat="44.85444" lon="-0.43749">
        <ele>55</ele>
        <time>2012-07-01T09:31:28.000Z</time>
      </trkpt>
      <trkpt lat="44.85445" lon="-0.43748">
        <ele>55</ele>
        <time>2012-07-01T09:31:33.000Z</time>
      </trkpt>
      <trkpt lat="44.85445" lon="-0.43748">
        <ele>55</ele>
        <time>2012-07-01T09:31:54.000Z</time>
      </trkpt>
      <trkpt lat="44.85446" lon="-0.43746">
        <ele>55</ele>
        <time>2012-07-01T09:31:56.000Z</time>
      </trkpt>
      <trkpt lat="44.85447" lon="-0.43748">
        <ele>55</ele>
        <time>2012-07-01T09:32:02.000Z</time>
      </trkpt>
      <trkpt lat="44.85449" lon="-0.43751">
        <ele>55</ele>
        <time>2012-07-01T09:32:13.000Z</time>
      </trkpt>
      <trkpt lat="44.85451" lon="-0.43746">
        <ele>56</ele>
        <time>2012-07-01T09:32:17.000Z</time>
      </trkpt>
      <trkpt lat="44.85452" lon="-0.43741">
        <ele>56</ele>
        <time>2012-07-01T09:32:30.000Z</time>
      </trkpt>
      <trkpt lat="44.85451" lon="-0.43741">
        <ele>56</ele>
        <time>2012-07-01T09:32:36.000Z</time>
      </trkpt>
      <trkpt lat="44.8545" lon="-0.4374">
        <ele>56</ele>
        <time>2012-07-01T09:32:40.000Z</time>
      </trkpt>
      <trkpt lat="44.85446" lon="-0.43742">
        <ele>56</ele>
        <time>2012-07-01T09:32:45.000Z</time>
      </trkpt>
      <trkpt lat="44.85445" lon="-0.43741">
        <ele>56</ele>
        <time>2012-07-01T09:32:51.000Z</time>
      </trkpt>
      <trkpt lat="44.85442" lon="-0.43741">
        <ele>56</ele>
        <time>2012-07-01T09:32:57.000Z</time>
      </trkpt>
      <trkpt lat="44.85439" lon="-0.43738">
        <ele>55</ele>
        <time>2012-07-01T09:33:01.000Z</time>
      </trkpt>
      <trkpt lat="44.85421" lon="-0.43722">
        <ele>55</ele>
        <time>2012-07-01T09:33:10.000Z</time>
      </trkpt>
      <trkpt lat="44.85415" lon="-0.4372">
        <ele>54</ele>
        <time>2012-07-01T09:33:15.000Z</time>
      </trkpt>
      <trkpt lat="44.85411" lon="-0.43717">
        <ele>54</ele>
        <time>2012-07-01T09:33:19.000Z</time>
      </trkpt>
      <trkpt lat="44.85405" lon="-0.43708">
        <ele>53</ele>
        <time>2012-07-01T09:33:23.000Z</time>
      </trkpt>
      <trkpt lat="44.85397" lon="-0.43688">
        <ele>53</ele>
        <time>2012-07-01T09:33:30.000Z</time>
      </trkpt>
      <trkpt lat="44.85394" lon="-0.4367">
        <ele>53</ele>
        <time>2012-07-01T09:33:36.000Z</time>
      </trkpt>
      <trkpt lat="44.85395" lon="-0.43652">
        <ele>52</ele>
        <time>2012-07-01T09:33:41.000Z</time>
      </trkpt>
      <trkpt lat="44.85397" lon="-0.43642">
        <ele>52</ele>
        <time>2012-07-01T09:33:44.000Z</time>
      </trkpt>
      <trkpt lat="44.85395" lon="-0.43634">
        <ele>52</ele>
        <time>2012-07-01T09:33:48.000Z</time>
      </trkpt>
      <trkpt lat="44.85394" lon="-0.43597">
        <ele>51</ele>
        <time>2012-07-01T09:33:57.000Z</time>
      </trkpt>
      <trkpt lat="44.85398" lon="-0.43582">
        <ele>51</ele>
        <time>2012-07-01T09:34:01.000Z</time>
      </trkpt>
      <trkpt lat="44.85402" lon="-0.43535">
        <ele>50</ele>
        <time>2012-07-01T09:34:10.000Z</time>
      </trkpt>
      <trkpt lat="44.85403" lon="-0.43512">
        <ele>49</ele>
        <time>2012-07-01T09:34:14.000Z</time>
      </trkpt>
      <trkpt lat="44.85406" lon="-0.43474">
        <ele>48</ele>
        <time>2012-07-01T09:34:19.000Z</time>
      </trkpt>
      <trkpt lat="44.85409" lon="-0.43454">
        <ele>47</ele>
        <time>2012-07-01T09:34:22.000Z</time>
      </trkpt>
      <trkpt lat="44.85411" lon="-0.4343">
        <ele>46</ele>
        <time>2012-07-01T09:34:31.000Z</time>
      </trkpt>
      <trkpt lat="44.85413" lon="-0.43428">
        <ele>46</ele>
        <time>2012-07-01T09:34:34.000Z</time>
      </trkpt>
      <trkpt lat="44.85421" lon="-0.43423">
        <ele>46</ele>
        <time>2012-07-01T09:34:39.000Z</time>
      </trkpt>
      <trkpt lat="44.85435" lon="-0.43415">
        <ele>46</ele>
        <time>2012-07-01T09:34:43.000Z</time>
      </trkpt>
      <trkpt lat="44.85444" lon="-0.43407">
        <ele>47</ele>
        <time>2012-07-01T09:34:46.000Z</time>
      </trkpt>
      <trkpt lat="44.8545" lon="-0.43395">
        <ele>48</ele>
        <time>2012-07-01T09:34:49.000Z</time>
      </trkpt>
      <trkpt lat="44.85458" lon="-0.43377">
        <ele>49</ele>
        <time>2012-07-01T09:34:53.000Z</time>
      </trkpt>
      <trkpt lat="44.85466" lon="-0.43358">
        <ele>50</ele>
        <time>2012-07-01T09:34:56.000Z</time>
      </trkpt>
      <trkpt lat="44.85476" lon="-0.43332">
        <ele>51</ele>
        <time>2012-07-01T09:35:01.000Z</time>
      </trkpt>
      <trkpt lat="44.855" lon="-0.43256">
        <ele>51</ele>
        <time>2012-07-01T09:35:11.000Z</time>
      </trkpt>
      <trkpt lat="44.85505" lon="-0.43222">
        <ele>50</ele>
        <time>2012-07-01T09:35:14.000Z</time>
      </trkpt>
      <trkpt lat="44.85508" lon="-0.43197">
        <ele>49</ele>
        <time>2012-07-01T09:35:18.000Z</time>
      </trkpt>
      <trkpt lat="44.85511" lon="-0.43185">
        <ele>47</ele>
        <time>2012-07-01T09:35:21.000Z</time>
      </trkpt>
      <trkpt lat="44.85515" lon="-0.43169">
        <ele>46</ele>
        <time>2012-07-01T09:35:24.000Z</time>
      </trkpt>
      <trkpt lat="44.85524" lon="-0.43142">
        <ele>44</ele>
        <time>2012-07-01T09:35:27.000Z</time>
      </trkpt>
      <trkpt lat="44.85532" lon="-0.43122">
        <ele>43</ele>
        <time>2012-07-01T09:35:29.000Z</time>
      </trkpt>
      <trkpt lat="44.85537" lon="-0.43107">
        <ele>42</ele>
        <time>2012-07-01T09:35:32.000Z</time>
      </trkpt>
      <trkpt lat="44.8555" lon="-0.43081">
        <ele>41</ele>
        <time>2012-07-01T09:35:35.000Z</time>
      </trkpt>
      <trkpt lat="44.85566" lon="-0.43059">
        <ele>40</ele>
        <time>2012-07-01T09:35:38.000Z</time>
      </trkpt>
      <trkpt lat="44.85582" lon="-0.43038">
        <ele>39</ele>
        <time>2012-07-01T09:35:43.000Z</time>
      </trkpt>
      <trkpt lat="44.85591" lon="-0.43023">
        <ele>38</ele>
        <time>2012-07-01T09:35:46.000Z</time>
      </trkpt>
      <trkpt lat="44.85604" lon="-0.43005">
        <ele>37</ele>
        <time>2012-07-01T09:35:49.000Z</time>
      </trkpt>
      <trkpt lat="44.85632" lon="-0.42965">
        <ele>36</ele>
        <time>2012-07-01T09:35:54.000Z</time>
      </trkpt>
      <trkpt lat="44.85661" lon="-0.42916">
        <ele>36</ele>
        <time>2012-07-01T09:36:04.000Z</time>
      </trkpt>
      <trkpt lat="44.85664" lon="-0.42909">
        <ele>37</ele>
        <time>2012-07-01T09:36:08.000Z</time>
      </trkpt>
      <trkpt lat="44.85667" lon="-0.42912">
        <ele>37</ele>
        <time>2012-07-01T09:36:13.000Z</time>
      </trkpt>
      <trkpt lat="44.85671" lon="-0.42923">
        <ele>38</ele>
        <time>2012-07-01T09:36:17.000Z</time>
      </trkpt>
      <trkpt lat="44.85676" lon="-0.42935">
        <ele>39</ele>
        <time>2012-07-01T09:36:21.000Z</time>
      </trkpt>
      <trkpt lat="44.85684" lon="-0.42961">
        <ele>40</ele>
        <time>2012-07-01T09:36:29.000Z</time>
      </trkpt>
      <trkpt lat="44.85687" lon="-0.42973">
        <ele>41</ele>
        <time>2012-07-01T09:36:33.000Z</time>
      </trkpt>
      <trkpt lat="44.85694" lon="-0.42995">
        <ele>42</ele>
        <time>2012-07-01T09:36:38.000Z</time>
      </trkpt>
      <trkpt lat="44.85699" lon="-0.43012">
        <ele>43</ele>
        <time>2012-07-01T09:36:44.000Z</time>
      </trkpt>
      <trkpt lat="44.85703" lon="-0.4303">
        <ele>44</ele>
        <time>2012-07-01T09:36:48.000Z</time>
      </trkpt>
      <trkpt lat="44.85706" lon="-0.43047">
        <ele>45</ele>
        <time>2012-07-01T09:36:53.000Z</time>
      </trkpt>
      <trkpt lat="44.8571" lon="-0.43062">
        <ele>46</ele>
        <time>2012-07-01T09:36:57.000Z</time>
      </trkpt>
      <trkpt lat="44.85713" lon="-0.43078">
        <ele>47</ele>
        <time>2012-07-01T09:37:03.000Z</time>
      </trkpt>
      <trkpt lat="44.85716" lon="-0.43091">
        <ele>48</ele>
        <time>2012-07-01T09:37:09.000Z</time>
      </trkpt>
      <trkpt lat="44.85718" lon="-0.43096">
        <ele>48</ele>
        <time>2012-07-01T09:37:12.000Z</time>
      </trkpt>
      <trkpt lat="44.85721" lon="-0.43103">
        <ele>49</ele>
        <time>2012-07-01T09:37:15.000Z</time>
      </trkpt>
      <trkpt lat="44.85725" lon="-0.4311">
        <ele>49</ele>
        <time>2012-07-01T09:37:18.000Z</time>
      </trkpt>
      <trkpt lat="44.85729" lon="-0.43117">
        <ele>50</ele>
        <time>2012-07-01T09:37:22.000Z</time>
      </trkpt>
      <trkpt lat="44.85731" lon="-0.43122">
        <ele>51</ele>
        <time>2012-07-01T09:37:24.000Z</time>
      </trkpt>
      <trkpt lat="44.85735" lon="-0.43129">
        <ele>52</ele>
        <time>2012-07-01T09:37:27.000Z</time>
      </trkpt>
      <trkpt lat="44.85738" lon="-0.43137">
        <ele>53</ele>
        <time>2012-07-01T09:37:30.000Z</time>
      </trkpt>
      <trkpt lat="44.85741" lon="-0.43144">
        <ele>54</ele>
        <time>2012-07-01T09:37:33.000Z</time>
      </trkpt>
      <trkpt lat="44.85746" lon="-0.43155">
        <ele>55</ele>
        <time>2012-07-01T09:37:38.000Z</time>
      </trkpt>
      <trkpt lat="44.85751" lon="-0.43165">
        <ele>56</ele>
        <time>2012-07-01T09:37:44.000Z</time>
      </trkpt>
      <trkpt lat="44.85756" lon="-0.43176">
        <ele>57</ele>
        <time>2012-07-01T09:37:48.000Z</time>
      </trkpt>
      <trkpt lat="44.8577" lon="-0.43195">
        <ele>58</ele>
        <time>2012-07-01T09:37:57.000Z</time>
      </trkpt>
      <trkpt lat="44.85778" lon="-0.43201">
        <ele>58</ele>
        <time>2012-07-01T09:38:00.000Z</time>
      </trkpt>
      <trkpt lat="44.85793" lon="-0.43218">
        <ele>58</ele>
        <time>2012-07-01T09:38:08.000Z</time>
      </trkpt>
      <trkpt lat="44.85796" lon="-0.43224">
        <ele>59</ele>
        <time>2012-07-01T09:38:11.000Z</time>
      </trkpt>
      <trkpt lat="44.85797" lon="-0.43231">
        <ele>59</ele>
        <time>2012-07-01T09:38:14.000Z</time>
      </trkpt>
      <trkpt lat="44.8581" lon="-0.43312">
        <ele>60</ele>
        <time>2012-07-01T09:38:17.000Z</time>
      </trkpt>
      <trkpt lat="44.8581" lon="-0.43314">
        <ele>60</ele>
        <time>2012-07-01T09:38:34.000Z</time>
      </trkpt>
      <trkpt lat="44.8581" lon="-0.43319">
        <ele>60</ele>
        <time>2012-07-01T09:38:38.000Z</time>
      </trkpt>
      <trkpt lat="44.85815" lon="-0.43332">
        <ele>61</ele>
        <time>2012-07-01T09:38:42.000Z</time>
      </trkpt>
      <trkpt lat="44.85825" lon="-0.43374">
        <ele>61</ele>
        <time>2012-07-01T09:38:51.000Z</time>
      </trkpt>
      <trkpt lat="44.85838" lon="-0.43392">
        <ele>61</ele>
        <time>2012-07-01T09:38:55.000Z</time>
      </trkpt>
      <trkpt lat="44.8586" lon="-0.43396">
        <ele>61</ele>
        <time>2012-07-01T09:38:59.000Z</time>
      </trkpt>
      <trkpt lat="44.85881" lon="-0.43395">
        <ele>60</ele>
        <time>2012-07-01T09:39:03.000Z</time>
      </trkpt>
      <trkpt lat="44.85896" lon="-0.43396">
        <ele>58</ele>
        <time>2012-07-01T09:39:08.000Z</time>
      </trkpt>
      <trkpt lat="44.85911" lon="-0.43397">
        <ele>57</ele>
        <time>2012-07-01T09:39:10.000Z</time>
      </trkpt>
      <trkpt lat="44.85926" lon="-0.43398">
        <ele>55</ele>
        <time>2012-07-01T09:39:13.000Z</time>
      </trkpt>
      <trkpt lat="44.85944" lon="-0.43394">
        <ele>54</ele>
        <time>2012-07-01T09:39:16.000Z</time>
      </trkpt>
      <trkpt lat="44.85966" lon="-0.43382">
        <ele>53</ele>
        <time>2012-07-01T09:39:21.000Z</time>
      </trkpt>
      <trkpt lat="44.85984" lon="-0.43368">
        <ele>51</ele>
        <time>2012-07-01T09:39:24.000Z</time>
      </trkpt>
      <trkpt lat="44.85993" lon="-0.4336">
        <ele>50</ele>
        <time>2012-07-01T09:39:28.000Z</time>
      </trkpt>
      <trkpt lat="44.86006" lon="-0.43355">
        <ele>50</ele>
        <time>2012-07-01T09:39:32.000Z</time>
      </trkpt>
      <trkpt lat="44.86015" lon="-0.43356">
        <ele>49</ele>
        <time>2012-07-01T09:39:35.000Z</time>
      </trkpt>
      <trkpt lat="44.86029" lon="-0.43358">
        <ele>48</ele>
        <time>2012-07-01T09:39:39.000Z</time>
      </trkpt>
      <trkpt lat="44.86074" lon="-0.4336">
        <ele>48</ele>
        <time>2012-07-01T09:39:48.000Z</time>
      </trkpt>
      <trkpt lat="44.86085" lon="-0.43359">
        <ele>48</ele>
        <time>2012-07-01T09:39:52.000Z</time>
      </trkpt>
      <trkpt lat="44.86094" lon="-0.43357">
        <ele>48</ele>
        <time>2012-07-01T09:39:55.000Z</time>
      </trkpt>
      <trkpt lat="44.86106" lon="-0.43354">
        <ele>49</ele>
        <time>2012-07-01T09:40:00.000Z</time>
      </trkpt>
      <trkpt lat="44.86112" lon="-0.43351">
        <ele>49</ele>
        <time>2012-07-01T09:40:04.000Z</time>
      </trkpt>
      <trkpt lat="44.86117" lon="-0.43349">
        <ele>50</ele>
        <time>2012-07-01T09:40:07.000Z</time>
      </trkpt>
      <trkpt lat="44.86123" lon="-0.43347">
        <ele>51</ele>
        <time>2012-07-01T09:40:11.000Z</time>
      </trkpt>
      <trkpt lat="44.86129" lon="-0.43344">
        <ele>52</ele>
        <time>2012-07-01T09:40:15.000Z</time>
      </trkpt>
      <trkpt lat="44.8614" lon="-0.43339">
        <ele>53</ele>
        <time>2012-07-01T09:40:20.000Z</time>
      </trkpt>
      <trkpt lat="44.86147" lon="-0.43336">
        <ele>54</ele>
        <time>2012-07-01T09:40:22.000Z</time>
      </trkpt>
      <trkpt lat="44.86152" lon="-0.43334">
        <ele>55</ele>
        <time>2012-07-01T09:40:25.000Z</time>
      </trkpt>
      <trkpt lat="44.86161" lon="-0.43329">
        <ele>56</ele>
        <time>2012-07-01T09:40:31.000Z</time>
      </trkpt>
      <trkpt lat="44.86167" lon="-0.43326">
        <ele>57</ele>
        <time>2012-07-01T09:40:33.000Z</time>
      </trkpt>
      <trkpt lat="44.86176" lon="-0.43322">
        <ele>58</ele>
        <time>2012-07-01T09:40:38.000Z</time>
      </trkpt>
      <trkpt lat="44.86182" lon="-0.43319">
        <ele>59</ele>
        <time>2012-07-01T09:40:40.000Z</time>
      </trkpt>
      <trkpt lat="44.862" lon="-0.43311">
        <ele>60</ele>
        <time>2012-07-01T09:40:52.000Z</time>
      </trkpt>
      <trkpt lat="44.86206" lon="-0.43309">
        <ele>60</ele>
        <time>2012-07-01T09:40:54.000Z</time>
      </trkpt>
      <trkpt lat="44.86217" lon="-0.43306">
        <ele>61</ele>
        <time>2012-07-01T09:40:59.000Z</time>
      </trkpt>
      <trkpt lat="44.86222" lon="-0.43304">
        <ele>61</ele>
        <time>2012-07-01T09:41:02.000Z</time>
      </trkpt>
      <trkpt lat="44.86225" lon="-0.43304">
        <ele>61</ele>
        <time>2012-07-01T09:41:03.000Z</time>
      </trkpt>
      <trkpt lat="44.86229" lon="-0.43302">
        <ele>61</ele>
        <time>2012-07-01T09:41:06.000Z</time>
      </trkpt>
      <trkpt lat="44.86232" lon="-0.433">
        <ele>62</ele>
        <time>2012-07-01T09:41:08.000Z</time>
      </trkpt>
      <trkpt lat="44.86237" lon="-0.43295">
        <ele>62</ele>
        <time>2012-07-01T09:41:12.000Z</time>
      </trkpt>
      <trkpt lat="44.86239" lon="-0.43292">
        <ele>62</ele>
        <time>2012-07-01T09:41:15.000Z</time>
      </trkpt>
      <trkpt lat="44.86248" lon="-0.43283">
        <ele>63</ele>
        <time>2012-07-01T09:41:22.000Z</time>
      </trkpt>
      <trkpt lat="44.86287" lon="-0.43241">
        <ele>64</ele>
        <time>2012-07-01T09:41:35.000Z</time>
      </trkpt>
      <trkpt lat="44.86326" lon="-0.43196">
        <ele>64</ele>
        <time>2012-07-01T09:41:59.000Z</time>
      </trkpt>
      <trkpt lat="44.86341" lon="-0.43172">
        <ele>64</ele>
        <time>2012-07-01T09:42:07.000Z</time>
      </trkpt>
      <trkpt lat="44.86346" lon="-0.43156">
        <ele>64</ele>
        <time>2012-07-01T09:42:13.000Z</time>
      </trkpt>
      <trkpt lat="44.8637" lon="-0.43105">
        <ele>63</ele>
        <time>2012-07-01T09:42:19.000Z</time>
      </trkpt>
      <trkpt lat="44.8639" lon="-0.43072">
        <ele>63</ele>
        <time>2012-07-01T09:42:26.000Z</time>
      </trkpt>
      <trkpt lat="44.86401" lon="-0.43058">
        <ele>62</ele>
        <time>2012-07-01T09:42:31.000Z</time>
      </trkpt>
      <trkpt lat="44.86412" lon="-0.43048">
        <ele>62</ele>
        <time>2012-07-01T09:42:37.000Z</time>
      </trkpt>
      <trkpt lat="44.86425" lon="-0.43045">
        <ele>61</ele>
        <time>2012-07-01T09:42:41.000Z</time>
      </trkpt>
      <trkpt lat="44.86437" lon="-0.43044">
        <ele>61</ele>
        <time>2012-07-01T09:42:47.000Z</time>
      </trkpt>
      <trkpt lat="44.86444" lon="-0.43043">
        <ele>62</ele>
        <time>2012-07-01T09:42:51.000Z</time>
      </trkpt>
      <trkpt lat="44.86456" lon="-0.43043">
        <ele>62</ele>
        <time>2012-07-01T09:43:03.000Z</time>
      </trkpt>
      <trkpt lat="44.8646" lon="-0.43042">
        <ele>62</ele>
        <time>2012-07-01T09:43:07.000Z</time>
      </trkpt>
      <trkpt lat="44.86466" lon="-0.43041">
        <ele>62</ele>
        <time>2012-07-01T09:43:11.000Z</time>
      </trkpt>
      <trkpt lat="44.86471" lon="-0.43041">
        <ele>63</ele>
        <time>2012-07-01T09:43:16.000Z</time>
      </trkpt>
      <trkpt lat="44.86479" lon="-0.43041">
        <ele>63</ele>
        <time>2012-07-01T09:43:21.000Z</time>
      </trkpt>
      <trkpt lat="44.86481" lon="-0.43041">
        <ele>63</ele>
        <time>2012-07-01T09:43:24.000Z</time>
      </trkpt>
      <trkpt lat="44.86487" lon="-0.43039">
        <ele>63</ele>
        <time>2012-07-01T09:43:27.000Z</time>
      </trkpt>
      <trkpt lat="44.8649" lon="-0.43037">
        <ele>63</ele>
        <time>2012-07-01T09:43:31.000Z</time>
      </trkpt>
      <trkpt lat="44.86496" lon="-0.43035">
        <ele>63</ele>
        <time>2012-07-01T09:43:35.000Z</time>
      </trkpt>
      <trkpt lat="44.86517" lon="-0.43026">
        <ele>64</ele>
        <time>2012-07-01T09:43:42.000Z</time>
      </trkpt>
      <trkpt lat="44.86546" lon="-0.43011">
        <ele>64</ele>
        <time>2012-07-01T09:43:53.000Z</time>
      </trkpt>
      <trkpt lat="44.86565" lon="-0.43001">
        <ele>65</ele>
        <time>2012-07-01T09:44:01.000Z</time>
      </trkpt>
      <trkpt lat="44.86573" lon="-0.42998">
        <ele>65</ele>
        <time>2012-07-01T09:44:04.000Z</time>
      </trkpt>
      <trkpt lat="44.8659" lon="-0.4299">
        <ele>66</ele>
        <time>2012-07-01T09:44:11.000Z</time>
      </trkpt>
      <trkpt lat="44.8662" lon="-0.4298">
        <ele>67</ele>
        <time>2012-07-01T09:44:21.000Z</time>
      </trkpt>
      <trkpt lat="44.86627" lon="-0.42979">
        <ele>67</ele>
        <time>2012-07-01T09:44:24.000Z</time>
      </trkpt>
      <trkpt lat="44.86634" lon="-0.42976">
        <ele>67</ele>
        <time>2012-07-01T09:44:28.000Z</time>
      </trkpt>
      <trkpt lat="44.8664" lon="-0.4297">
        <ele>67</ele>
        <time>2012-07-01T09:44:32.000Z</time>
      </trkpt>
      <trkpt lat="44.86641" lon="-0.42959">
        <ele>67</ele>
        <time>2012-07-01T09:44:36.000Z</time>
      </trkpt>
      <trkpt lat="44.86637" lon="-0.42948">
        <ele>67</ele>
        <time>2012-07-01T09:44:39.000Z</time>
      </trkpt>
      <trkpt lat="44.86627" lon="-0.42901">
        <ele>66</ele>
        <time>2012-07-01T09:44:47.000Z</time>
      </trkpt>
      <trkpt lat="44.86615" lon="-0.42856">
        <ele>65</ele>
        <time>2012-07-01T09:44:54.000Z</time>
      </trkpt>
      <trkpt lat="44.86603" lon="-0.42802">
        <ele>64</ele>
        <time>2012-07-01T09:45:02.000Z</time>
      </trkpt>
      <trkpt lat="44.86591" lon="-0.4274">
        <ele>64</ele>
        <time>2012-07-01T09:45:11.000Z</time>
      </trkpt>
      <trkpt lat="44.86587" lon="-0.42722">
        <ele>63</ele>
        <time>2012-07-01T09:45:14.000Z</time>
      </trkpt>
      <trkpt lat="44.86576" lon="-0.42675">
        <ele>64</ele>
        <time>2012-07-01T09:45:21.000Z</time>
      </trkpt>
      <trkpt lat="44.8656" lon="-0.42607">
        <ele>64</ele>
        <time>2012-07-01T09:45:31.000Z</time>
      </trkpt>
      <trkpt lat="44.8655" lon="-0.42559">
        <ele>63</ele>
        <time>2012-07-01T09:45:38.000Z</time>
      </trkpt>
      <trkpt lat="44.86536" lon="-0.42495">
        <ele>63</ele>
        <time>2012-07-01T09:45:49.000Z</time>
      </trkpt>
      <trkpt lat="44.86533" lon="-0.42481">
        <ele>62</ele>
        <time>2012-07-01T09:45:50.000Z</time>
      </trkpt>
      <trkpt lat="44.86518" lon="-0.42416">
        <ele>62</ele>
        <time>2012-07-01T09:46:02.000Z</time>
      </trkpt>
      <trkpt lat="44.86514" lon="-0.42402">
        <ele>61</ele>
        <time>2012-07-01T09:46:05.000Z</time>
      </trkpt>
      <trkpt lat="44.86515" lon="-0.42364">
        <ele>60</ele>
        <time>2012-07-01T09:46:12.000Z</time>
      </trkpt>
      <trkpt lat="44.86525" lon="-0.42357">
        <ele>60</ele>
        <time>2012-07-01T09:46:17.000Z</time>
      </trkpt>
      <trkpt lat="44.86531" lon="-0.42353">
        <ele>60</ele>
        <time>2012-07-01T09:46:21.000Z</time>
      </trkpt>
      <trkpt lat="44.86538" lon="-0.42348">
        <ele>59</ele>
        <time>2012-07-01T09:46:23.000Z</time>
      </trkpt>
      <trkpt lat="44.86555" lon="-0.42333">
        <ele>60</ele>
        <time>2012-07-01T09:46:27.000Z</time>
      </trkpt>
      <trkpt lat="44.86578" lon="-0.42312">
        <ele>61</ele>
        <time>2012-07-01T09:46:34.000Z</time>
      </trkpt>
      <trkpt lat="44.86594" lon="-0.423">
        <ele>62</ele>
        <time>2012-07-01T09:46:41.000Z</time>
      </trkpt>
      <trkpt lat="44.86599" lon="-0.42293">
        <ele>62</ele>
        <time>2012-07-01T09:46:46.000Z</time>
      </trkpt>
      <trkpt lat="44.86607" lon="-0.42284">
        <ele>62</ele>
        <time>2012-07-01T09:46:50.000Z</time>
      </trkpt>
      <trkpt lat="44.86617" lon="-0.42278">
        <ele>62</ele>
        <time>2012-07-01T09:46:54.000Z</time>
      </trkpt>
      <trkpt lat="44.86659" lon="-0.42261">
        <ele>63</ele>
        <time>2012-07-01T09:47:13.000Z</time>
      </trkpt>
      <trkpt lat="44.86714" lon="-0.42244">
        <ele>62</ele>
        <time>2012-07-01T09:47:16.000Z</time>
      </trkpt>
      <trkpt lat="44.86716" lon="-0.42242">
        <ele>62</ele>
        <time>2012-07-01T09:47:24.000Z</time>
      </trkpt>
      <trkpt lat="44.86732" lon="-0.4223">
        <ele>62</ele>
        <time>2012-07-01T09:47:34.000Z</time>
      </trkpt>
      <trkpt lat="44.86737" lon="-0.42223">
        <ele>62</ele>
        <time>2012-07-01T09:47:37.000Z</time>
      </trkpt>
      <trkpt lat="44.86743" lon="-0.42218">
        <ele>62</ele>
        <time>2012-07-01T09:47:40.000Z</time>
      </trkpt>
      <trkpt lat="44.86746" lon="-0.42203">
        <ele>61</ele>
        <time>2012-07-01T09:47:45.000Z</time>
      </trkpt>
      <trkpt lat="44.86744" lon="-0.42189">
        <ele>61</ele>
        <time>2012-07-01T09:47:48.000Z</time>
      </trkpt>
      <trkpt lat="44.86732" lon="-0.42171">
        <ele>61</ele>
        <time>2012-07-01T09:47:57.000Z</time>
      </trkpt>
      <trkpt lat="44.86727" lon="-0.42172">
        <ele>61</ele>
        <time>2012-07-01T09:48:00.000Z</time>
      </trkpt>
      <trkpt lat="44.86724" lon="-0.42172">
        <ele>62</ele>
        <time>2012-07-01T09:48:02.000Z</time>
      </trkpt>
      <trkpt lat="44.86725" lon="-0.42173">
        <ele>62</ele>
        <time>2012-07-01T09:48:15.000Z</time>
      </trkpt>
      <trkpt lat="44.8673" lon="-0.42174">
        <ele>62</ele>
        <time>2012-07-01T09:48:20.000Z</time>
      </trkpt>
      <trkpt lat="44.86736" lon="-0.42173">
        <ele>62</ele>
        <time>2012-07-01T09:48:24.000Z</time>
      </trkpt>
      <trkpt lat="44.86744" lon="-0.42168">
        <ele>62</ele>
        <time>2012-07-01T09:48:28.000Z</time>
      </trkpt>
      <trkpt lat="44.86755" lon="-0.42161">
        <ele>61</ele>
        <time>2012-07-01T09:48:31.000Z</time>
      </trkpt>
      <trkpt lat="44.86766" lon="-0.42146">
        <ele>61</ele>
        <time>2012-07-01T09:48:38.000Z</time>
      </trkpt>
      <trkpt lat="44.86766" lon="-0.42135">
        <ele>61</ele>
        <time>2012-07-01T09:48:42.000Z</time>
      </trkpt>
      <trkpt lat="44.86762" lon="-0.42117">
        <ele>60</ele>
        <time>2012-07-01T09:48:47.000Z</time>
      </trkpt>
      <trkpt lat="44.86761" lon="-0.421">
        <ele>60</ele>
        <time>2012-07-01T09:48:51.000Z</time>
      </trkpt>
      <trkpt lat="44.86763" lon="-0.42087">
        <ele>59</ele>
        <time>2012-07-01T09:48:56.000Z</time>
      </trkpt>
      <trkpt lat="44.86769" lon="-0.42059">
        <ele>58</ele>
        <time>2012-07-01T09:49:04.000Z</time>
      </trkpt>
      <trkpt lat="44.8677" lon="-0.42058">
        <ele>58</ele>
        <time>2012-07-01T09:49:08.000Z</time>
      </trkpt>
      <trkpt lat="44.86768" lon="-0.42056">
        <ele>58</ele>
        <time>2012-07-01T09:49:16.000Z</time>
      </trkpt>
      <trkpt lat="44.86765" lon="-0.42054">
        <ele>58</ele>
        <time>2012-07-01T09:49:19.000Z</time>
      </trkpt>
      <trkpt lat="44.86759" lon="-0.42052">
        <ele>58</ele>
        <time>2012-07-01T09:49:21.000Z</time>
      </trkpt>
      <trkpt lat="44.8675" lon="-0.4205">
        <ele>57</ele>
        <time>2012-07-01T09:49:26.000Z</time>
      </trkpt>
      <trkpt lat="44.8674" lon="-0.42046">
        <ele>57</ele>
        <time>2012-07-01T09:49:28.000Z</time>
      </trkpt>
      <trkpt lat="44.8671" lon="-0.42037">
        <ele>58</ele>
        <time>2012-07-01T09:49:37.000Z</time>
      </trkpt>
      <trkpt lat="44.86702" lon="-0.42037">
        <ele>58</ele>
        <time>2012-07-01T09:49:39.000Z</time>
      </trkpt>
      <trkpt lat="44.86681" lon="-0.42035">
        <ele>59</ele>
        <time>2012-07-01T09:49:44.000Z</time>
      </trkpt>
      <trkpt lat="44.86659" lon="-0.42036">
        <ele>60</ele>
        <time>2012-07-01T09:49:48.000Z</time>
      </trkpt>
      <trkpt lat="44.86632" lon="-0.42038">
        <ele>61</ele>
        <time>2012-07-01T09:49:53.000Z</time>
      </trkpt>
      <trkpt lat="44.86625" lon="-0.42041">
        <ele>61</ele>
        <time>2012-07-01T09:49:56.000Z</time>
      </trkpt>
      <trkpt lat="44.86621" lon="-0.42044">
        <ele>61</ele>
        <time>2012-07-01T09:50:00.000Z</time>
      </trkpt>
      <trkpt lat="44.86621" lon="-0.42045">
        <ele>61</ele>
        <time>2012-07-01T09:50:13.000Z</time>
      </trkpt>
      <trkpt lat="44.86626" lon="-0.42046">
        <ele>61</ele>
        <time>2012-07-01T09:50:17.000Z</time>
      </trkpt>
      <trkpt lat="44.86629" lon="-0.42044">
        <ele>61</ele>
        <time>2012-07-01T09:50:20.000Z</time>
      </trkpt>
      <trkpt lat="44.86638" lon="-0.42042">
        <ele>61</ele>
        <time>2012-07-01T09:50:23.000Z</time>
      </trkpt>
      <trkpt lat="44.8665" lon="-0.4204">
        <ele>61</ele>
        <time>2012-07-01T09:50:26.000Z</time>
      </trkpt>
      <trkpt lat="44.86692" lon="-0.42036">
        <ele>60</ele>
        <time>2012-07-01T09:50:34.000Z</time>
      </trkpt>
      <trkpt lat="44.86709" lon="-0.42038">
        <ele>60</ele>
        <time>2012-07-01T09:50:35.000Z</time>
      </trkpt>
      <trkpt lat="44.86724" lon="-0.42042">
        <ele>59</ele>
        <time>2012-07-01T09:50:39.000Z</time>
      </trkpt>
      <trkpt lat="44.86743" lon="-0.42048">
        <ele>58</ele>
        <time>2012-07-01T09:50:44.000Z</time>
      </trkpt>
      <trkpt lat="44.86762" lon="-0.42056">
        <ele>57</ele>
        <time>2012-07-01T09:50:50.000Z</time>
      </trkpt>
      <trkpt lat="44.8679" lon="-0.42065">
        <ele>58</ele>
        <time>2012-07-01T09:50:57.000Z</time>
      </trkpt>
      <trkpt lat="44.8681" lon="-0.42071">
        <ele>59</ele>
        <time>2012-07-01T09:51:00.000Z</time>
      </trkpt>
      <trkpt lat="44.86829" lon="-0.42077">
        <ele>60</ele>
        <time>2012-07-01T09:51:05.000Z</time>
      </trkpt>
      <trkpt lat="44.86842" lon="-0.42077">
        <ele>60</ele>
        <time>2012-07-01T09:51:09.000Z</time>
      </trkpt>
      <trkpt lat="44.8685" lon="-0.42075">
        <ele>60</ele>
        <time>2012-07-01T09:51:11.000Z</time>
      </trkpt>
      <trkpt lat="44.86858" lon="-0.42073">
        <ele>61</ele>
        <time>2012-07-01T09:51:13.000Z</time>
      </trkpt>
      <trkpt lat="44.86868" lon="-0.42069">
        <ele>61</ele>
        <time>2012-07-01T09:51:16.000Z</time>
      </trkpt>
      <trkpt lat="44.86872" lon="-0.42064">
        <ele>61</ele>
        <time>2012-07-01T09:51:21.000Z</time>
      </trkpt>
      <trkpt lat="44.86871" lon="-0.42064">
        <ele>61</ele>
        <time>2012-07-01T09:51:38.000Z</time>
      </trkpt>
      <trkpt lat="44.86872" lon="-0.42064">
        <ele>61</ele>
        <time>2012-07-01T09:51:47.000Z</time>
      </trkpt>
      <trkpt lat="44.86881" lon="-0.42061">
        <ele>61</ele>
        <time>2012-07-01T09:52:03.000Z</time>
      </trkpt>
      <trkpt lat="44.86875" lon="-0.42055">
        <ele>61</ele>
        <time>2012-07-01T09:52:08.000Z</time>
      </trkpt>
      <trkpt lat="44.86875" lon="-0.42047">
        <ele>61</ele>
        <time>2012-07-01T09:52:12.000Z</time>
      </trkpt>
      <trkpt lat="44.86876" lon="-0.42023">
        <ele>60</ele>
        <time>2012-07-01T09:52:18.000Z</time>
      </trkpt>
      <trkpt lat="44.86878" lon="-0.41949">
        <ele>60</ele>
        <time>2012-07-01T09:52:34.000Z</time>
      </trkpt>
      <trkpt lat="44.8688" lon="-0.41938">
        <ele>59</ele>
        <time>2012-07-01T09:52:37.000Z</time>
      </trkpt>
      <trkpt lat="44.86887" lon="-0.41876">
        <ele>58</ele>
        <time>2012-07-01T09:52:49.000Z</time>
      </trkpt>
      <trkpt lat="44.86891" lon="-0.41812">
        <ele>57</ele>
        <time>2012-07-01T09:52:58.000Z</time>
      </trkpt>
      <trkpt lat="44.86896" lon="-0.4176">
        <ele>56</ele>
        <time>2012-07-01T09:53:05.000Z</time>
      </trkpt>
      <trkpt lat="44.86906" lon="-0.41691">
        <ele>57</ele>
        <time>2012-07-01T09:53:09.000Z</time>
      </trkpt>
      <trkpt lat="44.86908" lon="-0.41661">
        <ele>58</ele>
        <time>2012-07-01T09:53:11.000Z</time>
      </trkpt>
      <trkpt lat="44.86908" lon="-0.41648">
        <ele>58</ele>
        <time>2012-07-01T09:53:12.000Z</time>
      </trkpt>
      <trkpt lat="44.86909" lon="-0.41617">
        <ele>57</ele>
        <time>2012-07-01T09:53:14.000Z</time>
      </trkpt>
      <trkpt lat="44.86908" lon="-0.41579">
        <ele>56</ele>
        <time>2012-07-01T09:53:19.000Z</time>
      </trkpt>
      <trkpt lat="44.86886" lon="-0.41536">
        <ele>54</ele>
        <time>2012-07-01T09:53:23.000Z</time>
      </trkpt>
      <trkpt lat="44.86872" lon="-0.41511">
        <ele>52</ele>
        <time>2012-07-01T09:53:26.000Z</time>
      </trkpt>
      <trkpt lat="44.86862" lon="-0.41495">
        <ele>50</ele>
        <time>2012-07-01T09:53:28.000Z</time>
      </trkpt>
      <trkpt lat="44.86848" lon="-0.41469">
        <ele>47</ele>
        <time>2012-07-01T09:53:31.000Z</time>
      </trkpt>
      <trkpt lat="44.8684" lon="-0.41454">
        <ele>45</ele>
        <time>2012-07-01T09:53:33.000Z</time>
      </trkpt>
      <trkpt lat="44.86831" lon="-0.41433">
        <ele>43</ele>
        <time>2012-07-01T09:53:36.000Z</time>
      </trkpt>
      <trkpt lat="44.86824" lon="-0.41422">
        <ele>42</ele>
        <time>2012-07-01T09:53:38.000Z</time>
      </trkpt>
      <trkpt lat="44.86818" lon="-0.41408">
        <ele>40</ele>
        <time>2012-07-01T09:53:41.000Z</time>
      </trkpt>
      <trkpt lat="44.86812" lon="-0.41397">
        <ele>39</ele>
        <time>2012-07-01T09:53:44.000Z</time>
      </trkpt>
      <trkpt lat="44.86811" lon="-0.41394">
        <ele>37</ele>
        <time>2012-07-01T09:53:47.000Z</time>
      </trkpt>
      <trkpt lat="44.86809" lon="-0.41394">
        <ele>36</ele>
        <time>2012-07-01T09:54:04.000Z</time>
      </trkpt>
      <trkpt lat="44.86809" lon="-0.41397">
        <ele>35</ele>
        <time>2012-07-01T09:54:06.000Z</time>
      </trkpt>
      <trkpt lat="44.86806" lon="-0.41404">
        <ele>35</ele>
        <time>2012-07-01T09:54:08.000Z</time>
      </trkpt>
      <trkpt lat="44.86805" lon="-0.41412">
        <ele>35</ele>
        <time>2012-07-01T09:54:11.000Z</time>
      </trkpt>
      <trkpt lat="44.86807" lon="-0.41419">
        <ele>35</ele>
        <time>2012-07-01T09:54:14.000Z</time>
      </trkpt>
      <trkpt lat="44.86808" lon="-0.41422">
        <ele>36</ele>
        <time>2012-07-01T09:54:17.000Z</time>
      </trkpt>
      <trkpt lat="44.86814" lon="-0.41433">
        <ele>37</ele>
        <time>2012-07-01T09:54:22.000Z</time>
      </trkpt>
      <trkpt lat="44.86816" lon="-0.41438">
        <ele>38</ele>
        <time>2012-07-01T09:54:25.000Z</time>
      </trkpt>
      <trkpt lat="44.86821" lon="-0.41451">
        <ele>39</ele>
        <time>2012-07-01T09:54:31.000Z</time>
      </trkpt>
      <trkpt lat="44.86826" lon="-0.41459">
        <ele>40</ele>
        <time>2012-07-01T09:54:35.000Z</time>
      </trkpt>
      <trkpt lat="44.86829" lon="-0.41465">
        <ele>41</ele>
        <time>2012-07-01T09:54:40.000Z</time>
      </trkpt>
      <trkpt lat="44.8684" lon="-0.41488">
        <ele>42</ele>
        <time>2012-07-01T09:54:48.000Z</time>
      </trkpt>
      <trkpt lat="44.86843" lon="-0.41496">
        <ele>42</ele>
        <time>2012-07-01T09:54:50.000Z</time>
      </trkpt>
      <trkpt lat="44.86843" lon="-0.41506">
        <ele>43</ele>
        <time>2012-07-01T09:54:53.000Z</time>
      </trkpt>
      <trkpt lat="44.86844" lon="-0.41509">
        <ele>43</ele>
        <time>2012-07-01T09:54:55.000Z</time>
      </trkpt>
      <trkpt lat="44.86847" lon="-0.41515">
        <ele>44</ele>
        <time>2012-07-01T09:54:57.000Z</time>
      </trkpt>
      <trkpt lat="44.86853" lon="-0.41528">
        <ele>45</ele>
        <time>2012-07-01T09:55:02.000Z</time>
      </trkpt>
      <trkpt lat="44.86859" lon="-0.4154">
        <ele>46</ele>
        <time>2012-07-01T09:55:07.000Z</time>
      </trkpt>
      <trkpt lat="44.86862" lon="-0.41548">
        <ele>47</ele>
        <time>2012-07-01T09:55:10.000Z</time>
      </trkpt>
      <trkpt lat="44.86864" lon="-0.41551">
        <ele>47</ele>
        <time>2012-07-01T09:55:12.000Z</time>
      </trkpt>
      <trkpt lat="44.86869" lon="-0.41556">
        <ele>48</ele>
        <time>2012-07-01T09:55:15.000Z</time>
      </trkpt>
      <trkpt lat="44.86872" lon="-0.41559">
        <ele>48</ele>
        <time>2012-07-01T09:55:18.000Z</time>
      </trkpt>
      <trkpt lat="44.86876" lon="-0.41564">
        <ele>49</ele>
        <time>2012-07-01T09:55:21.000Z</time>
      </trkpt>
      <trkpt lat="44.86881" lon="-0.41574">
        <ele>50</ele>
        <time>2012-07-01T09:55:26.000Z</time>
      </trkpt>
      <trkpt lat="44.86883" lon="-0.41578">
        <ele>50</ele>
        <time>2012-07-01T09:55:28.000Z</time>
      </trkpt>
      <trkpt lat="44.86884" lon="-0.41581">
        <ele>51</ele>
        <time>2012-07-01T09:55:31.000Z</time>
      </trkpt>
      <trkpt lat="44.86886" lon="-0.41584">
        <ele>51</ele>
        <time>2012-07-01T09:55:33.000Z</time>
      </trkpt>
      <trkpt lat="44.86887" lon="-0.41587">
        <ele>52</ele>
        <time>2012-07-01T09:55:36.000Z</time>
      </trkpt>
      <trkpt lat="44.86893" lon="-0.41604">
        <ele>53</ele>
        <time>2012-07-01T09:55:46.000Z</time>
      </trkpt>
      <trkpt lat="44.86893" lon="-0.41609">
        <ele>53</ele>
        <time>2012-07-01T09:55:49.000Z</time>
      </trkpt>
      <trkpt lat="44.86893" lon="-0.41616">
        <ele>54</ele>
        <time>2012-07-01T09:55:56.000Z</time>
      </trkpt>
      <trkpt lat="44.86893" lon="-0.41629">
        <ele>55</ele>
        <time>2012-07-01T09:56:03.000Z</time>
      </trkpt>
      <trkpt lat="44.86895" lon="-0.41639">
        <ele>55</ele>
        <time>2012-07-01T09:56:06.000Z</time>
      </trkpt>
      <trkpt lat="44.86895" lon="-0.41648">
        <ele>56</ele>
        <time>2012-07-01T09:56:10.000Z</time>
      </trkpt>
      <trkpt lat="44.86897" lon="-0.41656">
        <ele>56</ele>
        <time>2012-07-01T09:56:13.000Z</time>
      </trkpt>
      <trkpt lat="44.869" lon="-0.41667">
        <ele>57</ele>
        <time>2012-07-01T09:56:16.000Z</time>
      </trkpt>
      <trkpt lat="44.86901" lon="-0.41673">
        <ele>57</ele>
        <time>2012-07-01T09:56:18.000Z</time>
      </trkpt>
      <trkpt lat="44.869" lon="-0.41686">
        <ele>57</ele>
        <time>2012-07-01T09:56:21.000Z</time>
      </trkpt>
      <trkpt lat="44.86894" lon="-0.41738">
        <ele>56</ele>
        <time>2012-07-01T09:56:33.000Z</time>
      </trkpt>
      <trkpt lat="44.86891" lon="-0.41766">
        <ele>55</ele>
        <time>2012-07-01T09:56:38.000Z</time>
      </trkpt>
      <trkpt lat="44.86886" lon="-0.41829">
        <ele>56</ele>
        <time>2012-07-01T09:56:50.000Z</time>
      </trkpt>
      <trkpt lat="44.86886" lon="-0.41844">
        <ele>56</ele>
        <time>2012-07-01T09:56:53.000Z</time>
      </trkpt>
      <trkpt lat="44.86887" lon="-0.4186">
        <ele>57</ele>
        <time>2012-07-01T09:56:56.000Z</time>
      </trkpt>
      <trkpt lat="44.86886" lon="-0.41888">
        <ele>57</ele>
        <time>2012-07-01T09:57:01.000Z</time>
      </trkpt>
      <trkpt lat="44.86885" lon="-0.41898">
        <ele>58</ele>
        <time>2012-07-01T09:57:03.000Z</time>
      </trkpt>
      <trkpt lat="44.86878" lon="-0.41947">
        <ele>59</ele>
        <time>2012-07-01T09:57:11.000Z</time>
      </trkpt>
      <trkpt lat="44.86874" lon="-0.42017">
        <ele>60</ele>
        <time>2012-07-01T09:57:22.000Z</time>
      </trkpt>
      <trkpt lat="44.8688" lon="-0.42056">
        <ele>60</ele>
        <time>2012-07-01T09:57:31.000Z</time>
      </trkpt>
      <trkpt lat="44.8689" lon="-0.42051">
        <ele>61</ele>
        <time>2012-07-01T09:57:34.000Z</time>
      </trkpt>
      <trkpt lat="44.86897" lon="-0.42046">
        <ele>61</ele>
        <time>2012-07-01T09:57:36.000Z</time>
      </trkpt>
      <trkpt lat="44.86939" lon="-0.42011">
        <ele>61</ele>
        <time>2012-07-01T09:57:48.000Z</time>
      </trkpt>
      <trkpt lat="44.86981" lon="-0.41977">
        <ele>61</ele>
        <time>2012-07-01T09:57:59.000Z</time>
      </trkpt>
      <trkpt lat="44.87017" lon="-0.4196">
        <ele>61</ele>
        <time>2012-07-01T09:58:08.000Z</time>
      </trkpt>
      <trkpt lat="44.87025" lon="-0.41969">
        <ele>61</ele>
        <time>2012-07-01T09:58:11.000Z</time>
      </trkpt>
      <trkpt lat="44.87033" lon="-0.41992">
        <ele>60</ele>
        <time>2012-07-01T09:58:14.000Z</time>
      </trkpt>
      <trkpt lat="44.87039" lon="-0.42007">
        <ele>59</ele>
        <time>2012-07-01T09:58:16.000Z</time>
      </trkpt>
      <trkpt lat="44.87046" lon="-0.4203">
        <ele>58</ele>
        <time>2012-07-01T09:58:19.000Z</time>
      </trkpt>
      <trkpt lat="44.87054" lon="-0.42058">
        <ele>56</ele>
        <time>2012-07-01T09:58:22.000Z</time>
      </trkpt>
      <trkpt lat="44.87063" lon="-0.42091">
        <ele>53</ele>
        <time>2012-07-01T09:58:25.000Z</time>
      </trkpt>
      <trkpt lat="44.87069" lon="-0.42111">
        <ele>51</ele>
        <time>2012-07-01T09:58:27.000Z</time>
      </trkpt>
      <trkpt lat="44.87077" lon="-0.4213">
        <ele>48</ele>
        <time>2012-07-01T09:58:30.000Z</time>
      </trkpt>
      <trkpt lat="44.87084" lon="-0.4213">
        <ele>46</ele>
        <time>2012-07-01T09:58:32.000Z</time>
      </trkpt>
      <trkpt lat="44.87091" lon="-0.42128">
        <ele>44</ele>
        <time>2012-07-01T09:58:34.000Z</time>
      </trkpt>
      <trkpt lat="44.87101" lon="-0.42123">
        <ele>43</ele>
        <time>2012-07-01T09:58:37.000Z</time>
      </trkpt>
      <trkpt lat="44.87108" lon="-0.42119">
        <ele>42</ele>
        <time>2012-07-01T09:58:39.000Z</time>
      </trkpt>
      <trkpt lat="44.87122" lon="-0.42115">
        <ele>42</ele>
        <time>2012-07-01T09:58:43.000Z</time>
      </trkpt>
      <trkpt lat="44.87135" lon="-0.42117">
        <ele>41</ele>
        <time>2012-07-01T09:58:46.000Z</time>
      </trkpt>
      <trkpt lat="44.87159" lon="-0.42118">
        <ele>40</ele>
        <time>2012-07-01T09:58:51.000Z</time>
      </trkpt>
      <trkpt lat="44.87165" lon="-0.42119">
        <ele>39</ele>
        <time>2012-07-01T09:58:56.000Z</time>
      </trkpt>
      <trkpt lat="44.8717" lon="-0.42119">
        <ele>39</ele>
        <time>2012-07-01T09:59:02.000Z</time>
      </trkpt>
      <trkpt lat="44.87174" lon="-0.42117">
        <ele>39</ele>
        <time>2012-07-01T09:59:04.000Z</time>
      </trkpt>
      <trkpt lat="44.87184" lon="-0.42107">
        <ele>38</ele>
        <time>2012-07-01T09:59:07.000Z</time>
      </trkpt>
      <trkpt lat="44.87204" lon="-0.42077">
        <ele>38</ele>
        <time>2012-07-01T09:59:14.000Z</time>
      </trkpt>
      <trkpt lat="44.87208" lon="-0.42071">
        <ele>37</ele>
        <time>2012-07-01T09:59:17.000Z</time>
      </trkpt>
      <trkpt lat="44.87216" lon="-0.42075">
        <ele>37</ele>
        <time>2012-07-01T09:59:20.000Z</time>
      </trkpt>
      <trkpt lat="44.87222" lon="-0.42081">
        <ele>37</ele>
        <time>2012-07-01T09:59:22.000Z</time>
      </trkpt>
      <trkpt lat="44.8723" lon="-0.42087">
        <ele>37</ele>
        <time>2012-07-01T09:59:25.000Z</time>
      </trkpt>
      <trkpt lat="44.87236" lon="-0.4209">
        <ele>37</ele>
        <time>2012-07-01T09:59:27.000Z</time>
      </trkpt>
      <trkpt lat="44.87241" lon="-0.42091">
        <ele>37</ele>
        <time>2012-07-01T09:59:29.000Z</time>
      </trkpt>
      <trkpt lat="44.8725" lon="-0.42088">
        <ele>37</ele>
        <time>2012-07-01T09:59:32.000Z</time>
      </trkpt>
      <trkpt lat="44.87259" lon="-0.4208">
        <ele>36</ele>
        <time>2012-07-01T09:59:35.000Z</time>
      </trkpt>
      <trkpt lat="44.87301" lon="-0.42055">
        <ele>36</ele>
        <time>2012-07-01T09:59:47.000Z</time>
      </trkpt>
      <trkpt lat="44.87315" lon="-0.42043">
        <ele>36</ele>
        <time>2012-07-01T09:59:53.000Z</time>
      </trkpt>
      <trkpt lat="44.87323" lon="-0.4204">
        <ele>36</ele>
        <time>2012-07-01T09:59:55.000Z</time>
      </trkpt>
      <trkpt lat="44.87331" lon="-0.42039">
        <ele>36</ele>
        <time>2012-07-01T09:59:58.000Z</time>
      </trkpt>
      <trkpt lat="44.87337" lon="-0.42044">
        <ele>36</ele>
        <time>2012-07-01T10:00:01.000Z</time>
      </trkpt>
      <trkpt lat="44.8734" lon="-0.42047">
        <ele>36</ele>
        <time>2012-07-01T10:00:03.000Z</time>
      </trkpt>
      <trkpt lat="44.87341" lon="-0.42056">
        <ele>36</ele>
        <time>2012-07-01T10:00:06.000Z</time>
      </trkpt>
      <trkpt lat="44.87347" lon="-0.42075">
        <ele>37</ele>
        <time>2012-07-01T10:00:13.000Z</time>
      </trkpt>
      <trkpt lat="44.87348" lon="-0.42082">
        <ele>37</ele>
        <time>2012-07-01T10:00:15.000Z</time>
      </trkpt>
      <trkpt lat="44.8735" lon="-0.42089">
        <ele>37</ele>
        <time>2012-07-01T10:00:17.000Z</time>
      </trkpt>
      <trkpt lat="44.87352" lon="-0.42097">
        <ele>38</ele>
        <time>2012-07-01T10:00:19.000Z</time>
      </trkpt>
      <trkpt lat="44.87352" lon="-0.42108">
        <ele>38</ele>
        <time>2012-07-01T10:00:22.000Z</time>
      </trkpt>
      <trkpt lat="44.87352" lon="-0.42116">
        <ele>39</ele>
        <time>2012-07-01T10:00:24.000Z</time>
      </trkpt>
      <trkpt lat="44.87356" lon="-0.4214">
        <ele>40</ele>
        <time>2012-07-01T10:00:30.000Z</time>
      </trkpt>
      <trkpt lat="44.87355" lon="-0.42148">
        <ele>40</ele>
        <time>2012-07-01T10:00:32.000Z</time>
      </trkpt>
      <trkpt lat="44.87357" lon="-0.42156">
        <ele>41</ele>
        <time>2012-07-01T10:00:34.000Z</time>
      </trkpt>
      <trkpt lat="44.8736" lon="-0.42183">
        <ele>42</ele>
        <time>2012-07-01T10:00:39.000Z</time>
      </trkpt>
      <trkpt lat="44.87364" lon="-0.42226">
        <ele>43</ele>
        <time>2012-07-01T10:00:48.000Z</time>
      </trkpt>
      <trkpt lat="44.87365" lon="-0.42243">
        <ele>44</ele>
        <time>2012-07-01T10:00:51.000Z</time>
      </trkpt>
      <trkpt lat="44.87365" lon="-0.42262">
        <ele>45</ele>
        <time>2012-07-01T10:00:55.000Z</time>
      </trkpt>
      <trkpt lat="44.87361" lon="-0.42293">
        <ele>45</ele>
        <time>2012-07-01T10:01:03.000Z</time>
      </trkpt>
      <trkpt lat="44.87357" lon="-0.42329">
        <ele>46</ele>
        <time>2012-07-01T10:01:10.000Z</time>
      </trkpt>
      <trkpt lat="44.87357" lon="-0.42357">
        <ele>46</ele>
        <time>2012-07-01T10:01:18.000Z</time>
      </trkpt>
      <trkpt lat="44.87357" lon="-0.42365">
        <ele>46</ele>
        <time>2012-07-01T10:01:21.000Z</time>
      </trkpt>
      <trkpt lat="44.87357" lon="-0.42378">
        <ele>46</ele>
        <time>2012-07-01T10:01:24.000Z</time>
      </trkpt>
      <trkpt lat="44.87355" lon="-0.42394">
        <ele>47</ele>
        <time>2012-07-01T10:01:27.000Z</time>
      </trkpt>
      <trkpt lat="44.87351" lon="-0.42413">
        <ele>48</ele>
        <time>2012-07-01T10:01:32.000Z</time>
      </trkpt>
      <trkpt lat="44.87342" lon="-0.42448">
        <ele>49</ele>
        <time>2012-07-01T10:01:42.000Z</time>
      </trkpt>
      <trkpt lat="44.87341" lon="-0.42459">
        <ele>49</ele>
        <time>2012-07-01T10:01:44.000Z</time>
      </trkpt>
      <trkpt lat="44.87342" lon="-0.42471">
        <ele>49</ele>
        <time>2012-07-01T10:01:47.000Z</time>
      </trkpt>
      <trkpt lat="44.87341" lon="-0.42517">
        <ele>49</ele>
        <time>2012-07-01T10:02:03.000Z</time>
      </trkpt>
      <trkpt lat="44.87339" lon="-0.4252">
        <ele>49</ele>
        <time>2012-07-01T10:02:05.000Z</time>
      </trkpt>
      <trkpt lat="44.87325" lon="-0.42547">
        <ele>50</ele>
        <time>2012-07-01T10:02:18.000Z</time>
      </trkpt>
      <trkpt lat="44.87315" lon="-0.42567">
        <ele>51</ele>
        <time>2012-07-01T10:02:28.000Z</time>
      </trkpt>
      <trkpt lat="44.8731" lon="-0.42582">
        <ele>51</ele>
        <time>2012-07-01T10:02:33.000Z</time>
      </trkpt>
      <trkpt lat="44.87309" lon="-0.42591">
        <ele>52</ele>
        <time>2012-07-01T10:02:37.000Z</time>
      </trkpt>
      <trkpt lat="44.87307" lon="-0.42602">
        <ele>52</ele>
        <time>2012-07-01T10:02:42.000Z</time>
      </trkpt>
      <trkpt lat="44.87306" lon="-0.4261">
        <ele>52</ele>
        <time>2012-07-01T10:02:45.000Z</time>
      </trkpt>
      <trkpt lat="44.87304" lon="-0.42616">
        <ele>52</ele>
        <time>2012-07-01T10:02:48.000Z</time>
      </trkpt>
      <trkpt lat="44.87302" lon="-0.42622">
        <ele>53</ele>
        <time>2012-07-01T10:02:51.000Z</time>
      </trkpt>
      <trkpt lat="44.87304" lon="-0.42634">
        <ele>53</ele>
        <time>2012-07-01T10:02:53.000Z</time>
      </trkpt>
      <trkpt lat="44.87312" lon="-0.42635">
        <ele>53</ele>
        <time>2012-07-01T10:02:55.000Z</time>
      </trkpt>
      <trkpt lat="44.87331" lon="-0.42629">
        <ele>53</ele>
        <time>2012-07-01T10:02:58.000Z</time>
      </trkpt>
      <trkpt lat="44.87346" lon="-0.42623">
        <ele>52</ele>
        <time>2012-07-01T10:03:00.000Z</time>
      </trkpt>
      <trkpt lat="44.87378" lon="-0.42627">
        <ele>51</ele>
        <time>2012-07-01T10:03:05.000Z</time>
      </trkpt>
      <trkpt lat="44.87389" lon="-0.42637">
        <ele>50</ele>
        <time>2012-07-01T10:03:07.000Z</time>
      </trkpt>
      <trkpt lat="44.874" lon="-0.42649">
        <ele>49</ele>
        <time>2012-07-01T10:03:10.000Z</time>
      </trkpt>
      <trkpt lat="44.87407" lon="-0.42657">
        <ele>48</ele>
        <time>2012-07-01T10:03:12.000Z</time>
      </trkpt>
      <trkpt lat="44.87416" lon="-0.42668">
        <ele>47</ele>
        <time>2012-07-01T10:03:15.000Z</time>
      </trkpt>
      <trkpt lat="44.87429" lon="-0.42691">
        <ele>47</ele>
        <time>2012-07-01T10:03:21.000Z</time>
      </trkpt>
      <trkpt lat="44.87439" lon="-0.427">
        <ele>47</ele>
        <time>2012-07-01T10:03:24.000Z</time>
      </trkpt>
      <trkpt lat="44.87454" lon="-0.42717">
        <ele>48</ele>
        <time>2012-07-01T10:03:29.000Z</time>
      </trkpt>
      <trkpt lat="44.87457" lon="-0.4273">
        <ele>48</ele>
        <time>2012-07-01T10:03:32.000Z</time>
      </trkpt>
      <trkpt lat="44.87458" lon="-0.42739">
        <ele>49</ele>
        <time>2012-07-01T10:03:34.000Z</time>
      </trkpt>
      <trkpt lat="44.87468" lon="-0.42781">
        <ele>49</ele>
        <time>2012-07-01T10:03:42.000Z</time>
      </trkpt>
      <trkpt lat="44.87474" lon="-0.42789">
        <ele>50</ele>
        <time>2012-07-01T10:03:44.000Z</time>
      </trkpt>
      <trkpt lat="44.87483" lon="-0.42799">
        <ele>50</ele>
        <time>2012-07-01T10:03:47.000Z</time>
      </trkpt>
      <trkpt lat="44.87514" lon="-0.42828">
        <ele>51</ele>
        <time>2012-07-01T10:03:55.000Z</time>
      </trkpt>
      <trkpt lat="44.87542" lon="-0.42851">
        <ele>52</ele>
        <time>2012-07-01T10:04:02.000Z</time>
      </trkpt>
      <trkpt lat="44.87552" lon="-0.42864">
        <ele>52</ele>
        <time>2012-07-01T10:04:05.000Z</time>
      </trkpt>
      <trkpt lat="44.87558" lon="-0.42873">
        <ele>53</ele>
        <time>2012-07-01T10:04:07.000Z</time>
      </trkpt>
      <trkpt lat="44.87572" lon="-0.42889">
        <ele>54</ele>
        <time>2012-07-01T10:04:12.000Z</time>
      </trkpt>
      <trkpt lat="44.87578" lon="-0.4289">
        <ele>54</ele>
        <time>2012-07-01T10:04:14.000Z</time>
      </trkpt>
      <trkpt lat="44.87589" lon="-0.42889">
        <ele>54</ele>
        <time>2012-07-01T10:04:17.000Z</time>
      </trkpt>
      <trkpt lat="44.87599" lon="-0.42886">
        <ele>55</ele>
        <time>2012-07-01T10:04:19.000Z</time>
      </trkpt>
      <trkpt lat="44.87613" lon="-0.42878">
        <ele>55</ele>
        <time>2012-07-01T10:04:22.000Z</time>
      </trkpt>
      <trkpt lat="44.8762" lon="-0.4287">
        <ele>55</ele>
        <time>2012-07-01T10:04:24.000Z</time>
      </trkpt>
      <trkpt lat="44.87628" lon="-0.42858">
        <ele>55</ele>
        <time>2012-07-01T10:04:27.000Z</time>
      </trkpt>
      <trkpt lat="44.87632" lon="-0.42848">
        <ele>55</ele>
        <time>2012-07-01T10:04:29.000Z</time>
      </trkpt>
      <trkpt lat="44.87638" lon="-0.42832">
        <ele>54</ele>
        <time>2012-07-01T10:04:32.000Z</time>
      </trkpt>
      <trkpt lat="44.8764" lon="-0.42818">
        <ele>54</ele>
        <time>2012-07-01T10:04:34.000Z</time>
      </trkpt>
      <trkpt lat="44.87641" lon="-0.42806">
        <ele>54</ele>
        <time>2012-07-01T10:04:37.000Z</time>
      </trkpt>
      <trkpt lat="44.87645" lon="-0.42763">
        <ele>53</ele>
        <time>2012-07-01T10:04:45.000Z</time>
      </trkpt>
      <trkpt lat="44.87654" lon="-0.42763">
        <ele>53</ele>
        <time>2012-07-01T10:04:48.000Z</time>
      </trkpt>
      <trkpt lat="44.87664" lon="-0.42765">
        <ele>53</ele>
        <time>2012-07-01T10:04:50.000Z</time>
      </trkpt>
      <trkpt lat="44.87709" lon="-0.42783">
        <ele>53</ele>
        <time>2012-07-01T10:05:00.000Z</time>
      </trkpt>
      <trkpt lat="44.87712" lon="-0.428">
        <ele>53</ele>
        <time>2012-07-01T10:05:03.000Z</time>
      </trkpt>
      <trkpt lat="44.8772" lon="-0.4287">
        <ele>53</ele>
        <time>2012-07-01T10:05:16.000Z</time>
      </trkpt>
      <trkpt lat="44.87722" lon="-0.42891">
        <ele>54</ele>
        <time>2012-07-01T10:05:21.000Z</time>
      </trkpt>
      <trkpt lat="44.87721" lon="-0.42896">
        <ele>54</ele>
        <time>2012-07-01T10:05:23.000Z</time>
      </trkpt>
      <trkpt lat="44.87721" lon="-0.42896">
        <ele>54</ele>
        <time>2012-07-01T10:05:43.000Z</time>
      </trkpt>
      <trkpt lat="44.87722" lon="-0.42902">
        <ele>54</ele>
        <time>2012-07-01T10:08:06.000Z</time>
      </trkpt>
      <trkpt lat="44.87726" lon="-0.4289">
        <ele>54</ele>
        <time>2012-07-01T10:08:09.000Z</time>
      </trkpt>
      <trkpt lat="44.87725" lon="-0.42896">
        <ele>54</ele>
        <time>2012-07-01T10:08:12.000Z</time>
      </trkpt>
      <trkpt lat="44.87725" lon="-0.42896">
        <ele>54</ele>
        <time>2012-07-01T10:08:32.000Z</time>
      </trkpt>
      <trkpt lat="44.87724" lon="-0.42897">
        <ele>54</ele>
        <time>2012-07-01T10:08:35.000Z</time>
      </trkpt>
      <trkpt lat="44.87724" lon="-0.42901">
        <ele>54</ele>
        <time>2012-07-01T10:08:38.000Z</time>
      </trkpt>
      <trkpt lat="44.87728" lon="-0.42944">
        <ele>55</ele>
        <time>2012-07-01T10:08:50.000Z</time>
      </trkpt>
      <trkpt lat="44.87733" lon="-0.43014">
        <ele>55</ele>
        <time>2012-07-01T10:09:06.000Z</time>
      </trkpt>
      <trkpt lat="44.87736" lon="-0.43036">
        <ele>56</ele>
        <time>2012-07-01T10:09:11.000Z</time>
      </trkpt>
      <trkpt lat="44.8774" lon="-0.43088">
        <ele>57</ele>
        <time>2012-07-01T10:09:23.000Z</time>
      </trkpt>
      <trkpt lat="44.87743" lon="-0.43095">
        <ele>57</ele>
        <time>2012-07-01T10:09:26.000Z</time>
      </trkpt>
      <trkpt lat="44.87749" lon="-0.43095">
        <ele>57</ele>
        <time>2012-07-01T10:09:28.000Z</time>
      </trkpt>
      <trkpt lat="44.87769" lon="-0.43096">
        <ele>57</ele>
        <time>2012-07-01T10:09:34.000Z</time>
      </trkpt>
      <trkpt lat="44.87794" lon="-0.43095">
        <ele>56</ele>
        <time>2012-07-01T10:09:40.000Z</time>
      </trkpt>
      <trkpt lat="44.87837" lon="-0.43094">
        <ele>55</ele>
        <time>2012-07-01T10:09:49.000Z</time>
      </trkpt>
      <trkpt lat="44.87867" lon="-0.43093">
        <ele>54</ele>
        <time>2012-07-01T10:09:55.000Z</time>
      </trkpt>
      <trkpt lat="44.87896" lon="-0.43092">
        <ele>53</ele>
        <time>2012-07-01T10:10:01.000Z</time>
      </trkpt>
      <trkpt lat="44.87928" lon="-0.43093">
        <ele>52</ele>
        <time>2012-07-01T10:10:08.000Z</time>
      </trkpt>
      <trkpt lat="44.87938" lon="-0.43095">
        <ele>52</ele>
        <time>2012-07-01T10:10:13.000Z</time>
      </trkpt>
      <trkpt lat="44.87939" lon="-0.43099">
        <ele>52</ele>
        <time>2012-07-01T10:10:16.000Z</time>
      </trkpt>
      <trkpt lat="44.8794" lon="-0.43102">
        <ele>52</ele>
        <time>2012-07-01T10:10:18.000Z</time>
      </trkpt>
      <trkpt lat="44.87944" lon="-0.43111">
        <ele>52</ele>
        <time>2012-07-01T10:10:21.000Z</time>
      </trkpt>
      <trkpt lat="44.87944" lon="-0.4312">
        <ele>51</ele>
        <time>2012-07-01T10:10:23.000Z</time>
      </trkpt>
      <trkpt lat="44.87943" lon="-0.43193">
        <ele>51</ele>
        <time>2012-07-01T10:10:35.000Z</time>
      </trkpt>
      <trkpt lat="44.87941" lon="-0.43207">
        <ele>50</ele>
        <time>2012-07-01T10:10:37.000Z</time>
      </trkpt>
      <trkpt lat="44.87928" lon="-0.43274">
        <ele>50</ele>
        <time>2012-07-01T10:10:47.000Z</time>
      </trkpt>
      <trkpt lat="44.87925" lon="-0.43292">
        <ele>49</ele>
        <time>2012-07-01T10:10:50.000Z</time>
      </trkpt>
      <trkpt lat="44.87915" lon="-0.43363">
        <ele>49</ele>
        <time>2012-07-01T10:11:01.000Z</time>
      </trkpt>
      <trkpt lat="44.87915" lon="-0.43383">
        <ele>49</ele>
        <time>2012-07-01T10:11:04.000Z</time>
      </trkpt>
      <trkpt lat="44.87917" lon="-0.43396">
        <ele>49</ele>
        <time>2012-07-01T10:11:06.000Z</time>
      </trkpt>
      <trkpt lat="44.87923" lon="-0.43415">
        <ele>48</ele>
        <time>2012-07-01T10:11:09.000Z</time>
      </trkpt>
      <trkpt lat="44.87931" lon="-0.43431">
        <ele>48</ele>
        <time>2012-07-01T10:11:12.000Z</time>
      </trkpt>
      <trkpt lat="44.87938" lon="-0.43449">
        <ele>47</ele>
        <time>2012-07-01T10:11:15.000Z</time>
      </trkpt>
      <trkpt lat="44.87941" lon="-0.43471">
        <ele>47</ele>
        <time>2012-07-01T10:11:18.000Z</time>
      </trkpt>
      <trkpt lat="44.87941" lon="-0.43485">
        <ele>46</ele>
        <time>2012-07-01T10:11:20.000Z</time>
      </trkpt>
      <trkpt lat="44.87941" lon="-0.43509">
        <ele>45</ele>
        <time>2012-07-01T10:11:23.000Z</time>
      </trkpt>
      <trkpt lat="44.87941" lon="-0.43525">
        <ele>44</ele>
        <time>2012-07-01T10:11:25.000Z</time>
      </trkpt>
      <trkpt lat="44.87946" lon="-0.43568">
        <ele>43</ele>
        <time>2012-07-01T10:11:31.000Z</time>
      </trkpt>
      <trkpt lat="44.87947" lon="-0.43577">
        <ele>42</ele>
        <time>2012-07-01T10:11:33.000Z</time>
      </trkpt>
      <trkpt lat="44.87947" lon="-0.43589">
        <ele>42</ele>
        <time>2012-07-01T10:11:35.000Z</time>
      </trkpt>
      <trkpt lat="44.87958" lon="-0.43613">
        <ele>42</ele>
        <time>2012-07-01T10:11:40.000Z</time>
      </trkpt>
      <trkpt lat="44.87976" lon="-0.43616">
        <ele>42</ele>
        <time>2012-07-01T10:11:43.000Z</time>
      </trkpt>
      <trkpt lat="44.87986" lon="-0.43618">
        <ele>41</ele>
        <time>2012-07-01T10:11:45.000Z</time>
      </trkpt>
      <trkpt lat="44.88035" lon="-0.43624">
        <ele>41</ele>
        <time>2012-07-01T10:11:57.000Z</time>
      </trkpt>
      <trkpt lat="44.88063" lon="-0.43625">
        <ele>42</ele>
        <time>2012-07-01T10:12:06.000Z</time>
      </trkpt>
      <trkpt lat="44.88073" lon="-0.43626">
        <ele>42</ele>
        <time>2012-07-01T10:12:09.000Z</time>
      </trkpt>
      <trkpt lat="44.88079" lon="-0.43629">
        <ele>42</ele>
        <time>2012-07-01T10:12:11.000Z</time>
      </trkpt>
      <trkpt lat="44.88099" lon="-0.43635">
        <ele>42</ele>
        <time>2012-07-01T10:12:17.000Z</time>
      </trkpt>
      <trkpt lat="44.8811" lon="-0.43636">
        <ele>42</ele>
        <time>2012-07-01T10:12:20.000Z</time>
      </trkpt>
      <trkpt lat="44.88121" lon="-0.43637">
        <ele>43</ele>
        <time>2012-07-01T10:12:23.000Z</time>
      </trkpt>
      <trkpt lat="44.88149" lon="-0.4364">
        <ele>44</ele>
        <time>2012-07-01T10:12:31.000Z</time>
      </trkpt>
      <trkpt lat="44.88158" lon="-0.43642">
        <ele>44</ele>
        <time>2012-07-01T10:12:33.000Z</time>
      </trkpt>
      <trkpt lat="44.882" lon="-0.43656">
        <ele>45</ele>
        <time>2012-07-01T10:12:45.000Z</time>
      </trkpt>
      <trkpt lat="44.8821" lon="-0.43662">
        <ele>45</ele>
        <time>2012-07-01T10:12:48.000Z</time>
      </trkpt>
      <trkpt lat="44.88218" lon="-0.43671">
        <ele>44</ele>
        <time>2012-07-01T10:12:51.000Z</time>
      </trkpt>
      <trkpt lat="44.88224" lon="-0.43677">
        <ele>44</ele>
        <time>2012-07-01T10:12:53.000Z</time>
      </trkpt>
      <trkpt lat="44.88232" lon="-0.43686">
        <ele>45</ele>
        <time>2012-07-01T10:12:56.000Z</time>
      </trkpt>
      <trkpt lat="44.88262" lon="-0.43728">
        <ele>46</ele>
        <time>2012-07-01T10:13:09.000Z</time>
      </trkpt>
      <trkpt lat="44.88276" lon="-0.43743">
        <ele>46</ele>
        <time>2012-07-01T10:13:15.000Z</time>
      </trkpt>
      <trkpt lat="44.88286" lon="-0.4375">
        <ele>46</ele>
        <time>2012-07-01T10:13:18.000Z</time>
      </trkpt>
      <trkpt lat="44.88306" lon="-0.43762">
        <ele>46</ele>
        <time>2012-07-01T10:13:26.000Z</time>
      </trkpt>
      <trkpt lat="44.88355" lon="-0.43786">
        <ele>46</ele>
        <time>2012-07-01T10:13:43.000Z</time>
      </trkpt>
      <trkpt lat="44.88361" lon="-0.43789">
        <ele>45</ele>
        <time>2012-07-01T10:13:45.000Z</time>
      </trkpt>
      <trkpt lat="44.88391" lon="-0.43808">
        <ele>44</ele>
        <time>2012-07-01T10:13:53.000Z</time>
      </trkpt>
      <trkpt lat="44.88424" lon="-0.43826">
        <ele>43</ele>
        <time>2012-07-01T10:14:01.000Z</time>
      </trkpt>
      <trkpt lat="44.88439" lon="-0.43821">
        <ele>43</ele>
        <time>2012-07-01T10:14:04.000Z</time>
      </trkpt>
      <trkpt lat="44.88463" lon="-0.43822">
        <ele>43</ele>
        <time>2012-07-01T10:14:09.000Z</time>
      </trkpt>
      <trkpt lat="44.88478" lon="-0.43825">
        <ele>43</ele>
        <time>2012-07-01T10:14:12.000Z</time>
      </trkpt>
      <trkpt lat="44.88492" lon="-0.43824">
        <ele>43</ele>
        <time>2012-07-01T10:14:15.000Z</time>
      </trkpt>
      <trkpt lat="44.88526" lon="-0.43817">
        <ele>43</ele>
        <time>2012-07-01T10:14:23.000Z</time>
      </trkpt>
      <trkpt lat="44.88535" lon="-0.43817">
        <ele>43</ele>
        <time>2012-07-01T10:14:25.000Z</time>
      </trkpt>
      <trkpt lat="44.88545" lon="-0.4382">
        <ele>43</ele>
        <time>2012-07-01T10:14:28.000Z</time>
      </trkpt>
      <trkpt lat="44.88559" lon="-0.43825">
        <ele>43</ele>
        <time>2012-07-01T10:15:11.000Z</time>
      </trkpt>
      <trkpt lat="44.8856" lon="-0.43824">
        <ele>43</ele>
        <time>2012-07-01T10:15:14.000Z</time>
      </trkpt>
      <trkpt lat="44.88563" lon="-0.43823">
        <ele>43</ele>
        <time>2012-07-01T10:15:16.000Z</time>
      </trkpt>
      <trkpt lat="44.88568" lon="-0.43825">
        <ele>43</ele>
        <time>2012-07-01T10:15:18.000Z</time>
      </trkpt>
      <trkpt lat="44.88577" lon="-0.43828">
        <ele>43</ele>
        <time>2012-07-01T10:15:21.000Z</time>
      </trkpt>
      <trkpt lat="44.88601" lon="-0.43834">
        <ele>43</ele>
        <time>2012-07-01T10:15:56.000Z</time>
      </trkpt>
      <trkpt lat="44.88646" lon="-0.43848">
        <ele>43</ele>
        <time>2012-07-01T10:16:15.000Z</time>
      </trkpt>
      <trkpt lat="44.88652" lon="-0.4385">
        <ele>42</ele>
        <time>2012-07-01T10:16:17.000Z</time>
      </trkpt>
      <trkpt lat="44.88659" lon="-0.43852">
        <ele>42</ele>
        <time>2012-07-01T10:16:19.000Z</time>
      </trkpt>
      <trkpt lat="44.8868" lon="-0.43852">
        <ele>42</ele>
        <time>2012-07-01T10:16:27.000Z</time>
      </trkpt>
      <trkpt lat="44.88686" lon="-0.43841">
        <ele>42</ele>
        <time>2012-07-01T10:16:31.000Z</time>
      </trkpt>
      <trkpt lat="44.88691" lon="-0.43842">
        <ele>42</ele>
        <time>2012-07-01T10:16:32.000Z</time>
      </trkpt>
      <trkpt lat="44.88697" lon="-0.43844">
        <ele>41</ele>
        <time>2012-07-01T10:16:34.000Z</time>
      </trkpt>
      <trkpt lat="44.88734" lon="-0.4386">
        <ele>40</ele>
        <time>2012-07-01T10:16:43.000Z</time>
      </trkpt>
      <trkpt lat="44.88757" lon="-0.43862">
        <ele>40</ele>
        <time>2012-07-01T10:16:49.000Z</time>
      </trkpt>
      <trkpt lat="44.8876" lon="-0.4385">
        <ele>39</ele>
        <time>2012-07-01T10:16:52.000Z</time>
      </trkpt>
      <trkpt lat="44.88762" lon="-0.43834">
        <ele>39</ele>
        <time>2012-07-01T10:16:55.000Z</time>
      </trkpt>
      <trkpt lat="44.88767" lon="-0.43818">
        <ele>39</ele>
        <time>2012-07-01T10:17:00.000Z</time>
      </trkpt>
      <trkpt lat="44.8877" lon="-0.43817">
        <ele>39</ele>
        <time>2012-07-01T10:17:03.000Z</time>
      </trkpt>
      <trkpt lat="44.8877" lon="-0.43814">
        <ele>38</ele>
        <time>2012-07-01T10:17:18.000Z</time>
      </trkpt>
      <trkpt lat="44.88777" lon="-0.43776">
        <ele>37</ele>
        <time>2012-07-01T10:17:29.000Z</time>
      </trkpt>
      <trkpt lat="44.88781" lon="-0.4375">
        <ele>36</ele>
        <time>2012-07-01T10:17:36.000Z</time>
      </trkpt>
      <trkpt lat="44.88786" lon="-0.43746">
        <ele>36</ele>
        <time>2012-07-01T10:17:39.000Z</time>
      </trkpt>
      <trkpt lat="44.88797" lon="-0.43748">
        <ele>36</ele>
        <time>2012-07-01T10:17:42.000Z</time>
      </trkpt>
      <trkpt lat="44.88811" lon="-0.43752">
        <ele>35</ele>
        <time>2012-07-01T10:17:45.000Z</time>
      </trkpt>
      <trkpt lat="44.88828" lon="-0.43754">
        <ele>34</ele>
        <time>2012-07-01T10:17:48.000Z</time>
      </trkpt>
      <trkpt lat="44.8884" lon="-0.43755">
        <ele>34</ele>
        <time>2012-07-01T10:17:50.000Z</time>
      </trkpt>
      <trkpt lat="44.88857" lon="-0.43759">
        <ele>34</ele>
        <time>2012-07-01T10:17:56.000Z</time>
      </trkpt>
      <trkpt lat="44.88858" lon="-0.43762">
        <ele>34</ele>
        <time>2012-07-01T10:17:58.000Z</time>
      </trkpt>
      <trkpt lat="44.88858" lon="-0.43772">
        <ele>35</ele>
        <time>2012-07-01T10:18:01.000Z</time>
      </trkpt>
      <trkpt lat="44.88857" lon="-0.4378">
        <ele>35</ele>
        <time>2012-07-01T10:18:03.000Z</time>
      </trkpt>
      <trkpt lat="44.88855" lon="-0.43793">
        <ele>36</ele>
        <time>2012-07-01T10:18:06.000Z</time>
      </trkpt>
      <trkpt lat="44.8885" lon="-0.43829">
        <ele>37</ele>
        <time>2012-07-01T10:18:13.000Z</time>
      </trkpt>
      <trkpt lat="44.88847" lon="-0.43855">
        <ele>38</ele>
        <time>2012-07-01T10:18:18.000Z</time>
      </trkpt>
      <trkpt lat="44.88838" lon="-0.43925">
        <ele>38</ele>
        <time>2012-07-01T10:18:30.000Z</time>
      </trkpt>
      <trkpt lat="44.88835" lon="-0.43971">
        <ele>37</ele>
        <time>2012-07-01T10:18:39.000Z</time>
      </trkpt>
      <trkpt lat="44.8884" lon="-0.4398">
        <ele>37</ele>
        <time>2012-07-01T10:18:42.000Z</time>
      </trkpt>
      <trkpt lat="44.88845" lon="-0.43985">
        <ele>36</ele>
        <time>2012-07-01T10:18:44.000Z</time>
      </trkpt>
      <trkpt lat="44.88857" lon="-0.43995">
        <ele>36</ele>
        <time>2012-07-01T10:18:49.000Z</time>
      </trkpt>
      <trkpt lat="44.88862" lon="-0.43999">
        <ele>37</ele>
        <time>2012-07-01T10:18:51.000Z</time>
      </trkpt>
      <trkpt lat="44.88886" lon="-0.44021">
        <ele>38</ele>
        <time>2012-07-01T10:19:01.000Z</time>
      </trkpt>
      <trkpt lat="44.88898" lon="-0.44032">
        <ele>39</ele>
        <time>2012-07-01T10:19:09.000Z</time>
      </trkpt>
      <trkpt lat="44.88909" lon="-0.44041">
        <ele>40</ele>
        <time>2012-07-01T10:19:19.000Z</time>
      </trkpt>
      <trkpt lat="44.88921" lon="-0.4405">
        <ele>41</ele>
        <time>2012-07-01T10:19:33.000Z</time>
      </trkpt>
      <trkpt lat="44.88923" lon="-0.44053">
        <ele>41</ele>
        <time>2012-07-01T10:19:40.000Z</time>
      </trkpt>
      <trkpt lat="44.88924" lon="-0.44053">
        <ele>41</ele>
        <time>2012-07-01T10:19:58.000Z</time>
      </trkpt>
      <trkpt lat="44.88928" lon="-0.44055">
        <ele>42</ele>
        <time>2012-07-01T10:20:03.000Z</time>
      </trkpt>
      <trkpt lat="44.88939" lon="-0.44063">
        <ele>43</ele>
        <time>2012-07-01T10:20:21.000Z</time>
      </trkpt>
      <trkpt lat="44.8895" lon="-0.44069">
        <ele>44</ele>
        <time>2012-07-01T10:20:39.000Z</time>
      </trkpt>
      <trkpt lat="44.88957" lon="-0.44074">
        <ele>45</ele>
        <time>2012-07-01T10:20:52.000Z</time>
      </trkpt>
      <trkpt lat="44.88969" lon="-0.44081">
        <ele>46</ele>
        <time>2012-07-01T10:21:12.000Z</time>
      </trkpt>
      <trkpt lat="44.88975" lon="-0.44083">
        <ele>47</ele>
        <time>2012-07-01T10:21:23.000Z</time>
      </trkpt>
      <trkpt lat="44.88976" lon="-0.44084">
        <ele>47</ele>
        <time>2012-07-01T10:21:33.000Z</time>
      </trkpt>
      <trkpt lat="44.88978" lon="-0.44085">
        <ele>47</ele>
        <time>2012-07-01T10:21:46.000Z</time>
      </trkpt>
      <trkpt lat="44.88986" lon="-0.44088">
        <ele>48</ele>
        <time>2012-07-01T10:21:56.000Z</time>
      </trkpt>
      <trkpt lat="44.88992" lon="-0.44088">
        <ele>48</ele>
        <time>2012-07-01T10:22:01.000Z</time>
      </trkpt>
      <trkpt lat="44.88996" lon="-0.44088">
        <ele>48</ele>
        <time>2012-07-01T10:22:05.000Z</time>
      </trkpt>
      <trkpt lat="44.88999" lon="-0.4409">
        <ele>49</ele>
        <time>2012-07-01T10:22:09.000Z</time>
      </trkpt>
      <trkpt lat="44.89008" lon="-0.44091">
        <ele>50</ele>
        <time>2012-07-01T10:22:16.000Z</time>
      </trkpt>
      <trkpt lat="44.89013" lon="-0.44091">
        <ele>50</ele>
        <time>2012-07-01T10:22:18.000Z</time>
      </trkpt>
      <trkpt lat="44.89023" lon="-0.44094">
        <ele>50</ele>
        <time>2012-07-01T10:22:35.000Z</time>
      </trkpt>
      <trkpt lat="44.89023" lon="-0.44104">
        <ele>51</ele>
        <time>2012-07-01T10:22:43.000Z</time>
      </trkpt>
      <trkpt lat="44.89033" lon="-0.44175">
        <ele>51</ele>
        <time>2012-07-01T10:23:11.000Z</time>
      </trkpt>
      <trkpt lat="44.89042" lon="-0.44204">
        <ele>51</ele>
        <time>2012-07-01T10:23:22.000Z</time>
      </trkpt>
      <trkpt lat="44.89045" lon="-0.44222">
        <ele>51</ele>
        <time>2012-07-01T10:23:26.000Z</time>
      </trkpt>
      <trkpt lat="44.89056" lon="-0.44278">
        <ele>52</ele>
        <time>2012-07-01T10:23:47.000Z</time>
      </trkpt>
      <trkpt lat="44.89063" lon="-0.44317">
        <ele>53</ele>
        <time>2012-07-01T10:23:54.000Z</time>
      </trkpt>
      <trkpt lat="44.89072" lon="-0.4436">
        <ele>54</ele>
        <time>2012-07-01T10:24:08.000Z</time>
      </trkpt>
      <trkpt lat="44.89083" lon="-0.44417">
        <ele>55</ele>
        <time>2012-07-01T10:24:22.000Z</time>
      </trkpt>
      <trkpt lat="44.89082" lon="-0.44426">
        <ele>55</ele>
        <time>2012-07-01T10:24:28.000Z</time>
      </trkpt>
      <trkpt lat="44.89078" lon="-0.44432">
        <ele>55</ele>
        <time>2012-07-01T10:24:34.000Z</time>
      </trkpt>
      <trkpt lat="44.89073" lon="-0.44435">
        <ele>55</ele>
        <time>2012-07-01T10:24:36.000Z</time>
      </trkpt>
      <trkpt lat="44.89066" lon="-0.44438">
        <ele>55</ele>
        <time>2012-07-01T10:24:42.000Z</time>
      </trkpt>
      <trkpt lat="44.89048" lon="-0.44449">
        <ele>55</ele>
        <time>2012-07-01T10:24:47.000Z</time>
      </trkpt>
      <trkpt lat="44.89008" lon="-0.44476">
        <ele>55</ele>
        <time>2012-07-01T10:24:59.000Z</time>
      </trkpt>
      <trkpt lat="44.8898" lon="-0.44501">
        <ele>54</ele>
        <time>2012-07-01T10:25:14.000Z</time>
      </trkpt>
      <trkpt lat="44.88984" lon="-0.44506">
        <ele>54</ele>
        <time>2012-07-01T10:25:20.000Z</time>
      </trkpt>
      <trkpt lat="44.88991" lon="-0.44511">
        <ele>54</ele>
        <time>2012-07-01T10:25:27.000Z</time>
      </trkpt>
      <trkpt lat="44.89003" lon="-0.44518">
        <ele>55</ele>
        <time>2012-07-01T10:25:35.000Z</time>
      </trkpt>
      <trkpt lat="44.89056" lon="-0.44544">
        <ele>55</ele>
        <time>2012-07-01T10:25:55.000Z</time>
      </trkpt>
      <trkpt lat="44.89112" lon="-0.44572">
        <ele>55</ele>
        <time>2012-07-01T10:26:12.000Z</time>
      </trkpt>
      <trkpt lat="44.89143" lon="-0.44623">
        <ele>55</ele>
        <time>2012-07-01T10:26:28.000Z</time>
      </trkpt>
      <trkpt lat="44.89174" lon="-0.44638">
        <ele>54</ele>
        <time>2012-07-01T10:26:42.000Z</time>
      </trkpt>
      <trkpt lat="44.89174" lon="-0.44638">
        <ele>54</ele>
        <time>2012-07-01T10:27:03.000Z</time>
      </trkpt>
      <trkpt lat="44.89291" lon="-0.45039">
        <ele>50</ele>
        <time>2012-07-01T10:27:45.000Z</time>
      </trkpt>
      <trkpt lat="44.89291" lon="-0.45039">
        <ele>50</ele>
        <time>2012-07-01T10:28:06.000Z</time>
      </trkpt>
      <trkpt lat="44.89459" lon="-0.45268">
        <ele>46</ele>
        <time>2012-07-01T10:28:39.000Z</time>
      </trkpt>
      <trkpt lat="44.89473" lon="-0.45294">
        <ele>41</ele>
        <time>2012-07-01T10:28:42.000Z</time>
      </trkpt>
      <trkpt lat="44.89482" lon="-0.45311">
        <ele>36</ele>
        <time>2012-07-01T10:28:45.000Z</time>
      </trkpt>
      <trkpt lat="44.89491" lon="-0.45328">
        <ele>32</ele>
        <time>2012-07-01T10:28:49.000Z</time>
      </trkpt>
      <trkpt lat="44.895" lon="-0.45347">
        <ele>31</ele>
        <time>2012-07-01T10:28:52.000Z</time>
      </trkpt>
      <trkpt lat="44.895" lon="-0.45347">
        <ele>31</ele>
        <time>2012-07-01T10:29:14.000Z</time>
      </trkpt>
      <trkpt lat="44.89668" lon="-0.45307">
        <ele>31</ele>
        <time>2012-07-01T10:29:42.000Z</time>
      </trkpt>
      <trkpt lat="44.89668" lon="-0.45307">
        <ele>31</ele>
        <time>2012-07-01T10:30:04.000Z</time>
      </trkpt>
      <trkpt lat="44.88406" lon="-0.41281">
        <ele>29</ele>
        <time>2012-07-01T10:52:09.000Z</time>
      </trkpt>
      <trkpt lat="44.88386" lon="-0.41276">
        <ele>28</ele>
        <time>2012-07-01T10:52:12.000Z</time>
      </trkpt>
      <trkpt lat="44.88375" lon="-0.41274">
        <ele>26</ele>
        <time>2012-07-01T10:52:14.000Z</time>
      </trkpt>
      <trkpt lat="44.8836" lon="-0.41269">
        <ele>24</ele>
        <time>2012-07-01T10:52:17.000Z</time>
      </trkpt>
      <trkpt lat="44.88351" lon="-0.41264">
        <ele>22</ele>
        <time>2012-07-01T10:52:18.000Z</time>
      </trkpt>
      <trkpt lat="44.88335" lon="-0.41258">
        <ele>23</ele>
        <time>2012-07-01T10:52:21.000Z</time>
      </trkpt>
      <trkpt lat="44.88322" lon="-0.41255">
        <ele>24</ele>
        <time>2012-07-01T10:52:24.000Z</time>
      </trkpt>
      <trkpt lat="44.88269" lon="-0.4125">
        <ele>24</ele>
        <time>2012-07-01T10:52:32.000Z</time>
      </trkpt>
      <trkpt lat="44.88251" lon="-0.41249">
        <ele>23</ele>
        <time>2012-07-01T10:52:35.000Z</time>
      </trkpt>
      <trkpt lat="44.88233" lon="-0.41249">
        <ele>22</ele>
        <time>2012-07-01T10:52:40.000Z</time>
      </trkpt>
      <trkpt lat="44.88214" lon="-0.41248">
        <ele>21</ele>
        <time>2012-07-01T10:52:49.000Z</time>
      </trkpt>
      <trkpt lat="44.88179" lon="-0.41244">
        <ele>20</ele>
        <time>2012-07-01T10:52:56.000Z</time>
      </trkpt>
      <trkpt lat="44.88169" lon="-0.4124">
        <ele>20</ele>
        <time>2012-07-01T10:53:00.000Z</time>
      </trkpt>
      <trkpt lat="44.88153" lon="-0.41234">
        <ele>19</ele>
        <time>2012-07-01T10:53:04.000Z</time>
      </trkpt>
      <trkpt lat="44.8812" lon="-0.41216">
        <ele>19</ele>
        <time>2012-07-01T10:53:13.000Z</time>
      </trkpt>
      <trkpt lat="44.88107" lon="-0.41206">
        <ele>19</ele>
        <time>2012-07-01T10:53:15.000Z</time>
      </trkpt>
      <trkpt lat="44.88076" lon="-0.41187">
        <ele>20</ele>
        <time>2012-07-01T10:53:37.000Z</time>
      </trkpt>
      <trkpt lat="44.88065" lon="-0.41182">
        <ele>20</ele>
        <time>2012-07-01T10:53:45.000Z</time>
      </trkpt>
      <trkpt lat="44.88057" lon="-0.41176">
        <ele>20</ele>
        <time>2012-07-01T10:53:53.000Z</time>
      </trkpt>
      <trkpt lat="44.88053" lon="-0.41164">
        <ele>20</ele>
        <time>2012-07-01T10:54:03.000Z</time>
      </trkpt>
      <trkpt lat="44.88057" lon="-0.41147">
        <ele>20</ele>
        <time>2012-07-01T10:54:08.000Z</time>
      </trkpt>
      <trkpt lat="44.8807" lon="-0.41082">
        <ele>20</ele>
        <time>2012-07-01T10:54:19.000Z</time>
      </trkpt>
      <trkpt lat="44.88073" lon="-0.41057">
        <ele>19</ele>
        <time>2012-07-01T10:54:21.000Z</time>
      </trkpt>
      <trkpt lat="44.88092" lon="-0.40996">
        <ele>19</ele>
        <time>2012-07-01T10:54:36.000Z</time>
      </trkpt>
      <trkpt lat="44.88103" lon="-0.40978">
        <ele>19</ele>
        <time>2012-07-01T10:54:40.000Z</time>
      </trkpt>
      <trkpt lat="44.88138" lon="-0.40932">
        <ele>18</ele>
        <time>2012-07-01T10:54:59.000Z</time>
      </trkpt>
      <trkpt lat="44.88147" lon="-0.40916">
        <ele>18</ele>
        <time>2012-07-01T10:55:06.000Z</time>
      </trkpt>
      <trkpt lat="44.8816" lon="-0.40887">
        <ele>19</ele>
        <time>2012-07-01T10:55:17.000Z</time>
      </trkpt>
      <trkpt lat="44.88169" lon="-0.4086">
        <ele>20</ele>
        <time>2012-07-01T10:55:28.000Z</time>
      </trkpt>
      <trkpt lat="44.88171" lon="-0.40848">
        <ele>20</ele>
        <time>2012-07-01T10:55:35.000Z</time>
      </trkpt>
      <trkpt lat="44.88172" lon="-0.40837">
        <ele>21</ele>
        <time>2012-07-01T10:55:44.000Z</time>
      </trkpt>
      <trkpt lat="44.88171" lon="-0.4082">
        <ele>22</ele>
        <time>2012-07-01T10:55:54.000Z</time>
      </trkpt>
      <trkpt lat="44.8817" lon="-0.40807">
        <ele>23</ele>
        <time>2012-07-01T10:55:59.000Z</time>
      </trkpt>
      <trkpt lat="44.88166" lon="-0.40785">
        <ele>24</ele>
        <time>2012-07-01T10:56:09.000Z</time>
      </trkpt>
      <trkpt lat="44.88161" lon="-0.40758">
        <ele>25</ele>
        <time>2012-07-01T10:56:24.000Z</time>
      </trkpt>
      <trkpt lat="44.88159" lon="-0.40734">
        <ele>26</ele>
        <time>2012-07-01T10:56:39.000Z</time>
      </trkpt>
      <trkpt lat="44.88157" lon="-0.40724">
        <ele>26</ele>
        <time>2012-07-01T10:56:46.000Z</time>
      </trkpt>
      <trkpt lat="44.8815" lon="-0.40683">
        <ele>27</ele>
        <time>2012-07-01T10:57:07.000Z</time>
      </trkpt>
      <trkpt lat="44.88148" lon="-0.40668">
        <ele>27</ele>
        <time>2012-07-01T10:57:14.000Z</time>
      </trkpt>
      <trkpt lat="44.88152" lon="-0.40601">
        <ele>27</ele>
        <time>2012-07-01T10:57:49.000Z</time>
      </trkpt>
      <trkpt lat="44.88154" lon="-0.4059">
        <ele>27</ele>
        <time>2012-07-01T10:57:52.000Z</time>
      </trkpt>
      <trkpt lat="44.8816" lon="-0.40572">
        <ele>27</ele>
        <time>2012-07-01T10:57:58.000Z</time>
      </trkpt>
      <trkpt lat="44.87951" lon="-0.40331">
        <ele>30</ele>
        <time>2012-07-01T10:58:08.000Z</time>
      </trkpt>
      <trkpt lat="44.87951" lon="-0.40331">
        <ele>30</ele>
        <time>2012-07-01T10:58:30.000Z</time>
      </trkpt>
      <trkpt lat="44.87949" lon="-0.40332">
        <ele>33</ele>
        <time>2012-07-01T10:58:51.000Z</time>
      </trkpt>
      <trkpt lat="44.87944" lon="-0.40334">
        <ele>36</ele>
        <time>2012-07-01T10:58:58.000Z</time>
      </trkpt>
      <trkpt lat="44.87942" lon="-0.40334">
        <ele>39</ele>
        <time>2012-07-01T10:59:03.000Z</time>
      </trkpt>
      <trkpt lat="44.87939" lon="-0.40335">
        <ele>42</ele>
        <time>2012-07-01T10:59:09.000Z</time>
      </trkpt>
      <trkpt lat="44.87929" lon="-0.40338">
        <ele>42</ele>
        <time>2012-07-01T10:59:24.000Z</time>
      </trkpt>
      <trkpt lat="44.87914" lon="-0.4034">
        <ele>43</ele>
        <time>2012-07-01T10:59:40.000Z</time>
      </trkpt>
      <trkpt lat="44.87896" lon="-0.40341">
        <ele>43</ele>
        <time>2012-07-01T10:59:56.000Z</time>
      </trkpt>
      <trkpt lat="44.8789" lon="-0.40338">
        <ele>44</ele>
        <time>2012-07-01T10:59:59.000Z</time>
      </trkpt>
      <trkpt lat="44.87882" lon="-0.40333">
        <ele>44</ele>
        <time>2012-07-01T11:00:03.000Z</time>
      </trkpt>
      <trkpt lat="44.87878" lon="-0.4033">
        <ele>45</ele>
        <time>2012-07-01T11:00:06.000Z</time>
      </trkpt>
      <trkpt lat="44.87873" lon="-0.40328">
        <ele>45</ele>
        <time>2012-07-01T11:00:11.000Z</time>
      </trkpt>
      <trkpt lat="44.87861" lon="-0.40322">
        <ele>46</ele>
        <time>2012-07-01T11:00:25.000Z</time>
      </trkpt>
      <trkpt lat="44.87848" lon="-0.4032">
        <ele>47</ele>
        <time>2012-07-01T11:00:36.000Z</time>
      </trkpt>
      <trkpt lat="44.87841" lon="-0.40321">
        <ele>47</ele>
        <time>2012-07-01T11:00:43.000Z</time>
      </trkpt>
      <trkpt lat="44.87831" lon="-0.40323">
        <ele>48</ele>
        <time>2012-07-01T11:00:50.000Z</time>
      </trkpt>
      <trkpt lat="44.87805" lon="-0.4033">
        <ele>49</ele>
        <time>2012-07-01T11:01:14.000Z</time>
      </trkpt>
      <trkpt lat="44.87782" lon="-0.40333">
        <ele>49</ele>
        <time>2012-07-01T11:01:38.000Z</time>
      </trkpt>
      <trkpt lat="44.87774" lon="-0.40329">
        <ele>50</ele>
        <time>2012-07-01T11:01:44.000Z</time>
      </trkpt>
      <trkpt lat="44.87769" lon="-0.40325">
        <ele>50</ele>
        <time>2012-07-01T11:01:51.000Z</time>
      </trkpt>
      <trkpt lat="44.87764" lon="-0.4032">
        <ele>50</ele>
        <time>2012-07-01T11:01:55.000Z</time>
      </trkpt>
      <trkpt lat="44.87753" lon="-0.40301">
        <ele>51</ele>
        <time>2012-07-01T11:02:04.000Z</time>
      </trkpt>
      <trkpt lat="44.87749" lon="-0.4029">
        <ele>51</ele>
        <time>2012-07-01T11:02:11.000Z</time>
      </trkpt>
      <trkpt lat="44.87747" lon="-0.40279">
        <ele>51</ele>
        <time>2012-07-01T11:02:15.000Z</time>
      </trkpt>
      <trkpt lat="44.87744" lon="-0.4025">
        <ele>52</ele>
        <time>2012-07-01T11:02:26.000Z</time>
      </trkpt>
      <trkpt lat="44.87744" lon="-0.4024">
        <ele>52</ele>
        <time>2012-07-01T11:02:36.000Z</time>
      </trkpt>
      <trkpt lat="44.87746" lon="-0.40176">
        <ele>52</ele>
        <time>2012-07-01T11:03:12.000Z</time>
      </trkpt>
      <trkpt lat="44.87748" lon="-0.4017">
        <ele>53</ele>
        <time>2012-07-01T11:03:16.000Z</time>
      </trkpt>
      <trkpt lat="44.87758" lon="-0.40123">
        <ele>54</ele>
        <time>2012-07-01T11:03:45.000Z</time>
      </trkpt>
      <trkpt lat="44.87591" lon="-0.39401">
        <ele>54</ele>
        <time>2012-07-01T11:04:08.000Z</time>
      </trkpt>
      <trkpt lat="44.87596" lon="-0.39385">
        <ele>53</ele>
        <time>2012-07-01T11:04:13.000Z</time>
      </trkpt>
      <trkpt lat="44.87609" lon="-0.39345">
        <ele>52</ele>
        <time>2012-07-01T11:04:23.000Z</time>
      </trkpt>
      <trkpt lat="44.87614" lon="-0.39325">
        <ele>51</ele>
        <time>2012-07-01T11:04:29.000Z</time>
      </trkpt>
      <trkpt lat="44.8764" lon="-0.39243">
        <ele>50</ele>
        <time>2012-07-01T11:04:46.000Z</time>
      </trkpt>
      <trkpt lat="44.87662" lon="-0.39176">
        <ele>50</ele>
        <time>2012-07-01T11:05:02.000Z</time>
      </trkpt>
      <trkpt lat="44.8767" lon="-0.39148">
        <ele>49</ele>
        <time>2012-07-01T11:05:11.000Z</time>
      </trkpt>
      <trkpt lat="44.87688" lon="-0.39085">
        <ele>49</ele>
        <time>2012-07-01T11:05:17.000Z</time>
      </trkpt>
      <trkpt lat="44.87694" lon="-0.39064">
        <ele>48</ele>
        <time>2012-07-01T11:05:22.000Z</time>
      </trkpt>
      <trkpt lat="44.87711" lon="-0.39006">
        <ele>48</ele>
        <time>2012-07-01T11:05:33.000Z</time>
      </trkpt>
      <trkpt lat="44.8772" lon="-0.3897">
        <ele>47</ele>
        <time>2012-07-01T11:05:36.000Z</time>
      </trkpt>
      <trkpt lat="44.87737" lon="-0.38911">
        <ele>46</ele>
        <time>2012-07-01T11:05:46.000Z</time>
      </trkpt>
      <trkpt lat="44.87746" lon="-0.38879">
        <ele>45</ele>
        <time>2012-07-01T11:05:49.000Z</time>
      </trkpt>
      <trkpt lat="44.87752" lon="-0.38858">
        <ele>44</ele>
        <time>2012-07-01T11:05:52.000Z</time>
      </trkpt>
      <trkpt lat="44.87756" lon="-0.3884">
        <ele>43</ele>
        <time>2012-07-01T11:05:55.000Z</time>
      </trkpt>
      <trkpt lat="44.87755" lon="-0.38814">
        <ele>42</ele>
        <time>2012-07-01T11:06:09.000Z</time>
      </trkpt>
      <trkpt lat="44.87753" lon="-0.38816">
        <ele>42</ele>
        <time>2012-07-01T11:06:18.000Z</time>
      </trkpt>
      <trkpt lat="44.87752" lon="-0.38822">
        <ele>42</ele>
        <time>2012-07-01T11:06:26.000Z</time>
      </trkpt>
      <trkpt lat="44.87746" lon="-0.38837">
        <ele>42</ele>
        <time>2012-07-01T11:06:36.000Z</time>
      </trkpt>
      <trkpt lat="44.87737" lon="-0.38841">
        <ele>42</ele>
        <time>2012-07-01T11:06:45.000Z</time>
      </trkpt>
      <trkpt lat="44.87729" lon="-0.3884">
        <ele>42</ele>
        <time>2012-07-01T11:06:54.000Z</time>
      </trkpt>
      <trkpt lat="44.87724" lon="-0.38834">
        <ele>43</ele>
        <time>2012-07-01T11:07:00.000Z</time>
      </trkpt>
      <trkpt lat="44.87718" lon="-0.38817">
        <ele>43</ele>
        <time>2012-07-01T11:07:09.000Z</time>
      </trkpt>
      <trkpt lat="44.87694" lon="-0.38769">
        <ele>43</ele>
        <time>2012-07-01T11:07:55.000Z</time>
      </trkpt>
      <trkpt lat="44.87687" lon="-0.38763">
        <ele>44</ele>
        <time>2012-07-01T11:07:59.000Z</time>
      </trkpt>
      <trkpt lat="44.87663" lon="-0.3874">
        <ele>45</ele>
        <time>2012-07-01T11:08:16.000Z</time>
      </trkpt>
      <trkpt lat="44.87657" lon="-0.38732">
        <ele>45</ele>
        <time>2012-07-01T11:08:25.000Z</time>
      </trkpt>
      <trkpt lat="44.87652" lon="-0.38728">
        <ele>46</ele>
        <time>2012-07-01T11:08:30.000Z</time>
      </trkpt>
      <trkpt lat="44.87633" lon="-0.38712">
        <ele>47</ele>
        <time>2012-07-01T11:08:50.000Z</time>
      </trkpt>
      <trkpt lat="44.87619" lon="-0.387">
        <ele>48</ele>
        <time>2012-07-01T11:09:03.000Z</time>
      </trkpt>
      <trkpt lat="44.87605" lon="-0.38689">
        <ele>49</ele>
        <time>2012-07-01T11:09:13.000Z</time>
      </trkpt>
      <trkpt lat="44.87587" lon="-0.38673">
        <ele>50</ele>
        <time>2012-07-01T11:09:26.000Z</time>
      </trkpt>
      <trkpt lat="44.87579" lon="-0.38671">
        <ele>50</ele>
        <time>2012-07-01T11:09:35.000Z</time>
      </trkpt>
      <trkpt lat="44.87579" lon="-0.38671">
        <ele>50</ele>
        <time>2012-07-01T11:09:56.000Z</time>
      </trkpt>
      <trkpt lat="44.87242" lon="-0.38074">
        <ele>53</ele>
        <time>2012-07-01T11:10:08.000Z</time>
      </trkpt>
      <trkpt lat="44.87236" lon="-0.38075">
        <ele>56</ele>
        <time>2012-07-01T11:10:12.000Z</time>
      </trkpt>
      <trkpt lat="44.87231" lon="-0.38076">
        <ele>59</ele>
        <time>2012-07-01T11:10:19.000Z</time>
      </trkpt>
      <trkpt lat="44.87227" lon="-0.38077">
        <ele>61</ele>
        <time>2012-07-01T11:10:22.000Z</time>
      </trkpt>
      <trkpt lat="44.87222" lon="-0.38075">
        <ele>64</ele>
        <time>2012-07-01T11:10:30.000Z</time>
      </trkpt>
      <trkpt lat="44.87219" lon="-0.38074">
        <ele>64</ele>
        <time>2012-07-01T11:10:38.000Z</time>
      </trkpt>
      <trkpt lat="44.87215" lon="-0.38073">
        <ele>64</ele>
        <time>2012-07-01T11:10:42.000Z</time>
      </trkpt>
      <trkpt lat="44.87207" lon="-0.3807">
        <ele>64</ele>
        <time>2012-07-01T11:10:51.000Z</time>
      </trkpt>
      <trkpt lat="44.87203" lon="-0.38068">
        <ele>65</ele>
        <time>2012-07-01T11:10:57.000Z</time>
      </trkpt>
      <trkpt lat="44.87182" lon="-0.3806">
        <ele>65</ele>
        <time>2012-07-01T11:11:08.000Z</time>
      </trkpt>
      <trkpt lat="44.87177" lon="-0.38057">
        <ele>65</ele>
        <time>2012-07-01T11:11:15.000Z</time>
      </trkpt>
      <trkpt lat="44.87177" lon="-0.38045">
        <ele>65</ele>
        <time>2012-07-01T11:11:23.000Z</time>
      </trkpt>
      <trkpt lat="44.87175" lon="-0.38036">
        <ele>65</ele>
        <time>2012-07-01T11:11:32.000Z</time>
      </trkpt>
      <trkpt lat="44.87168" lon="-0.38031">
        <ele>65</ele>
        <time>2012-07-01T11:11:41.000Z</time>
      </trkpt>
      <trkpt lat="44.87163" lon="-0.3803">
        <ele>65</ele>
        <time>2012-07-01T11:11:47.000Z</time>
      </trkpt>
      <trkpt lat="44.87148" lon="-0.38024">
        <ele>66</ele>
        <time>2012-07-01T11:12:03.000Z</time>
      </trkpt>
      <trkpt lat="44.87124" lon="-0.38017">
        <ele>67</ele>
        <time>2012-07-01T11:12:33.000Z</time>
      </trkpt>
      <trkpt lat="44.8712" lon="-0.38015">
        <ele>67</ele>
        <time>2012-07-01T11:12:38.000Z</time>
      </trkpt>
      <trkpt lat="44.87111" lon="-0.38012">
        <ele>67</ele>
        <time>2012-07-01T11:12:48.000Z</time>
      </trkpt>
      <trkpt lat="44.87105" lon="-0.38011">
        <ele>68</ele>
        <time>2012-07-01T11:12:54.000Z</time>
      </trkpt>
      <trkpt lat="44.87085" lon="-0.38005">
        <ele>69</ele>
        <time>2012-07-01T11:13:14.000Z</time>
      </trkpt>
      <trkpt lat="44.87082" lon="-0.38004">
        <ele>69</ele>
        <time>2012-07-01T11:13:17.000Z</time>
      </trkpt>
      <trkpt lat="44.87058" lon="-0.37996">
        <ele>70</ele>
        <time>2012-07-01T11:13:31.000Z</time>
      </trkpt>
      <trkpt lat="44.87028" lon="-0.37986">
        <ele>71</ele>
        <time>2012-07-01T11:14:03.000Z</time>
      </trkpt>
      <trkpt lat="44.87009" lon="-0.37982">
        <ele>71</ele>
        <time>2012-07-01T11:14:17.000Z</time>
      </trkpt>
      <trkpt lat="44.87003" lon="-0.37984">
        <ele>71</ele>
        <time>2012-07-01T11:14:20.000Z</time>
      </trkpt>
      <trkpt lat="44.86996" lon="-0.37982">
        <ele>72</ele>
        <time>2012-07-01T11:14:24.000Z</time>
      </trkpt>
      <trkpt lat="44.8699" lon="-0.37977">
        <ele>72</ele>
        <time>2012-07-01T11:14:28.000Z</time>
      </trkpt>
      <trkpt lat="44.86976" lon="-0.37971">
        <ele>72</ele>
        <time>2012-07-01T11:14:39.000Z</time>
      </trkpt>
      <trkpt lat="44.86958" lon="-0.37962">
        <ele>71</ele>
        <time>2012-07-01T11:14:51.000Z</time>
      </trkpt>
      <trkpt lat="44.86942" lon="-0.37956">
        <ele>71</ele>
        <time>2012-07-01T11:15:02.000Z</time>
      </trkpt>
      <trkpt lat="44.86937" lon="-0.37955">
        <ele>71</ele>
        <time>2012-07-01T11:15:09.000Z</time>
      </trkpt>
      <trkpt lat="44.86892" lon="-0.37942">
        <ele>71</ele>
        <time>2012-07-01T11:15:47.000Z</time>
      </trkpt>
      <trkpt lat="44.86892" lon="-0.37942">
        <ele>71</ele>
        <time>2012-07-01T11:16:07.000Z</time>
      </trkpt>
      <trkpt lat="44.86317" lon="-0.37381">
        <ele>72</ele>
        <time>2012-07-01T11:19:09.000Z</time>
      </trkpt>
      <trkpt lat="44.86308" lon="-0.37328">
        <ele>73</ele>
        <time>2012-07-01T11:19:16.000Z</time>
      </trkpt>
      <trkpt lat="44.86298" lon="-0.373">
        <ele>73</ele>
        <time>2012-07-01T11:19:21.000Z</time>
      </trkpt>
      <trkpt lat="44.86291" lon="-0.37284">
        <ele>74</ele>
        <time>2012-07-01T11:19:23.000Z</time>
      </trkpt>
      <trkpt lat="44.86267" lon="-0.37226">
        <ele>74</ele>
        <time>2012-07-01T11:19:42.000Z</time>
      </trkpt>
      <trkpt lat="44.86254" lon="-0.37176">
        <ele>74</ele>
        <time>2012-07-01T11:19:55.000Z</time>
      </trkpt>
      <trkpt lat="44.86244" lon="-0.37114">
        <ele>74</ele>
        <time>2012-07-01T11:20:10.000Z</time>
      </trkpt>
      <trkpt lat="44.86234" lon="-0.37048">
        <ele>74</ele>
        <time>2012-07-01T11:20:27.000Z</time>
      </trkpt>
      <trkpt lat="44.8623" lon="-0.37027">
        <ele>75</ele>
        <time>2012-07-01T11:20:34.000Z</time>
      </trkpt>
      <trkpt lat="44.86225" lon="-0.36987">
        <ele>76</ele>
        <time>2012-07-01T11:20:41.000Z</time>
      </trkpt>
      <trkpt lat="44.86224" lon="-0.36962">
        <ele>77</ele>
        <time>2012-07-01T11:20:46.000Z</time>
      </trkpt>
      <trkpt lat="44.86224" lon="-0.36948">
        <ele>78</ele>
        <time>2012-07-01T11:20:50.000Z</time>
      </trkpt>
      <trkpt lat="44.86226" lon="-0.369">
        <ele>79</ele>
        <time>2012-07-01T11:20:58.000Z</time>
      </trkpt>
      <trkpt lat="44.86229" lon="-0.3687">
        <ele>80</ele>
        <time>2012-07-01T11:21:13.000Z</time>
      </trkpt>
      <trkpt lat="44.86223" lon="-0.36848">
        <ele>79</ele>
        <time>2012-07-01T11:21:32.000Z</time>
      </trkpt>
      <trkpt lat="44.86216" lon="-0.36846">
        <ele>79</ele>
        <time>2012-07-01T11:21:41.000Z</time>
      </trkpt>
      <trkpt lat="44.86209" lon="-0.36844">
        <ele>79</ele>
        <time>2012-07-01T11:21:46.000Z</time>
      </trkpt>
      <trkpt lat="44.86192" lon="-0.36841">
        <ele>78</ele>
        <time>2012-07-01T11:21:48.000Z</time>
      </trkpt>
      <trkpt lat="44.86192" lon="-0.36841">
        <ele>78</ele>
        <time>2012-07-01T11:22:09.000Z</time>
      </trkpt>
      <trkpt lat="44.86192" lon="-0.36841">
        <ele>78</ele>
        <time>2012-07-01T11:22:58.000Z</time>
      </trkpt>
    </trkseg>
  </trk>
</gpx>